GFSSGP_con_mucape_000.txt.gz
CAPE
1 0 0 0 0 0 0 0 0 0 6 4 0 0 0 0 0 0 1 51 16 30 28 783 1250 886 575 456 164 72 30 5 0 2 4 1 10 9 15 28 24 13 3 1 0 2 17 28 28
0 0 0 0 0 0 0 0 0 0 0 10 3 0 0 0 0 0 5 37 38 40 44 164 1007 919 812 387 231 115 48 14 0 0 14 8 24 13 19 16 13 5 3 0 0 1 5 13 18
0 0 0 0 0 0 0 0 0 0 0 14 2 0 7 0 0 0 14 60 71 67 88 237 1435 979 746 439 345 219 122 65 6 0 13 26 46 27 19 13 6 0 0 0 0 0 9 11 12
0 0 0 0 0 0 0 0 0 0 0 0 0 8 13 9 2 6 26 69 87 94 139 592 1493 1238 1086 539 473 260 189 91 55 7 6 21 43 56 25 19 8 0 0 0 0 0 0 1 8
0 0 0 0 0 0 0 0 0 0 0 0 0 0 11 10 6 1 64 91 93 124 184 228 1199 1033 968 557 377 269 247 120 68 9 18 37 42 248 32 25 16 5 3 1 8 15 9 3 0
0 0 0 0 0 0 0 0 0 0 0 0 0 0 6 11 13 18 122 119 114 183 294 183 736 1418 1245 752 645 366 316 237 134 13 19 28 104 229 132 46 21 15 14 9 6 25 28 28 25
0 0 0 0 0 0 0 0 0 0 0 0 0 8 7 0 0 24 148 139 193 263 371 291 280 803 1200 973 834 686 539 307 205 49 0 29 24 30 38 28 27 25 29 17 11 21 28 46 49
0 0 0 0 0 0 0 0 0 0 0 0 0 13 8 0 0 0 72 138 233 376 445 472 466 603 613 599 620 594 514 338 269 178 93 11 0 0 0 6 13 7 14 10 0 0 1 2 21
0 0 0 0 0 0 0 0 0 0 0 0 0 0 2 3 0 0 2 43 159 297 492 579 529 665 651 542 435 469 376 291 152 69 20 0 0 2 0 0 0 0 0 0 0 0 0 6 6
0 0 0 0 0 0 0 0 0 0 0 0 0 0 7 6 5 3 0 2 35 123 314 529 653 694 701 568 503 396 292 236 120 21 0 0 0 0 0 0 0 0 0 0 0 0 0 1 0
0 0 0 0 0 0 0 0 0 0 0 0 0 0 0 3 7 4 2 0 0 9 96 323 644 747 751 698 583 426 338 246 143 52 1 0 0 0 0 0 0 0 0 0 0 1 0 0 0
0 0 0 0 0 0 0 0 0 0 0 0 0 0 0 0 1 3 0 0 0 0 3 82 323 626 733 749 655 470 370 252 152 59 5 0 0 0 0 0 0 0 0 1 2 1 1 1 2
0 0 0 0 0 0 0 0 0 0 0 0 0 0 0 0 0 0 0 0 0 5 11 13 77 300 538 675 617 537 389 249 146 111 19 0 0 0 1 3 2 3 3 1 3 2 3 3 2
5 0 0 0 0 0 0 0 0 0 0 0 0 0 0 0 0 0 0 0 0 0 0 0 3 67 250 445 519 436 364 253 184 103 46 0 0 0 1 1 2 2 5 3 2 2 2 1 2
71 26 27 0 0 0 0 0 0 0 0 0 0 0 0 0 0 0 0 0 0 0 0 0 0 0 103 259 360 339 272 129 128 55 13 0 0 0 0 1 1 17 6 4 15 6 7 9 11
192 84 59 0 8 0 0 0 0 0 0 0 0 0 0 0 0 0 0 0 0 0 0 0 0 0 7 119 181 135 77 38 12 0 0 0 0 0 0 3 8 5 4 7 8 7 7 10 11
178 59 21 15 3 0 0 0 0 0 0 0 0 0 0 0 0 0 0 0 0 0 0 0 0 0 9 28 25 7 0 0 0 0 0 0 0 0 2 1 0 0 0 0 1 1 1 3 6
40 44 23 24 1 0 0 0 0 0 0 0 0 0 0 0 0 0 0 0 0 0 0 0 0 0 4 23 41 41 3 0 0 0 0 0 0 0 0 0 0 0 0 0 0 0 0 0 1
5 31 33 10 0 0 0 0 0 0 0 0 0 0 0 0 0 0 0 0 0 0 0 0 0 1 25 83 11 0 0 0 0 0 0 0 0 0 0 0 0 0 0 0 0 0 0 0 0
53 11 14 18 0 0 0 0 0 0 0 0 0 0 0 0 0 0 0 0 0 0 0 0 0 0 0 0 0 0 0 0 0 0 0 0 0 0 0 0 0 0 0 0 0 0 0 0 0
52 14 9 7 0 3 0 0 0 0 0 0 0 0 0 0 0 0 0 0 0 0 0 0 0 0 0 0 0 0 0 0 0 0 0 0 0 0 0 0 0 0 0 0 0 0 0 0 0
55 40 9 5 37 43 0 0 0 0 0 0 0 0 0 0 0 0 0 0 0 0 0 0 0 0 0 0 0 0 0 0 0 0 0 0 0 0 0 0 0 0 0 0 0 0 0 0 0
53 19 17 12 28 3 0 0 0 0 0 0 0 0 0 0 0 0 0 0 0 0 0 0 0 0 0 0 0 0 0 0 0 0 0 0 0 0 0 0 0 0 0 0 0 0 0 0 0
15 0 4 16 4 17 1 0 0 0 0 0 0 0 0 0 0 0 0 0 0 0 0 0 0 0 0 0 0 0 0 0 0 0 0 0 0 0 0 0 0 0 0 0 0 0 0 0 0
40 46 38 12 0 4 0 0 0 0 0 0 0 0 0 0 0 0 0 0 0 0 0 0 0 0 0 0 0 0 0 0 0 0 0 0 0 0 0 0 0 0 0 0 0 0 0 0 0
0 42 19 0 0 0 0 0 0 0 0 0 0 0 0 0 0 0 0 0 0 0 0 0 0 0 0 0 0 0 0 0 0 0 0 0 0 0 0 0 0 0 0 0 0 0 0 0 0
1 0 2 0 0 0 0 0 0 0 0 0 0 0 0 0 0 0 0 0 0 0 0 0 0 0 0 0 0 0 0 0 0 0 0 0 0 0 0 0 0 0 0 0 0 0 0 0 0
38 0 0 0 0 0 0 0 0 0 0 0 0 0 0 0 0 0 0 0 0 0 0 0 0 0 0 0 0 0 0 0 0 0 0 0 0 0 0 0 0 0 0 0 0 0 0 0 0
1 0 0 0 0 0 0 0 0 0 0 0 0 0 0 0 0 0 0 0 0 0 0 0 0 0 0 0 0 0 0 0 0 0 0 0 0 0 0 0 0 0 0 0 0 0 0 0 0
0 0 8 13 0 0 0 0 0 0 0 0 0 0 0 0 0 0 0 0 0 0 0 0 0 0 0 0 0 0 0 0 1 0 0 0 0 0 0 0 0 0 0 0 0 0 0 0 0

GFSSGP_con_mucape_003.txt.gz
CAPE
17 0 0 0 0 0 0 1 16 4 8 0 0 0 0 0 0 0 12 30 0 0 72 354 1131 714 467 288 99 33 1 0 0 0 1 3 11 6 12 20 25 16 8 0 0 0 0 12 23
0 0 0 0 0 0 0 0 0 23 0 2 0 0 0 0 0 3 61 22 0 0 81 312 1335 721 637 255 95 31 19 2 0 0 4 15 16 13 22 7 15 16 16 0 0 0 0 0 19
0 0 0 0 0 0 0 0 1 0 4 17 7 0 0 0 0 0 24 32 9 2 39 632 1428 774 716 257 151 73 39 14 0 0 5 29 35 28 14 9 18 19 7 0 0 0 0 0 4
0 0 0 0 0 0 0 0 0 0 0 21 0 0 0 0 0 24 38 32 30 29 76 934 1429 904 625 348 281 123 64 43 27 0 10 22 57 149 60 31 15 11 8 0 0 0 0 0 0
0 0 0 0 0 0 0 0 0 0 0 10 0 0 0 0 0 6 53 37 46 65 148 369 1411 795 639 406 328 192 142 48 20 7 11 37 113 188 192 64 21 10 6 2 0 5 11 11 9
0 0 0 0 0 0 0 0 0 0 0 0 0 0 0 0 8 32 76 46 43 84 184 303 1074 1204 1093 666 504 294 231 164 87 9 0 10 112 256 229 167 22 15 15 20 1 1 3 23 25
0 2 2 0 0 0 0 0 0 0 0 0 0 0 2 0 0 19 87 56 80 145 261 217 261 354 1210 1032 912 647 453 315 171 60 0 15 49 54 77 45 1 11 7 15 0 0 0 0 0
0 1 4 0 0 0 1 0 0 0 0 0 0 0 16 0 0 0 52 85 114 232 326 330 333 433 383 326 680 564 425 364 150 94 94 71 47 9 0 0 0 0 0 0 0 0 0 0 0
0 1 0 0 0 0 0 0 0 0 0 0 0 0 0 0 1 5 3 49 136 266 385 449 408 508 439 358 499 475 413 292 197 116 81 51 0 0 0 0 0 0 0 0 0 1 1 0 0
0 0 0 0 0 1 0 0 0 0 0 0 0 0 0 0 7 8 1 0 57 191 319 480 524 567 540 344 359 283 269 198 163 66 26 1 0 0 0 0 0 0 0 0 0 0 0 0 0
25 0 0 0 1 0 0 0 0 0 0 0 0 0 0 0 7 17 10 3 1 40 196 329 577 634 649 572 437 308 218 174 97 50 26 0 0 0 0 0 0 0 0 0 0 0 0 0 0
38 9 0 3 5 0 0 0 0 0 0 0 0 0 0 0 0 21 17 10 0 5 23 151 348 646 716 647 541 379 257 199 135 84 41 14 1 0 1 1 1 1 2 3 6 13 12 15 1
36 15 3 2 12 0 0 0 0 0 0 0 0 0 0 0 0 0 2 2 0 8 17 47 145 372 594 691 591 449 330 227 170 178 143 92 108 99 82 56 47 53 51 32 44 42 35 33 15
48 64 23 15 16 0 0 0 0 0 0 0 0 0 0 0 0 0 0 0 0 5 9 20 52 118 342 510 545 463 345 268 240 198 188 141 114 112 105 113 83 76 46 46 29 25 41 15 28
164 110 57 17 35 4 3 0 0 0 0 0 0 0 0 0 0 0 0 0 0 0 0 0 0 5 151 367 462 405 335 219 244 206 138 97 57 65 73 72 55 82 70 43 21 18 7 8 5
135 189 70 20 44 9 6 0 0 0 0 0 0 0 0 0 0 0 0 0 0 0 0 0 0 0 55 249 366 312 247 191 145 80 66 26 8 8 28 24 6 0 0 0 0 0 0 0 0
207 158 52 74 46 9 23 0 0 0 0 0 0 0 0 0 0 0 0 0 0 0 0 0 0 6 72 212 210 123 86 88 88 45 7 0 0 0 0 0 0 0 0 0 0 0 0 0 0
153 91 98 127 32 20 22 0 0 0 0 0 0 0 0 0 0 0 0 0 0 0 0 0 4 36 57 68 82 109 12 0 0 0 0 0 0 0 0 0 0 0 0 0 0 0 0 0 0
123 229 170 150 53 50 8 0 0 0 0 0 0 0 0 0 0 0 0 0 0 0 0 9 23 59 112 140 0 0 0 0 0 0 0 0 0 0 0 0 0 0 0 0 0 0 0 0 0
192 202 230 109 56 2 2 0 0 0 0 0 0 0 0 0 0 0 0 0 0 0 0 0 0 8 0 0 0 0 0 0 0 0 0 0 0 0 0 0 0 0 0 0 0 0 0 0 0
204 184 179 92 37 0 5 0 0 0 0 0 0 0 0 0 0 0 0 0 0 0 0 0 0 0 0 0 0 0 0 0 0 0 0 0 0 0 0 0 0 0 0 0 0 0 0 0 0
251 95 36 61 63 39 7 0 0 0 0 0 0 0 0 0 0 0 0 0 0 0 0 0 0 0 0 0 0 0 0 0 0 0 0 0 0 0 0 0 0 0 0 0 0 0 0 0 0
104 1 69 103 149 100 17 4 0 0 0 0 0 0 0 0 0 0 0 0 0 0 0 0 0 0 0 0 0 0 0 0 0 0 0 0 0 0 0 0 0 0 0 0 0 0 0 0 0
72 107 110 116 90 26 8 7 2 0 0 0 0 0 0 0 0 0 0 0 0 0 0 0 0 0 0 0 0 0 0 0 0 0 0 0 0 0 0 0 0 0 0 0 0 0 0 0 0
34 49 104 28 80 13 15 27 11 0 0 0 0 0 0 0 0 0 0 0 0 0 0 0 0 0 0 0 0 0 0 0 0 0 0 0 0 0 0 0 0 0 0 0 0 0 0 0 0
4 13 0 0 0 14 0 0 0 0 0 0 0 0 0 0 0 0 0 0 0 0 0 0 0 0 0 0 0 0 0 0 0 0 0 0 0 0 0 0 0 0 0 0 0 0 0 0 0
14 79 14 16 10 59 0 0 0 0 0 0 0 0 0 0 0 0 0 0 0 0 0 0 0 0 0 0 0 0 0 0 0 0 0 0 0 0 0 0 0 0 0 0 0 0 0 0 0
5 52 13 24 0 0 8 5 14 0 0 0 0 0 0 0 0 0 0 0 0 0 0 0 0 0 0 0 0 0 0 0 0 0 0 0 0 0 0 0 0 0 0 0 0 0 0 0 0
5 36 26 28 15 60 83 25 4 0 0 0 0 0 0 0 0 0 0 0 0 0 0 0 0 0 0 0 0 0 0 0 0 0 0 0 0 0 0 0 0 0 0 0 0 0 0 0 0
31 18 41 101 1 1 4 0 0 0 0 0 0 0 0 0 0 0 0 0 0 0 0 0 0 0 0 0 0 0 0 0 0 0 0 0 0 0 0 0 0 0 0 0 0 0 0 0 0

GFSSGP_con_mucape_006.txt.gz
CAPE
52 0 0 0 0 0 0 0 9 8 11 3 0 0 0 0 0 6 8 1 0 68 152 571 1335 1029 678 335 83 13 0 0 0 0 1 0 11 9 5 1 9 10 10 5 0 0 0 0 9
2 0 0 0 0 0 0 0 7 7 0 0 4 2 0 0 0 12 63 0 0 93 105 210 1433 938 647 427 101 37 13 0 0 0 21 28 19 22 18 7 9 11 3 0 0 0 0 0 2
46 0 0 0 0 0 0 0 0 0 0 0 4 0 1 0 0 3 39 0 0 25 189 757 1395 1224 721 258 84 38 28 4 0 0 5 29 38 56 20 15 12 10 0 0 0 0 0 0 0
0 0 0 0 0 0 0 0 0 0 0 0 0 13 8 0 0 13 28 7 14 20 509 1077 1401 1372 959 418 191 68 43 26 8 0 11 21 63 102 119 32 33 1 0 0 0 0 0 0 0
0 0 0 0 0 0 0 0 0 0 0 0 10 8 0 0 0 28 35 24 31 84 664 994 1399 1229 951 708 328 144 79 23 4 0 5 16 87 180 164 72 24 0 0 0 0 0 0 2 8
0 0 0 0 0 0 0 0 0 0 0 0 15 0 1 0 1 36 45 26 43 107 280 838 1070 956 1069 696 502 309 186 96 66 3 0 0 50 138 178 159 36 0 0 0 0 0 0 0 1
0 0 0 0 0 0 0 0 0 0 0 0 0 1 1 0 0 44 61 44 49 129 236 214 567 683 1100 958 906 600 496 346 155 48 4 45 25 29 75 121 21 0 0 0 0 0 0 0 0
0 0 0 0 0 0 0 0 0 0 0 0 0 0 3 0 0 13 75 79 75 178 214 208 307 269 483 306 572 514 399 358 167 95 69 37 31 29 44 56 54 3 0 0 0 0 0 0 0
11 0 0 0 0 0 0 0 0 0 0 0 0 0 0 0 0 0 3 83 116 202 255 268 291 397 334 337 359 424 320 287 186 92 57 33 0 0 0 0 0 0 0 0 0 0 0 0 0
3 0 0 0 0 0 0 0 0 0 0 0 0 0 0 0 0 0 2 20 90 194 264 350 340 390 342 276 335 219 134 134 108 84 62 19 0 0 0 0 0 0 1 1 0 0 14 2 0
5 0 0 0 0 0 0 0 0 0 0 0 0 0 0 0 0 0 1 5 18 108 221 354 399 410 395 329 282 276 225 167 126 79 30 9 0 0 0 0 0 0 0 0 0 3 0 0 0
20 11 0 0 0 8 0 0 0 0 0 0 0 0 0 0 0 0 0 5 5 20 163 256 374 462 488 453 333 270 156 129 88 59 38 21 17 4 13 6 0 2 6 7 7 23 35 33 25
20 15 10 1 0 1 3 0 0 0 0 0 0 0 0 0 0 0 0 0 0 0 2 87 217 422 512 519 453 317 204 149 114 114 116 99 106 98 90 113 124 71 50 68 23 100 26 9 5
50 38 23 11 1 1 2 0 0 0 0 0 0 0 0 0 0 0 0 0 0 1 15 16 40 201 417 513 455 371 259 191 169 167 156 134 111 101 115 153 160 106 43 38 8 6 1 1 0
50 58 70 13 5 7 3 0 0 0 0 0 0 0 0 0 0 0 0 0 0 0 0 0 3 26 226 356 421 339 254 216 208 228 132 94 127 73 61 151 31 4 0 0 0 0 0 0 0
49 57 20 0 7 9 8 0 0 0 0 0 0 0 0 0 0 0 0 0 0 0 0 0 0 0 72 315 316 245 268 182 135 84 244 43 11 0 0 0 0 0 0 0 0 0 0 0 0
47 9 1 0 16 5 11 0 0 0 0 0 0 0 0 0 0 0 0 0 0 0 0 0 0 0 72 241 206 186 79 61 78 87 9 0 0 0 0 0 0 0 0 0 0 0 0 0 0
0 32 2 9 4 45 3 10 0 0 0 0 0 0 0 0 0 0 0 0 0 0 0 0 7 53 122 162 135 62 28 2 0 0 0 0 0 0 0 0 0 0 0 0 0 0 0 0 0
7 21 155 26 85 84 20 11 0 0 0 0 0 0 0 0 0 0 0 0 0 0 0 6 6 13 15 30 18 0 0 0 0 0 0 0 0 0 0 0 0 0 0 0 0 0 0 0 0
2 26 25 56 166 81 45 20 1 0 0 0 0 0 0 0 0 0 0 0 0 0 1 10 32 38 34 3 0 0 0 0 0 0 0 0 0 0 0 0 0 0 0 0 0 0 0 0 0
26 23 88 60 147 117 68 20 0 0 0 0 0 0 0 0 0 0 0 0 0 0 0 0 0 0 0 0 0 0 0 0 0 0 0 0 0 0 0 0 0 0 0 0 0 0 0 0 0
0 0 24 16 110 14 2 0 0 0 0 0 0 0 0 0 0 0 0 0 0 0 0 0 0 0 0 0 0 0 0 0 0 0 0 0 0 0 0 0 0 0 0 0 0 0 0 0 0
1 7 31 20 8 29 4 0 0 0 0 0 0 0 0 0 0 0 0 0 0 0 0 0 0 0 0 0 0 0 0 0 0 0 0 0 0 0 0 0 0 0 0 0 0 0 0 0 0
17 21 11 67 65 20 0 0 14 0 2 0 0 0 0 0 0 0 0 0 0 0 0 0 0 0 0 0 0 0 0 0 0 0 0 0 0 0 0 0 0 0 0 0 0 0 0 0 0
151 94 0 0 0 0 5 50 3 0 0 0 0 0 0 0 0 0 0 0 0 0 0 0 0 0 0 0 0 0 0 0 0 0 0 0 0 0 0 0 0 0 0 0 0 0 0 0 0
71 19 19 0 0 1 0 0 13 1 0 0 0 0 0 0 0 0 0 0 0 0 0 0 0 0 0 0 0 0 0 0 0 0 0 0 0 0 0 0 0 0 0 0 0 0 0 0 0
47 0 0 0 1 0 0 1 0 0 0 0 0 0 0 0 0 0 0 0 0 0 0 0 0 0 0 0 0 0 0 0 0 0 0 0 0 0 0 0 0 0 0 0 0 0 0 0 0
16 0 0 13 1 9 3 0 0 0 0 0 0 0 0 0 0 0 0 0 0 0 0 0 0 0 0 0 0 0 0 0 0 0 0 0 0 0 0 0 0 0 0 0 0 0 0 0 0
14 0 13 0 17 6 0 15 0 0 0 0 0 0 0 0 0 0 0 0 0 0 0 0 0 0 0 0 0 0 0 0 0 0 0 0 0 0 0 0 0 0 0 0 0 0 0 0 0
1 0 8 21 15 13 11 0 0 0 0 0 0 0 0 0 0 0 0 0 0 0 0 0 0 0 0 0 0 0 0 0 0 0 0 0 0 0 0 0 0 0 0 0 0 0 0 0 0

GFSSGP_con_mucape_009.txt.gz
CAPE
182 0 0 0 0 0 0 0 0 6 7 5 0 0 0 0 0 0 9 60 96 388 790 999 1443 1218 844 400 42 6 0 0 0 0 3 3 11 11 23 18 3 0 0 0 0 0 0 0 0
234 0 0 0 0 0 0 0 0 0 0 0 0 0 0 0 0 18 26 37 130 359 536 740 1508 1343 855 312 55 14 0 0 0 0 29 8 15 8 3 9 15 6 0 0 0 0 0 0 0
1 0 0 0 0 0 0 0 0 0 0 0 0 8 7 0 3 45 23 19 140 133 265 532 1567 1393 1068 309 81 31 8 0 0 0 3 27 42 59 29 18 19 1 0 0 0 0 0 0 0
0 0 0 0 0 0 0 0 0 0 0 0 0 1 4 0 0 21 0 0 200 226 329 1201 1454 1593 1093 379 66 38 18 6 0 0 3 9 50 79 145 45 32 0 0 0 0 0 0 0 0
0 0 0 0 0 0 0 0 0 0 0 0 1 1 0 0 3 17 8 25 256 477 507 961 1655 1465 898 343 137 67 31 14 0 0 0 1 80 133 132 49 10 0 0 0 0 0 0 0 5
0 0 0 0 0 0 0 0 0 0 0 0 0 20 0 0 17 35 20 33 438 544 731 967 1353 1286 1130 808 394 218 85 34 19 0 0 0 24 88 198 149 23 2 0 0 0 0 0 0 0
0 0 0 0 0 0 0 0 0 0 0 0 0 1 1 0 5 30 23 30 539 639 717 850 722 869 894 922 797 584 433 265 76 31 2 34 11 18 75 219 71 19 8 1 10 2 0 0 0
0 0 0 0 0 0 0 0 0 0 0 0 0 0 0 0 1 64 40 31 133 355 368 659 535 515 683 558 702 524 474 386 284 101 54 22 11 7 56 111 99 31 22 15 0 0 0 0 0
0 0 0 0 0 0 0 0 0 0 0 0 0 0 0 0 0 34 43 59 82 207 297 338 483 305 369 272 352 376 307 249 151 77 37 13 0 0 0 0 11 30 0 0 0 2 15 91 27
0 0 0 0 0 0 0 0 0 0 0 0 0 0 0 0 0 0 2 26 100 181 265 321 378 378 323 349 355 211 130 134 88 48 18 13 0 0 0 0 0 0 17 57 32 84 292 129 1
2 0 0 0 0 0 0 0 0 0 0 0 0 0 0 0 0 0 0 0 37 184 249 334 362 430 392 359 340 225 124 110 90 64 50 31 3 0 0 2 7 18 6 9 4 1 10 14 13
9 0 0 0 0 0 0 0 0 0 0 0 0 0 0 0 0 0 0 0 0 127 249 354 387 419 391 353 281 302 195 155 101 95 39 30 37 31 50 70 78 54 108 34 24 8 6 3 6
1 0 0 0 0 0 0 0 0 0 0 0 0 0 0 0 0 0 0 0 0 74 254 332 414 415 446 453 368 273 202 119 76 74 87 94 89 71 202 120 123 99 43 7 5 1 0 0 0
9 11 0 0 0 0 0 0 0 0 0 0 0 0 0 0 0 0 0 0 0 12 203 275 280 436 470 496 413 255 183 116 92 130 196 261 126 131 196 162 100 63 3 2 0 0 0 0 0
9 6 0 0 0 0 0 0 0 0 0 0 0 0 0 0 0 0 0 0 0 0 8 16 123 304 447 480 422 316 226 131 350 173 195 73 194 320 146 66 12 0 0 0 0 0 0 0 0
0 2 0 1 0 0 16 0 0 0 0 0 0 0 0 0 0 0 0 0 0 0 9 18 26 94 362 402 374 284 376 278 199 178 29 134 14 24 0 0 0 0 0 0 0 0 0 0 0
0 0 0 11 0 17 34 0 0 0 0 0 0 0 0 0 0 0 0 0 0 0 0 0 0 13 294 363 233 155 220 59 63 6 24 0 0 0 0 0 0 0 0 0 0 0 0 0 0
0 0 0 0 0 24 28 3 0 0 0 0 0 0 0 0 0 0 0 0 0 0 0 0 0 65 298 277 110 130 146 1 0 0 0 0 0 0 0 0 0 0 0 0 0 0 0 0 0
0 0 0 0 0 22 0 0 0 0 0 0 0 0 0 0 0 0 0 0 0 0 0 0 58 174 251 203 76 26 22 0 0 0 0 0 0 0 0 0 0 0 0 0 0 0 0 0 0
0 0 0 0 0 49 28 1 15 0 0 0 0 0 0 0 0 0 0 0 0 0 0 3 59 131 145 116 55 13 0 0 0 0 0 0 0 0 0 0 0 0 0 0 0 0 0 0 0
0 0 0 0 0 21 65 16 0 0 1 1 0 0 0 0 0 0 0 0 0 0 0 6 15 25 11 3 0 0 0 0 0 0 0 0 0 0 0 0 0 0 0 0 0 0 0 0 0
0 0 1 7 31 18 62 39 0 0 4 6 0 0 0 0 0 0 0 0 0 0 0 3 9 3 0 0 0 0 0 0 0 0 0 0 0 0 0 0 0 0 0 0 0 0 0 0 0
0 0 0 27 47 36 0 19 0 7 20 0 0 0 0 0 0 0 0 0 0 0 0 0 0 0 0 0 0 0 0 0 0 0 0 0 0 0 0 0 0 0 0 0 0 0 0 0 0
1 8 16 51 40 0 0 4 0 0 0 0 0 0 0 0 0 0 0 0 0 0 0 0 0 0 0 0 0 0 0 0 0 0 0 0 0 0 0 0 0 0 0 0 0 0 0 0 0
17 1 0 0 0 0 6 0 0 2 0 0 0 0 0 0 0 0 0 0 0 0 0 0 0 0 0 0 0 0 0 0 0 0 0 0 0 0 0 0 0 0 0 0 0 0 0 0 0
0 0 0 0 0 0 43 0 0 3 9 37 0 0 0 0 0 0 0 0 0 0 0 0 0 0 0 0 0 0 0 0 0 0 0 0 0 0 0 0 0 0 0 0 0 0 0 0 0
0 0 0 2 34 45 1 0 9 21 22 1 0 0 0 0 0 0 0 0 0 0 0 0 0 0 0 0 0 0 0 0 0 0 0 0 0 0 0 0 0 0 0 0 0 0 0 0 0
102 10 27 21 0 0 4 0 0 0 0 8 0 0 0 0 0 0 0 0 0 0 0 0 0 0 0 0 0 0 0 0 0 0 0 0 0 0 0 0 0 0 0 0 0 0 0 0 0
2 50 38 15 1 23 0 1 8 20 0 0 0 0 0 0 0 0 0 0 0 0 0 0 0 0 0 0 0 0 0 0 0 0 0 0 0 0 0 0 0 0 0 0 0 0 0 0 0
35 17 8 1 36 2 0 0 0 0 0 0 0 0 0 0 0 0 0 0 0 0 0 0 0 0 0 0 0 0 0 0 0 0 0 0 0 0 0 0 0 0 0 0 0 0 0 0 0

GFSSGP_con_mucape_012.txt.gz
CAPE
252 0 0 0 0 0 0 0 0 2 0 0 6 3 5 0 0 0 9 39 74 616 994 1105 1510 1393 797 337 43 9 0 0 0 1 4 8 8 21 25 23 7 0 0 0 0 0 0 0 0
384 0 0 0 0 0 0 0 0 0 0 5 10 8 1 0 2 1 34 90 239 639 949 851 1470 1230 709 143 43 6 0 0 0 0 0 3 2 30 13 9 1 0 0 0 0 0 0 0 0
0 0 0 0 0 0 0 0 0 0 0 0 3 1 0 0 9 10 38 136 309 612 762 852 1582 1512 829 247 52 16 0 0 0 0 7 28 30 25 21 3 4 0 0 0 0 0 0 0 0
0 0 0 0 0 0 0 0 0 0 0 0 0 0 0 0 0 20 41 162 212 367 478 952 1697 1570 1212 425 84 41 8 0 0 0 2 18 47 78 53 19 0 0 0 0 0 0 0 0 0
0 0 0 0 0 0 0 0 0 0 0 0 0 0 0 8 25 3 63 192 145 132 333 1128 1658 1671 1005 227 91 55 22 9 0 0 0 3 44 100 118 82 7 0 0 0 0 0 0 0 2
0 0 0 0 0 0 0 0 0 0 0 0 0 0 0 8 34 18 29 217 271 307 593 933 1590 1367 850 460 241 95 28 10 0 0 0 1 9 77 143 52 9 1 0 0 6 3 8 1 0
0 0 0 0 0 0 0 0 0 0 0 0 0 0 0 2 18 12 31 134 457 521 738 958 1085 858 893 764 594 403 155 76 34 6 3 20 22 23 127 198 75 35 8 10 12 21 4 6 6
0 0 0 0 0 0 0 0 0 0 0 0 0 0 0 4 18 25 26 304 548 629 687 857 767 701 652 684 646 543 441 307 208 109 36 54 19 3 46 228 161 55 41 50 24 0 2 23 45
0 0 0 0 0 0 0 0 0 0 0 0 0 0 0 0 18 34 16 306 654 707 626 697 581 518 388 357 385 408 394 320 192 75 28 10 0 0 0 14 25 101 73 22 29 55 115 261 182
0 0 0 0 0 0 0 0 0 0 0 0 0 0 0 0 2 16 34 41 297 442 436 472 438 274 331 340 321 296 172 139 50 28 12 2 0 0 0 0 16 97 103 140 121 198 380 255 33
0 1 0 0 0 0 0 0 0 0 0 0 0 0 0 0 0 0 2 88 135 267 407 364 294 296 295 304 280 203 70 78 42 26 14 22 1 0 0 21 37 70 49 79 78 18 11 10 4
0 0 0 0 0 0 0 0 0 0 0 0 0 0 0 0 0 0 0 0 44 148 332 394 378 338 403 380 361 243 111 80 47 62 45 50 27 37 50 83 148 130 118 70 26 5 2 2 0
0 0 0 0 0 0 0 0 0 0 0 0 0 0 0 0 0 0 0 0 0 19 262 376 438 413 479 427 392 261 194 162 105 97 55 44 82 49 83 110 113 62 68 3 2 1 0 0 0
0 0 0 0 0 0 0 0 0 0 0 0 0 0 0 0 0 0 0 0 0 0 153 326 444 453 495 472 466 311 247 191 97 53 101 171 103 120 258 85 132 67 2 1 0 0 0 0 0
0 0 0 0 0 0 0 0 0 0 0 0 0 0 0 0 0 0 0 0 0 0 84 316 443 474 500 519 512 358 204 168 125 132 186 131 113 203 238 143 58 1 0 0 0 0 0 0 0
0 0 0 0 0 0 1 0 0 0 0 0 0 0 0 0 0 0 0 0 0 11 94 264 347 471 526 567 521 518 424 172 199 194 178 75 47 46 0 0 0 0 0 0 0 0 0 0 0
0 0 0 0 0 0 1 0 0 0 0 0 0 0 0 0 0 0 0 0 0 0 2 39 84 312 498 546 501 577 175 321 158 166 66 20 3 6 2 0 0 0 0 0 0 0 0 0 0
0 0 0 0 5 1 0 0 0 0 0 0 0 0 0 0 0 0 0 0 0 0 0 0 0 260 455 461 424 354 304 219 137 20 1 2 0 0 0 0 0 0 0 0 0 0 0 0 0
0 0 0 0 0 0 0 0 0 0 0 0 0 0 0 0 0 0 0 0 0 0 0 0 0 267 397 451 254 74 150 93 0 1 0 0 0 0 0 0 0 0 0 0 0 0 0 0 0
0 0 0 0 0 0 0 0 0 0 0 0 0 0 0 0 0 0 0 0 0 0 0 0 7 267 345 378 182 49 1 8 2 0 0 0 0 0 0 0 0 0 0 0 0 0 0 0 0
0 0 0 0 0 0 0 0 0 0 0 0 0 0 0 0 0 0 0 0 0 0 0 0 47 206 318 302 131 56 34 2 0 0 0 0 0 0 0 0 0 0 0 0 0 0 0 0 0
0 0 0 0 0 0 31 0 0 0 0 0 0 0 0 0 0 0 0 0 0 0 0 47 112 180 223 198 99 35 0 0 0 0 0 0 0 0 0 0 0 0 0 0 0 0 0 0 0
0 0 0 0 0 0 0 0 0 0 0 0 0 0 0 0 0 0 0 0 0 0 0 9 33 30 16 5 0 0 0 0 0 0 0 0 0 0 0 0 0 0 0 0 0 0 0 0 0
23 0 0 0 0 0 0 0 0 0 0 0 0 0 1 8 0 0 0 0 0 0 4 24 27 13 0 0 0 0 0 0 0 0 0 0 0 0 0 0 0 0 0 0 0 0 0 0 0
0 0 0 0 0 0 0 0 0 0 0 0 0 0 19 17 0 0 0 0 0 0 0 9 1 0 0 0 0 0 0 0 0 0 0 0 0 0 0 0 0 0 0 0 0 0 0 0 0
0 0 0 0 0 0 40 0 0 0 0 0 0 0 9 0 0 0 0 0 0 0 0 0 0 0 0 0 0 0 0 0 0 0 0 0 0 0 0 0 0 0 0 0 0 0 0 0 0
0 0 0 0 13 15 0 0 0 0 1 10 3 0 0 3 0 0 0 0 0 0 0 0 0 0 0 0 0 0 0 0 0 0 0 0 0 0 0 0 0 0 0 0 0 0 0 0 0
13 6 0 0 0 0 11 3 0 0 0 0 1 21 5 0 0 0 0 0 0 0 0 0 0 0 0 0 0 0 0 0 0 0 0 0 0 0 0 0 0 0 0 0 0 0 0 0 0
10 12 7 0 0 0 0 0 0 0 31 4 20 39 6 0 0 0 0 0 0 0 0 0 0 0 0 0 0 0 0 0 0 0 0 0 0 0 0 0 0 0 0 0 0 0 0 0 0
2 0 0 0 0 0 26 0 8 0 1 0 40 36 15 0 0 0 0 0 0 0 0 0 0 0 0 0 0 0 0 0 0 0 0 0 0 0 0 0 0 0 0 0 0 0 0 0 0

GFSSGP_con_mucape_015.txt.gz
CAPE
186 0 0 0 0 0 0 0 0 0 0 0 0 10 15 6 0 0 30 50 78 279 1131 1393 1667 1682 798 251 46 0 0 0 0 0 61 15 11 8 23 17 0 0 0 0 0 0 0 0 0
0 0 0 0 0 0 0 0 0 2 0 0 0 2 13 25 16 10 36 48 314 753 1143 1040 1801 1448 868 230 46 5 0 0 0 0 0 4 10 13 13 2 0 0 0 0 0 0 0 0 0
0 0 0 0 0 0 0 0 0 0 4 0 1 2 3 19 32 13 37 130 589 829 996 834 1658 1283 756 243 62 12 0 0 0 6 5 8 12 17 10 0 0 0 0 0 0 0 0 0 0
0 0 0 0 0 0 0 0 0 0 0 2 0 2 0 0 26 46 54 237 496 710 931 1009 1674 1569 1136 329 90 24 0 0 0 0 9 26 53 49 31 29 13 0 0 0 0 0 0 0 0
0 0 0 0 0 0 0 0 0 0 0 0 0 0 0 14 8 34 200 265 278 579 760 1108 1794 1641 1036 452 115 64 4 0 0 0 0 22 47 71 102 94 9 0 0 0 0 0 0 0 0
0 0 0 0 0 0 0 0 0 0 0 0 0 0 0 8 30 27 233 217 169 322 478 1123 1707 1671 1333 571 268 121 39 12 0 0 0 3 14 82 98 66 13 0 0 0 0 2 2 10 5
0 0 0 0 0 0 0 0 0 0 0 0 0 0 0 16 34 21 201 222 224 211 493 1095 1328 1360 958 650 529 369 94 48 10 0 0 12 18 32 161 120 37 20 14 0 5 15 5 1 15
0 0 0 0 0 0 0 0 0 0 0 0 0 0 0 0 16 34 25 298 356 531 653 931 1197 975 583 480 545 470 290 221 160 34 12 36 13 0 28 230 150 72 42 41 44 19 19 55 103
0 0 0 0 0 0 0 0 0 0 0 0 0 0 0 0 25 48 21 464 607 707 720 804 931 771 574 499 419 526 439 263 190 70 8 2 0 0 0 3 18 73 82 88 59 114 174 306 213
0 0 0 0 0 0 0 0 0 0 0 0 0 0 0 0 8 37 32 285 626 747 752 718 750 602 490 451 398 349 296 209 107 30 0 0 0 0 0 0 3 47 152 127 96 165 166 30 4
0 0 0 0 0 0 0 0 0 0 0 0 0 0 0 0 0 27 33 78 538 663 671 698 651 568 417 339 331 336 226 194 111 16 0 0 0 0 0 8 24 14 27 48 74 16 1 2 0
0 0 0 0 0 0 0 0 0 0 0 0 0 0 0 0 0 0 0 30 69 219 511 533 534 526 340 301 265 282 225 109 69 17 4 10 2 12 15 1 27 62 62 40 5 2 0 3 0
0 0 0 0 0 0 0 0 0 0 0 0 0 0 0 0 0 0 0 0 0 33 143 443 466 407 420 435 421 350 209 128 60 58 38 28 16 14 23 61 80 55 31 4 1 0 0 0 0
0 0 0 0 0 0 0 0 0 0 0 0 0 0 0 0 0 0 0 0 0 0 0 202 478 462 466 555 501 435 308 214 160 111 66 111 110 49 93 149 24 6 2 0 0 0 0 0 0
0 0 0 0 0 0 0 0 0 0 0 0 0 0 0 0 0 0 0 0 0 0 0 43 330 505 538 618 548 481 386 305 148 106 72 99 65 65 106 24 58 1 0 0 0 0 0 0 0
0 0 0 0 0 0 0 0 0 0 0 0 0 0 0 0 0 0 0 0 0 0 0 10 299 529 602 662 572 642 498 252 148 123 86 98 52 64 27 0 0 0 0 0 0 0 0 0 0
0 0 0 0 0 0 0 0 0 0 0 0 0 0 0 0 0 0 0 0 0 0 0 11 306 562 651 691 563 634 531 385 190 179 120 100 34 6 6 1 0 0 0 0 0 0 0 0 0
0 0 0 0 0 1 0 0 0 0 0 0 0 0 0 0 0 0 0 0 0 0 0 72 334 579 684 725 637 459 542 362 219 118 97 13 2 4 0 0 0 0 0 0 0 0 0 0 0
0 0 0 0 0 0 0 0 0 0 0 0 0 0 0 0 0 0 0 0 0 0 0 134 355 437 682 712 659 501 480 337 166 131 4 2 0 0 0 0 0 0 0 0 0 0 0 0 0
0 0 0 0 0 0 0 0 0 0 0 0 0 0 0 0 0 0 0 0 0 0 0 0 5 255 587 627 613 177 258 198 111 10 1 0 0 0 0 0 0 0 0 0 0 0 0 0 0
0 0 0 0 0 0 0 0 0 0 0 0 0 0 0 0 0 0 0 0 0 0 0 0 0 129 492 581 504 242 32 8 23 1 0 0 0 0 0 0 0 0 0 0 0 0 0 0 0
0 0 0 0 0 0 0 0 0 0 0 0 0 0 0 0 0 0 0 0 0 0 0 0 0 96 463 551 215 182 25 2 6 0 0 0 0 0 0 0 0 0 0 0 0 0 0 0 0
0 0 0 0 0 0 0 0 0 0 0 0 0 0 0 0 0 0 0 0 0 0 0 0 1 282 460 454 119 74 61 39 0 0 0 0 0 0 0 0 0 0 0 0 0 0 0 0 0
0 0 0 0 0 0 0 0 0 0 0 0 0 0 0 0 0 0 0 0 2 1 22 32 129 251 355 345 246 186 90 0 0 0 0 0 0 0 0 0 0 0 0 0 0 0 0 0 0
0 0 0 0 0 0 0 0 0 0 0 0 0 0 0 0 0 0 0 9 10 14 101 156 191 224 149 76 7 0 0 0 0 0 0 0 0 0 0 0 0 0 0 0 0 0 0 0 0
0 0 0 0 0 0 0 0 0 0 0 0 0 0 0 0 0 0 1 28 23 35 73 117 126 106 52 0 0 0 0 0 0 0 0 0 0 0 0 0 0 0 0 0 0 0 0 0 0
0 0 0 0 0 0 0 0 0 0 0 0 0 0 0 0 0 0 30 28 17 21 69 123 131 96 2 0 0 0 0 0 0 0 0 0 0 0 0 0 0 0 0 0 0 0 0 0 0
0 0 0 0 0 0 0 2 0 0 0 0 0 0 0 0 0 0 15 1 8 16 33 37 19 0 0 0 0 0 0 0 0 0 0 0 0 0 0 0 0 0 0 0 0 0 0 0 0
1 0 23 0 0 0 0 0 0 0 0 0 0 0 0 10 14 14 23 0 0 0 0 0 0 0 0 0 0 0 0 0 0 0 0 0 0 0 0 0 0 0 0 0 0 0 0 0 0
0 0 0 86 0 0 0 0 0 26 0 0 0 6 55 56 9 0 6 0 0 0 0 0 0 0 0 0 0 0 0 0 0 0 0 0 0 0 0 0 0 0 0 0 0 0 0 0 0

GFSSGP_con_mucape_018.txt.gz
CAPE
10 0 0 0 0 0 0 0 0 0 0 0 2 30 25 10 5 1 21 56 38 58 379 1331 1739 1541 730 160 52 3 0 0 0 31 70 23 15 8 21 17 0 0 0 0 0 0 0 0 0
0 0 0 0 0 0 0 0 0 0 0 0 0 17 23 36 23 16 62 66 138 334 1079 1158 1823 1531 814 245 78 4 0 0 0 13 20 7 14 12 5 0 0 0 0 0 0 0 0 0 0
0 0 0 0 0 0 0 0 0 0 0 0 0 1 10 17 36 29 28 80 485 949 1231 1073 1890 1583 926 391 94 28 0 0 0 0 0 13 13 14 0 0 0 0 0 0 0 0 0 0 0
0 0 0 0 0 0 0 0 0 0 0 0 0 0 0 5 31 31 71 398 653 1018 1146 1272 1834 1651 1229 443 135 52 1 0 0 1 14 33 29 21 10 7 18 0 0 0 0 0 0 0 0
0 0 0 0 0 0 0 0 0 0 0 0 0 0 0 0 2 32 272 490 569 939 1016 1350 1857 1525 922 535 194 74 12 0 0 0 4 30 33 47 49 41 14 0 0 0 0 0 0 0 0
0 0 0 0 0 0 0 0 0 0 0 0 0 0 0 0 18 160 304 384 425 761 881 1188 1714 1727 1337 754 352 128 47 2 0 0 0 14 23 77 103 104 17 0 0 0 0 2 1 3 2
0 0 0 0 0 0 0 0 0 0 0 0 0 0 0 0 27 202 277 296 301 539 774 1124 1530 1505 1318 1013 633 460 138 97 2 0 0 11 14 25 127 69 16 7 2 5 8 12 12 5 33
0 0 0 0 0 0 0 0 0 0 0 0 0 0 0 0 21 21 287 309 293 358 607 1042 1425 1419 1153 610 620 501 353 217 120 26 17 8 4 0 8 202 124 70 46 32 55 44 59 117 151
0 0 0 0 0 0 0 0 0 0 0 0 0 0 0 0 0 38 67 356 450 507 629 970 1291 1260 979 482 446 481 357 228 183 30 0 0 0 0 0 1 6 11 37 80 68 153 187 100 30
0 0 0 0 0 0 0 0 0 0 0 0 0 0 0 0 0 23 32 138 601 645 738 853 1099 1041 890 540 454 386 323 195 117 38 0 0 0 0 0 0 0 2 17 8 23 40 20 4 0
0 0 0 0 0 0 0 0 0 0 0 0 0 0 0 0 0 25 32 78 370 618 796 846 873 898 807 597 522 394 307 270 147 58 0 0 0 0 0 0 4 1 3 11 38 9 0 0 0
0 0 0 0 0 0 0 0 0 0 0 0 0 0 0 0 0 12 31 16 124 407 683 879 827 868 791 560 461 359 287 259 164 64 0 0 0 1 8 0 8 11 3 31 5 0 0 0 0
0 0 0 0 0 0 0 0 0 0 0 0 0 0 0 0 0 0 1 7 9 24 199 662 787 800 703 621 354 320 353 229 131 48 2 4 6 7 29 5 25 21 5 3 0 0 0 0 0
0 0 0 0 0 0 0 0 0 0 0 0 0 0 0 0 0 0 0 0 0 0 0 79 499 692 638 557 405 440 351 232 102 100 83 79 78 116 2 49 15 8 3 2 0 0 0 0 0
0 0 0 0 0 0 0 0 0 0 0 0 0 0 0 0 0 0 0 0 0 0 0 0 173 520 579 479 581 575 452 352 222 185 171 76 58 28 81 49 29 8 0 0 0 0 0 0 0
0 0 0 0 0 0 0 0 0 0 0 0 0 0 0 0 0 0 0 0 0 0 0 0 61 295 596 574 682 664 587 489 343 96 112 62 49 67 45 10 5 4 0 0 0 0 0 0 0
0 0 0 0 0 0 0 0 0 0 0 0 0 0 0 0 0 0 0 0 0 0 0 0 42 164 537 637 715 724 585 470 357 218 107 68 54 27 11 11 0 0 0 0 0 0 0 0 0
0 0 0 0 0 0 0 0 0 0 0 0 0 0 0 0 0 0 0 0 0 0 0 0 81 172 484 667 750 612 508 366 281 195 103 88 33 0 2 0 0 0 0 0 0 0 0 0 0
0 0 0 0 0 0 0 0 0 0 0 0 0 0 0 0 0 0 0 0 0 0 0 0 162 305 599 723 727 440 459 454 333 217 105 70 43 1 0 0 0 0 0 0 0 0 0 0 0
0 0 0 0 0 0 0 0 0 0 0 0 0 0 0 0 0 0 0 0 0 0 0 28 181 407 639 741 778 570 243 305 261 130 106 60 0 0 0 0 0 0 0 0 0 0 0 0 0
0 0 0 0 0 0 0 0 0 0 0 0 0 0 0 0 0 0 0 0 0 0 0 0 163 457 669 758 772 486 221 212 208 156 84 1 0 0 0 0 0 0 0 0 0 0 0 0 0
0 0 0 0 0 0 0 0 0 0 0 0 0 0 0 0 0 0 0 0 0 0 0 0 1 248 543 688 707 398 296 106 6 6 7 0 0 0 0 0 0 0 0 0 0 0 0 0 0
0 0 0 0 0 0 0 0 0 0 0 0 0 0 0 0 0 0 0 0 0 0 0 0 0 0 234 546 631 256 336 48 4 11 3 0 0 0 0 0 0 0 0 0 0 0 0 0 0
0 0 0 0 0 0 0 0 0 0 0 0 0 0 0 0 0 0 0 0 0 0 0 0 0 0 126 441 231 138 210 164 18 21 0 0 0 0 0 0 0 0 0 0 0 0 0 0 0
0 0 0 0 0 0 0 0 0 0 0 0 0 0 0 0 0 0 0 0 0 0 0 0 0 0 211 519 314 297 300 173 74 7 0 0 0 0 0 0 0 0 0 0 0 0 0 0 0
0 0 0 0 0 0 0 0 0 0 0 0 0 0 0 0 0 0 0 0 0 0 32 25 30 307 470 427 397 199 112 110 5 0 0 0 0 0 0 0 0 0 0 0 0 0 0 0 0
8 0 0 0 0 0 0 0 0 0 0 0 0 0 0 0 0 0 0 0 0 10 142 179 247 364 290 285 141 40 1 0 0 0 0 0 0 0 0 0 0 0 0 0 0 0 0 0 0
0 0 0 4 0 0 0 0 0 0 0 0 0 0 0 0 0 0 0 0 2 57 216 301 336 349 253 112 2 0 0 0 0 0 0 0 0 0 0 0 0 0 0 0 0 0 0 0 0
0 0 1 0 1 0 0 0 0 12 5 0 0 0 0 0 0 0 0 0 6 102 207 296 284 246 169 14 0 0 0 0 0 0 0 0 0 0 0 0 0 0 0 0 0 0 0 0 0
0 0 0 4 1 0 0 0 39 70 0 0 0 0 0 0 0 0 0 2 23 89 203 270 276 179 70 0 0 0 0 0 0 0 0 0 0 0 0 0 0 0 0 0 0 0 0 0 0

GFSSGP_con_mucape_021.txt.gz
CAPE
0 0 0 0 0 0 0 0 0 0 0 0 0 9 14 17 32 18 6 55 35 243 692 1180 1738 1439 768 161 62 6 0 0 0 37 62 34 25 6 17 16 0 0 0 0 0 0 3 5 1
0 0 0 0 0 0 0 0 0 0 0 0 0 8 22 10 14 24 78 71 94 482 835 940 1820 1568 889 262 86 5 0 0 0 56 40 26 14 2 0 0 0 0 0 0 0 0 0 0 0
0 0 0 0 0 0 0 0 0 0 0 0 0 0 17 8 7 8 33 88 291 592 1195 1098 1987 1659 1034 428 120 28 0 0 0 16 20 0 4 1 0 0 0 0 0 0 0 0 0 0 0
0 0 0 0 0 0 0 0 0 0 0 0 0 2 6 9 21 23 70 522 677 978 1362 1452 1967 1741 1303 768 171 69 1 0 0 0 0 18 8 1 0 2 7 0 0 0 0 0 0 0 0
0 0 0 0 0 0 0 0 0 0 0 0 0 0 2 0 4 39 334 713 791 1104 1226 1452 1984 1784 1351 678 286 106 35 0 0 0 11 23 36 38 50 67 17 0 0 0 0 1 4 3 1
0 0 0 0 0 0 0 0 0 0 0 0 0 0 0 0 19 290 589 795 860 1142 1156 1518 1723 1665 1375 935 480 175 69 15 0 0 3 20 33 87 61 43 16 0 0 0 0 3 2 1 2
0 0 0 0 0 0 0 0 0 0 0 0 0 0 0 0 35 397 508 587 843 1021 1080 1493 1547 1449 1272 1040 696 482 146 80 14 5 0 8 14 30 128 75 27 8 0 0 10 34 30 32 78
0 0 0 0 0 0 0 0 0 0 0 0 0 0 0 0 51 310 379 379 502 819 1074 1310 1603 1603 1310 892 684 569 405 256 88 33 7 2 0 0 21 111 78 59 46 44 72 92 140 139 76
0 0 0 0 0 0 0 0 0 0 0 0 0 0 0 0 48 207 423 514 453 561 886 1228 1513 1595 1293 924 585 503 367 213 110 20 0 0 0 0 0 1 0 0 27 78 54 66 2 2 1
0 0 0 0 0 0 0 0 0 0 0 0 0 0 0 0 0 63 246 604 727 712 742 1095 1366 1504 1239 773 651 516 350 216 159 58 10 0 0 0 0 0 0 0 0 1 4 12 3 0 0
0 0 0 0 0 0 0 0 0 0 0 0 0 0 0 0 0 3 49 99 585 762 865 861 1132 1259 1239 973 674 559 465 323 158 67 8 0 0 0 0 0 0 0 2 7 10 2 0 0 0
0 0 0 0 0 0 0 0 0 0 0 0 0 0 0 0 0 0 55 83 133 540 840 995 981 1092 991 955 706 563 438 370 240 102 12 0 0 0 0 1 0 2 2 4 1 0 0 0 0
0 0 0 0 0 0 0 0 0 0 0 0 0 0 0 0 0 0 0 34 56 136 557 939 1015 997 881 861 676 543 409 313 236 102 24 0 0 1 16 5 5 4 3 1 0 0 0 0 0
0 0 0 0 0 0 0 0 0 0 0 0 0 0 0 0 0 0 0 0 0 9 15 405 889 966 911 876 737 503 401 297 174 109 45 18 22 4 3 3 5 7 4 2 0 0 0 0 0
0 0 0 0 0 0 0 0 0 0 0 0 0 0 0 0 0 0 0 0 0 0 0 0 384 800 926 823 737 345 404 312 133 112 68 88 11 36 2 8 6 4 1 0 0 0 0 0 0
0 0 0 0 0 0 0 0 0 0 0 0 0 0 0 0 0 0 0 0 0 0 0 0 2 481 666 805 680 534 541 334 290 184 170 41 30 42 17 7 5 4 0 0 0 0 0 0 0
0 0 0 0 0 0 0 0 0 0 0 0 0 0 0 0 0 0 0 0 0 0 0 0 13 319 432 722 594 645 625 517 334 247 145 103 56 22 16 5 2 0 0 0 0 0 0 0 0
0 0 0 0 0 0 0 0 0 0 0 0 0 0 0 0 0 0 0 0 0 0 0 0 21 249 299 599 647 663 821 708 487 249 181 80 82 54 4 0 0 0 0 0 0 0 0 0 0
0 0 0 0 0 0 0 0 0 0 0 0 0 0 0 0 0 0 0 0 0 0 0 0 103 168 212 609 714 674 852 679 439 234 163 130 78 34 0 0 0 0 0 0 0 0 0 0 0
0 0 0 0 0 0 0 0 0 0 0 0 0 0 0 0 0 0 0 0 0 0 0 0 79 138 231 612 744 704 690 391 234 220 242 213 42 39 0 0 0 0 0 0 0 0 0 0 0
0 0 0 0 0 0 0 0 0 0 0 0 0 0 0 0 0 0 0 0 0 0 0 0 121 183 293 603 782 730 489 253 258 238 234 106 58 0 0 0 0 0 0 0 0 0 0 0 0
0 0 0 0 0 0 0 0 0 0 0 0 0 0 0 0 0 0 0 0 0 0 0 0 98 281 429 685 866 757 463 230 135 264 155 66 6 0 0 0 0 0 0 0 0 0 0 0 0
0 0 0 0 0 0 0 0 0 0 0 0 0 0 0 0 0 0 0 0 0 0 0 0 16 294 544 745 928 711 394 228 116 167 10 25 0 0 0 0 0 0 0 0 0 0 0 0 0
0 0 0 0 0 0 0 0 0 0 0 0 0 0 0 0 0 0 0 0 0 0 0 0 0 125 552 819 989 687 428 100 70 11 0 0 0 0 0 0 0 0 0 0 0 0 0 0 0
0 0 0 0 0 0 0 0 0 0 0 0 0 0 0 0 0 0 0 0 0 0 0 0 0 0 215 672 911 808 567 289 190 3 1 3 0 0 0 0 0 0 0 0 0 0 0 0 0
0 0 0 0 0 0 0 0 0 0 0 0 0 0 0 0 0 0 0 0 0 0 0 0 0 0 0 283 489 811 278 25 177 3 37 0 0 0 0 0 0 0 0 0 0 0 0 0 0
0 0 0 0 0 0 0 0 0 0 0 0 0 0 0 0 0 0 0 0 0 0 0 0 0 0 0 204 604 465 473 47 85 57 9 0 0 0 0 0 0 0 0 0 0 0 0 0 0
0 0 0 0 0 0 0 0 0 0 0 0 0 0 0 0 0 0 0 0 0 0 0 0 1 0 53 341 351 413 331 57 71 36 0 0 0 0 0 0 0 0 0 0 0 0 0 0 0
0 0 0 0 0 0 0 0 0 0 0 1 4 0 0 0 0 0 0 0 0 0 0 11 8 233 182 556 462 398 84 46 2 0 0 0 0 0 0 0 0 0 0 0 0 0 0 0 0
0 0 0 0 0 0 0 0 5 68 124 9 0 0 4 0 0 0 0 0 0 0 8 113 247 299 421 423 409 110 1 0 0 0 0 0 0 0 0 0 0 0 0 0 0 0 0 0 0

GFSSGP_con_mucape_024.txt.gz
CAPE
0 0 0 0 0 0 0 0 0 0 0 0 0 0 0 0 50 56 75 242 185 487 1066 1267 1855 1545 913 227 56 25 1 0 0 12 48 37 4 2 35 10 0 0 0 0 0 0 1 1 6
0 0 0 0 0 0 0 0 0 0 0 0 0 0 0 5 14 106 122 199 261 641 1184 1062 1769 1490 744 283 78 17 7 0 4 68 24 14 4 0 0 0 0 0 0 0 0 0 0 0 0
0 0 0 0 0 0 0 0 0 0 0 0 0 0 0 15 53 121 185 294 438 841 1191 1127 1811 1438 755 414 101 25 0 0 22 82 3 0 0 0 0 0 0 0 0 0 0 0 0 0 0
0 0 0 0 0 0 0 0 0 0 0 0 0 0 0 16 72 100 179 464 547 822 1134 1586 1853 1617 1204 637 130 46 0 0 14 7 0 0 0 0 0 0 0 0 0 0 0 0 0 0 0
0 0 0 0 0 0 0 0 0 0 0 0 0 0 0 20 35 118 521 638 608 894 1083 1357 2068 1752 1354 643 229 80 11 0 0 0 1 10 16 26 23 55 13 0 0 0 0 2 0 0 0
0 0 0 0 0 0 0 0 0 0 0 0 0 0 0 0 218 439 741 819 771 975 1102 1149 1707 1655 1402 854 506 157 52 3 6 0 7 19 28 95 47 33 16 0 0 0 0 0 7 0 4
0 0 0 0 0 0 0 0 0 0 0 0 0 0 0 8 421 773 867 884 928 921 1096 1024 1692 1427 1256 1097 749 440 141 84 56 53 13 34 1 122 130 73 8 0 0 0 10 36 47 84 133
0 0 0 0 0 0 0 0 0 0 0 0 0 0 0 0 504 820 850 913 960 1026 1098 1016 1447 1360 1157 961 747 575 407 207 101 53 44 37 0 0 131 107 75 48 32 39 52 112 115 19 0
0 0 0 0 0 0 0 0 0 0 0 0 0 0 0 0 311 771 864 921 993 994 1160 1146 1100 1222 1262 830 587 533 453 208 83 28 19 4 4 0 0 0 0 0 30 8 23 0 0 0 0
0 0 0 0 0 0 0 0 0 0 0 0 0 0 0 0 104 668 840 899 1031 1037 1076 1336 1278 1268 1293 970 761 475 294 162 48 6 0 0 0 0 0 0 0 0 0 0 0 5 0 0 0
0 0 0 0 0 0 0 0 0 0 0 0 0 0 0 0 0 61 392 605 921 1012 1167 1309 1461 1482 1390 1040 927 610 419 293 221 94 32 0 0 0 0 3 9 54 0 0 3 1 0 0 0
0 0 0 0 0 0 0 0 0 0 0 0 0 0 0 0 0 0 70 278 469 914 1247 1250 1413 1665 1631 1249 1083 758 476 447 313 198 32 0 1 0 6 45 3 0 0 1 1 0 0 0 0
0 0 0 0 0 0 0 0 0 0 0 0 0 0 0 0 0 0 0 56 352 562 927 1349 1426 1668 1714 1447 1185 911 546 613 463 279 66 60 40 37 12 2 0 5 2 1 1 0 0 0 0
0 0 0 0 0 0 0 0 0 0 0 0 0 0 0 0 0 0 0 0 1 183 430 950 1484 1626 1661 1594 1349 1075 672 664 579 260 145 117 75 9 1 0 5 2 4 2 1 0 0 0 0
0 0 0 0 0 0 0 0 0 0 0 0 0 0 0 0 0 0 0 0 0 0 2 184 850 1430 1633 1631 1532 1211 786 783 599 291 230 204 23 1 1 2 4 3 2 1 0 0 0 0 0
0 0 0 0 0 0 0 0 0 0 0 0 0 0 0 0 0 0 0 0 0 0 0 0 0 461 1244 1477 1576 1300 832 907 597 424 284 71 38 11 5 6 1 5 1 0 0 0 0 0 0
0 0 0 0 0 0 0 0 0 0 0 0 0 0 0 0 0 0 0 0 0 0 0 0 0 0 387 1040 1392 1292 855 1023 517 200 138 121 28 24 20 2 0 0 0 0 0 0 0 0 0
0 0 0 0 0 0 0 0 0 0 0 0 0 0 0 0 0 0 0 0 0 0 0 0 0 17 365 882 1199 1157 979 664 374 206 180 111 22 57 23 6 1 0 0 0 0 0 0 0 0
0 0 0 0 0 0 0 0 0 0 0 0 0 0 0 0 0 0 0 0 0 0 0 0 0 132 550 901 1005 626 582 730 553 336 189 149 56 113 18 5 0 0 0 0 0 0 0 0 0
0 0 0 0 0 0 0 0 0 0 0 0 0 0 0 0 0 0 0 0 0 0 0 0 25 335 642 680 422 367 558 670 663 579 306 162 117 141 106 8 0 0 0 0 0 0 0 0 0
0 0 0 0 0 0 0 0 0 0 0 0 0 0 0 0 0 0 0 0 0 0 0 0 196 500 545 314 324 360 531 543 710 561 285 194 156 84 6 0 0 0 0 0 0 0 0 0 0
0 0 0 0 0 0 0 0 0 0 0 0 0 0 0 0 0 0 0 0 0 0 0 0 342 306 314 165 59 470 610 599 574 393 274 218 197 178 43 0 0 0 0 0 0 0 0 0 0
0 0 0 0 0 0 0 0 0 0 0 0 0 0 0 0 0 0 0 0 0 0 0 0 170 124 4 58 161 578 741 730 432 320 258 136 168 35 5 0 0 0 0 0 0 0 0 0 0
0 0 0 0 0 0 0 0 0 0 0 0 0 0 0 0 0 0 0 0 0 0 0 0 10 0 35 182 383 738 783 730 375 304 201 208 150 19 0 0 0 0 0 0 0 0 0 0 0
0 0 0 0 0 0 0 0 0 0 0 0 0 0 0 0 0 0 0 0 0 0 0 0 0 0 18 249 574 868 953 613 424 250 197 150 0 0 0 0 0 0 0 0 0 0 0 0 0
0 0 0 0 0 0 0 0 0 0 0 0 0 0 0 0 0 0 0 0 0 0 0 0 0 0 0 263 708 857 882 625 418 303 55 5 0 0 0 0 0 0 0 0 0 0 0 0 0
0 0 0 0 0 0 0 0 0 0 0 0 0 0 0 0 0 0 0 0 0 0 0 0 0 0 0 69 343 348 691 438 338 197 31 0 7 0 0 0 0 0 0 0 0 0 0 0 0
0 0 0 0 0 0 0 0 0 0 0 0 0 14 0 0 0 0 0 0 0 0 0 0 0 0 0 0 175 418 468 113 292 78 359 7 38 0 0 0 0 0 0 0 0 0 0 0 0
0 0 0 0 0 0 0 0 0 0 0 0 0 9 31 1 0 0 0 0 0 0 0 0 0 0 0 0 159 344 252 458 304 66 42 16 1 0 0 0 0 0 0 0 0 0 0 0 0
0 0 0 0 0 0 1 0 0 0 24 50 0 1 9 1 0 0 0 0 0 0 0 0 0 4 17 8 159 404 400 395 70 243 8 50 0 0 0 0 0 0 0 0 0 0 0 0 0

GFSSGP_con_mucape_027.txt.gz
CAPE
10 0 0 0 0 0 0 0 0 0 0 0 0 0 0 3 45 77 106 255 193 804 1512 1213 1676 1331 680 142 28 0 0 0 0 21 64 8 0 10 23 2 0 0 0 0 0 1 6 4 3
0 0 0 0 0 0 0 0 0 0 0 0 0 0 0 3 8 201 218 241 260 984 1132 1150 1790 1418 784 217 61 29 0 0 1 49 19 0 0 0 0 0 0 0 0 0 0 0 0 0 0
0 0 0 0 0 0 0 0 0 0 0 0 0 0 0 19 20 198 370 285 369 882 1028 1231 1814 1276 794 308 84 31 2 2 76 31 0 0 0 0 0 0 0 0 0 0 0 0 0 0 0
0 0 0 0 0 0 0 0 0 0 0 0 0 0 0 0 92 218 360 330 484 922 1138 1427 1533 1333 1071 365 93 30 0 1 169 11 0 0 0 0 0 0 0 0 0 0 0 0 0 0 0
0 0 0 0 0 0 0 0 0 0 0 0 0 0 4 23 94 351 449 374 616 856 1445 1419 1764 1472 1140 520 147 42 0 15 29 0 0 0 0 2 3 10 5 0 0 0 0 1 0 0 0
0 0 0 0 0 0 0 0 0 0 0 0 0 0 4 98 194 550 594 452 542 880 1125 1374 1555 1470 1252 718 337 80 17 6 1 3 0 20 0 46 23 28 14 0 0 0 0 7 10 1 21
0 0 0 0 0 0 0 0 0 0 0 0 0 0 13 42 542 663 677 620 577 857 937 1318 1453 1264 1153 1013 725 397 127 97 64 38 8 38 14 188 87 37 8 0 0 3 21 44 54 96 47
0 0 0 0 0 0 0 0 0 0 0 0 0 0 8 0 639 724 677 755 629 879 847 1112 1425 1507 1059 780 736 535 375 183 141 144 129 15 0 159 178 127 41 25 24 51 72 84 34 0 0
0 3 0 0 0 0 0 0 0 0 0 0 0 0 0 0 574 723 750 859 846 854 902 864 1435 1369 1124 801 563 503 378 161 91 51 51 6 2 0 23 5 14 7 23 8 0 0 0 0 0
2 0 0 0 0 0 0 0 0 0 0 0 0 0 0 0 203 666 784 825 913 924 969 1018 1053 1206 1126 1062 664 423 217 66 0 0 11 4 5 2 2 0 0 3 0 0 0 0 0 0 0
0 0 0 0 0 0 0 0 0 0 0 0 0 0 0 0 22 244 631 672 822 950 1048 1218 1200 1112 1202 1081 854 518 438 181 37 0 0 0 0 0 0 0 0 0 0 0 0 0 0 0 0
0 0 0 0 0 0 0 0 0 0 0 0 0 0 0 0 0 0 65 340 546 786 1021 1174 1375 1404 1357 1375 917 646 430 343 236 90 2 0 0 0 0 5 51 1 0 0 0 0 0 0 0
0 0 0 0 0 0 0 0 0 0 0 0 0 0 0 0 0 0 5 36 225 500 900 1144 1314 1614 1628 1485 1120 846 515 437 390 236 30 0 1 4 15 25 0 0 0 0 0 0 0 0 0
4 1 0 0 0 0 0 0 0 0 0 0 0 0 0 0 0 0 0 0 19 327 510 957 1237 1623 1631 1641 1329 1024 736 545 556 392 83 18 40 79 20 0 0 0 0 0 0 0 0 0 0
1 1 0 0 0 0 0 0 0 0 0 0 0 0 0 0 0 0 0 0 0 1 154 399 1056 1325 1572 1591 1572 1242 996 680 642 488 142 92 141 48 0 0 0 3 1 0 0 0 0 0 0
0 1 0 0 0 0 0 0 0 0 0 0 0 0 0 0 0 0 0 0 0 0 0 0 348 1040 1485 1531 1589 1375 1172 882 776 574 304 237 125 7 0 0 1 3 2 0 0 0 0 0 0
0 0 0 0 0 0 0 0 0 0 0 0 0 0 0 0 0 0 0 0 0 0 0 0 0 120 717 1209 1369 1367 1234 870 1134 763 471 341 31 1 0 3 6 1 0 0 0 0 0 0 0
0 0 0 0 0 0 0 0 0 0 0 0 0 0 0 0 0 0 0 0 0 0 0 0 0 0 27 679 1210 1413 1248 918 895 832 561 161 44 9 2 12 2 0 0 0 0 0 0 0 0
0 0 0 0 0 0 0 0 0 0 0 0 0 0 0 0 0 0 0 0 0 0 0 0 0 4 10 439 1054 1469 1148 995 987 592 364 196 68 47 43 38 2 0 0 0 0 0 0 0 0
0 0 0 0 0 0 0 0 0 0 0 0 0 0 0 0 0 0 0 0 0 0 0 0 0 2 86 670 1240 1472 1026 870 886 487 421 289 133 65 101 49 8 0 0 0 0 0 0 0 0
0 0 0 0 0 0 0 0 0 0 0 0 0 0 0 0 0 0 0 0 0 0 0 0 0 33 358 756 1261 981 831 846 511 518 532 401 231 157 144 43 4 0 0 0 0 0 0 0 0
0 0 0 0 0 0 0 0 0 0 0 0 0 0 0 0 0 0 0 0 0 0 0 0 2 80 606 999 766 421 342 167 236 451 607 497 351 198 94 35 5 0 0 0 0 0 0 0 0
0 0 0 0 0 0 0 0 0 0 0 0 0 0 0 0 0 0 0 0 0 0 0 0 2 172 711 726 760 248 33 6 237 629 580 501 383 241 104 65 4 0 0 0 0 0 0 0 0
0 0 0 0 0 0 0 0 0 0 0 0 0 0 0 0 0 0 0 0 0 0 0 0 0 369 560 618 232 39 0 0 342 531 593 425 337 212 42 4 5 0 0 0 0 0 0 0 0
0 0 0 0 0 0 0 0 0 0 0 0 0 0 0 0 0 0 0 0 0 0 0 0 0 297 349 368 0 0 12 19 316 570 597 440 313 168 125 30 1 0 0 0 0 0 0 0 0
0 0 0 0 0 0 0 0 0 0 0 0 0 0 0 0 0 0 0 0 0 0 0 0 6 143 21 8 13 19 6 56 453 759 563 336 323 166 2 2 0 0 0 0 0 0 0 0 0
0 0 0 0 0 0 0 0 0 0 0 0 0 0 0 0 0 0 0 0 0 0 0 0 0 26 0 6 1 2 33 323 723 810 595 333 308 111 2 1 0 0 0 0 0 0 0 0 0
0 0 0 0 0 0 0 0 0 0 1 1 0 0 0 8 0 0 0 0 0 0 0 0 0 0 0 1 1 0 312 593 934 676 404 166 31 9 2 0 0 0 0 0 0 0 0 0 0
0 0 0 0 0 0 0 0 0 0 0 0 0 23 23 18 2 0 0 0 0 0 0 0 0 0 0 0 0 168 511 664 541 415 159 182 5 13 6 0 0 0 0 0 0 0 0 0 0
0 0 0 0 0 0 0 0 0 0 0 0 0 43 51 4 0 0 0 7 1 2 4 5 3 0 0 0 6 144 273 410 467 210 233 231 1 2 70 0 0 0 0 0 0 0 0 0 0

GFSSGP_con_mucape_030.txt.gz
CAPE
39 0 0 0 0 0 0 0 0 0 0 0 0 0 0 0 29 93 168 108 1046 1011 1134 1124 1365 1033 576 88 24 0 0 0 0 92 82 37 18 9 0 0 0 0 0 0 1 6 6 1 2
0 0 0 0 0 0 0 0 0 0 0 0 0 0 0 0 131 51 251 140 931 1210 985 954 1468 1171 521 89 44 0 0 0 14 23 0 0 0 0 0 0 0 0 0 0 0 0 0 0 0
0 0 0 0 0 0 0 0 0 0 0 0 0 0 0 28 43 169 301 204 1097 1370 881 1235 1564 1192 566 137 66 5 0 13 59 55 0 0 0 0 0 0 0 0 0 0 0 0 0 0 0
0 0 0 0 0 0 0 0 0 0 0 0 0 0 0 0 25 330 190 297 821 913 1119 1445 1543 1220 878 368 59 16 0 63 52 63 1 0 0 0 1 0 0 0 0 0 0 0 0 0 0
0 0 0 0 0 0 0 0 0 0 0 0 0 0 11 30 177 296 209 346 748 1112 1103 1246 1447 1287 934 260 82 17 0 198 1 0 0 0 0 0 1 9 0 0 0 0 2 2 0 0 0
0 0 0 0 0 0 0 0 0 0 0 0 0 0 57 40 273 345 266 414 801 1404 1172 991 1291 1323 1025 545 240 95 37 92 81 36 7 17 2 7 16 11 0 0 0 0 0 5 0 6 34
0 0 0 0 0 0 0 0 0 0 0 0 0 0 46 152 456 490 346 333 661 1296 1315 1025 981 1034 929 724 488 270 124 99 100 99 70 12 97 125 105 22 0 0 1 0 11 35 32 45 2
0 0 0 0 0 0 0 0 0 0 0 0 0 0 40 317 519 586 476 461 560 829 1162 1004 1012 871 725 601 603 439 255 242 229 129 134 0 110 223 245 103 46 6 15 29 55 39 0 0 0
0 0 0 0 0 0 0 0 0 0 0 0 0 0 0 339 559 552 556 576 501 753 827 1233 1197 1085 796 582 461 473 358 136 124 84 26 0 7 46 34 18 43 43 12 17 0 0 0 0 0
0 0 0 0 0 0 0 0 0 0 0 0 0 0 0 3 447 576 605 652 598 756 721 1103 1378 1249 978 629 353 250 131 37 10 1 0 0 0 25 18 0 11 33 3 0 0 0 0 0 0
0 0 0 0 0 0 0 0 0 0 0 0 0 0 0 0 19 451 551 631 704 709 733 693 1242 1205 873 848 383 264 125 20 0 0 0 0 0 0 0 0 0 0 0 0 0 0 0 0 0
0 0 0 0 0 0 0 0 0 0 0 0 0 0 0 0 0 4 264 458 641 807 817 926 866 1020 1030 759 751 408 292 117 3 0 0 0 0 0 0 0 1 0 0 0 0 0 0 0 0
0 0 0 0 0 0 0 0 0 0 0 0 0 0 0 0 0 0 0 14 260 663 832 1038 1085 1101 1063 894 1064 570 462 311 170 162 1 0 0 0 0 2 2 0 0 0 0 0 0 0 0
0 0 0 0 0 0 0 0 0 0 0 0 0 0 0 0 0 0 0 0 0 107 770 980 1109 1341 1295 1183 879 811 559 377 362 290 89 0 0 0 2 10 0 0 0 0 0 0 0 0 0
5 0 0 0 0 0 0 0 0 0 0 0 0 0 0 0 0 0 0 0 0 0 269 845 1031 1407 1381 1479 1263 1006 747 564 483 410 306 9 9 26 23 44 0 0 0 0 0 0 0 0 0
0 0 0 0 0 0 0 0 0 0 0 0 0 0 0 0 0 0 0 0 0 0 0 328 934 1212 1419 1411 1385 1200 987 733 589 515 544 112 129 104 79 0 0 0 2 1 0 0 0 0 0
4 0 0 0 0 0 0 0 0 0 0 0 0 0 0 0 0 0 0 0 0 0 0 0 509 1069 1268 1409 1396 1308 1164 847 692 550 464 218 217 145 0 0 0 0 0 0 0 0 0 0 0
0 0 0 0 0 0 0 0 0 0 0 0 0 0 0 0 0 0 0 0 0 0 0 0 1 766 1194 1330 1381 1326 1257 1007 736 625 476 353 325 111 11 0 0 2 0 0 0 0 0 0 0
4 0 0 0 0 0 0 0 0 0 0 0 0 0 0 0 0 0 0 0 0 0 0 0 0 0 35 572 1212 1295 1189 980 821 725 535 430 396 148 47 2 0 0 0 0 0 0 0 0 0
0 0 0 0 0 0 0 0 0 0 0 0 0 0 0 0 0 0 0 0 0 0 0 0 0 0 0 1 538 1048 1153 1011 881 845 631 582 458 225 94 52 44 0 0 0 0 0 0 0 0
0 0 0 0 0 0 0 0 0 0 0 0 0 0 0 0 0 0 0 0 0 0 0 0 0 0 0 0 285 926 1200 1012 968 896 791 728 523 296 146 113 126 10 0 0 0 0 0 0 0
0 0 0 0 0 0 0 0 0 0 0 0 0 0 0 0 0 0 0 0 0 0 0 0 0 0 0 10 551 988 1208 1083 983 848 672 688 464 389 253 177 158 40 0 1 0 0 0 0 0
0 0 0 0 0 0 0 0 0 0 0 0 0 0 0 0 0 0 0 0 0 0 0 0 0 0 0 49 724 1122 1116 885 758 747 528 500 445 471 338 293 180 70 23 8 0 0 0 0 0
0 0 0 0 0 0 0 0 0 0 0 0 0 0 0 0 0 0 0 0 0 0 0 0 0 0 38 366 933 1096 1026 691 681 587 414 389 442 485 349 471 87 163 49 19 0 0 0 0 0
0 0 0 0 0 0 0 0 0 0 0 0 0 0 0 0 0 0 0 0 0 0 0 0 0 0 158 626 794 855 943 596 300 284 120 135 457 448 306 281 72 21 3 0 0 0 0 0 0
0 0 0 0 0 0 0 0 0 0 0 0 0 0 0 0 0 0 0 0 0 0 0 0 0 0 337 610 645 526 337 53 0 0 18 205 396 422 225 156 134 83 0 0 0 0 0 0 0
0 0 0 0 0 0 0 0 0 0 0 0 0 0 0 0 0 0 0 0 0 0 0 0 0 0 278 425 498 432 155 0 0 0 96 217 466 359 220 171 49 0 1 0 0 0 0 0 0
0 0 0 0 0 0 0 0 0 0 0 0 0 0 0 0 0 0 0 0 0 0 0 0 0 0 203 355 360 104 0 0 0 10 114 326 496 374 237 102 37 2 0 0 0 0 0 0 0
0 0 0 0 0 0 0 0 0 0 0 0 0 0 0 1 16 34 0 0 7 5 0 0 0 70 125 197 30 0 0 2 11 76 414 491 415 173 177 112 2 4 0 0 0 0 0 0 0
0 0 0 0 0 0 0 0 0 0 0 0 0 0 0 18 37 17 6 12 21 138 54 14 25 62 99 25 7 0 0 19 69 170 644 443 324 51 118 0 0 6 0 0 0 0 0 0 0

GFSSGP_con_mucape_033.txt.gz
CAPE
7 0 0 0 0 0 0 0 0 0 0 0 0 0 0 0 2 12 46 495 670 1087 1061 953 1179 965 496 78 35 7 0 19 65 53 43 35 8 0 0 0 0 13 10 3 12 25 13 5 0
0 0 0 0 0 0 0 0 0 0 0 0 0 0 0 71 32 90 764 823 803 1050 931 823 1209 1012 316 51 36 6 0 0 186 75 15 10 5 1 0 0 0 0 3 0 0 0 0 0 0
0 0 0 0 0 0 0 0 0 0 0 0 0 0 0 39 10 138 345 971 993 921 862 945 1252 867 352 100 43 0 0 120 111 18 1 6 2 3 0 0 0 0 0 0 0 0 0 0 0
0 0 0 0 0 0 0 0 0 0 0 0 0 0 0 1 145 178 544 1158 1034 814 919 1200 1206 952 648 434 119 67 86 135 46 10 0 10 4 5 1 0 0 0 0 2 0 0 0 0 0
0 0 0 0 0 0 0 0 0 0 0 0 0 0 0 161 291 156 565 1363 1301 870 988 1109 1346 1107 788 479 327 123 257 288 61 12 0 0 0 3 3 0 0 0 0 2 3 3 0 0 0
0 0 0 0 0 0 0 0 0 0 0 0 0 0 47 175 177 197 388 1058 992 1019 969 1019 1221 1069 782 460 300 150 377 293 80 54 7 1 0 5 12 0 0 0 0 0 2 1 0 4 16
0 0 0 0 0 0 0 0 0 0 0 0 0 0 72 176 265 191 280 1026 1098 1153 1040 949 858 735 657 498 321 246 546 387 152 213 82 29 70 169 52 0 0 0 0 1 0 0 35 2 0
0 0 0 0 0 0 0 0 0 0 0 0 0 0 213 334 417 253 373 1284 1282 1205 1096 902 818 652 486 348 374 286 292 357 359 367 63 26 160 308 272 85 13 0 7 24 43 44 0 0 0
0 0 0 0 0 0 0 0 0 0 0 0 0 1 239 364 575 392 270 937 1370 1259 902 797 828 681 456 328 206 268 281 253 192 148 3 62 104 77 41 13 62 103 36 26 1 4 0 0 0
0 0 0 0 0 0 0 0 0 0 0 0 0 0 368 399 526 464 475 414 928 1191 1044 869 846 728 611 461 283 145 65 59 52 33 0 0 69 37 20 23 31 124 81 0 0 0 0 0 0
0 0 0 0 0 0 0 0 0 0 0 0 0 0 0 307 458 542 573 494 623 706 1177 1093 983 901 812 550 266 183 113 13 10 13 3 0 0 35 25 0 3 0 0 0 0 0 0 0 0
0 0 0 0 0 0 0 0 0 0 0 0 0 0 0 0 195 460 517 573 537 712 643 1306 1179 1097 959 711 363 227 137 29 0 0 0 0 0 35 45 0 0 0 0 0 0 0 0 0 0
0 0 0 0 0 0 0 0 0 0 0 0 0 0 0 0 0 0 202 401 596 631 677 662 1305 1313 1067 885 745 438 269 147 2 0 0 0 0 0 0 0 0 0 0 0 0 0 0 0 0
0 0 0 0 0 0 0 0 0 0 0 0 0 0 0 0 0 0 0 0 51 570 729 794 709 1231 1198 1018 902 607 455 411 300 175 109 0 0 0 0 1 10 0 0 0 0 0 0 0 0
0 0 0 0 0 0 0 0 0 0 0 0 0 0 0 0 0 0 0 0 0 0 735 882 972 1035 1143 1056 1050 710 593 600 449 326 278 164 0 0 0 22 0 0 0 0 0 0 0 0 0
0 0 0 0 0 0 0 0 0 0 0 0 0 0 0 0 0 0 0 0 0 0 0 861 1099 1171 1250 1316 1285 980 629 741 453 413 337 267 19 2 1 25 19 0 0 0 0 0 0 0 0
1 0 0 0 0 0 0 0 0 0 0 0 0 0 0 0 0 0 0 0 0 0 0 502 1009 1283 1469 1533 1555 1288 855 832 584 533 467 386 258 50 49 69 49 0 0 0 0 0 0 0 0
0 0 0 0 0 0 0 0 0 0 0 0 0 0 0 0 0 0 0 0 0 0 0 0 835 1138 1499 1528 1674 1583 1083 1087 868 577 547 516 356 151 114 154 16 0 0 0 0 0 0 0 0
3 0 0 0 0 0 0 0 0 0 0 0 0 0 0 0 0 0 0 0 0 0 0 0 0 952 1347 1387 1319 1476 1324 1191 787 988 590 572 452 247 229 108 29 12 7 0 0 0 0 0 0
0 0 0 0 0 0 0 0 0 0 0 0 0 0 0 0 0 0 0 0 0 0 0 0 0 378 1126 1239 1373 1331 1269 1267 1096 819 645 548 473 370 291 115 47 20 10 1 0 0 0 0 0
0 0 0 0 0 0 0 0 0 0 0 0 0 0 0 0 0 0 0 0 0 0 0 0 0 0 405 971 1232 1168 1237 1062 1046 806 669 567 540 397 383 229 74 35 13 7 0 0 0 0 0
0 0 0 0 0 0 0 0 0 0 0 0 0 0 0 0 0 0 0 0 0 0 0 0 0 0 0 143 1016 1086 1083 1112 992 808 742 645 561 527 479 305 152 98 52 6 1 0 0 0 0
0 0 0 0 0 0 0 0 0 0 0 0 0 0 0 0 0 0 0 0 0 0 0 0 0 0 0 0 6 380 787 915 955 859 739 679 556 554 544 338 224 142 104 38 7 9 0 0 0
0 0 0 0 0 0 0 0 0 0 0 0 0 0 0 0 0 0 0 0 0 0 0 0 0 0 0 0 9 174 614 887 900 842 707 655 525 446 444 370 298 240 354 268 49 8 4 0 0
0 0 0 0 0 0 0 0 0 0 0 0 0 0 0 0 0 0 0 0 0 0 0 0 0 0 0 0 96 183 401 862 971 608 577 444 291 247 228 309 344 341 189 50 73 22 2 0 0
0 0 0 0 0 0 0 0 0 0 0 0 0 0 0 0 0 0 0 0 0 0 0 0 0 0 0 85 154 370 504 768 954 608 452 361 250 190 226 276 538 403 156 72 27 34 0 0 0
0 0 0 0 0 0 0 0 0 0 0 0 0 0 0 0 0 0 0 0 0 0 0 0 0 0 0 231 308 553 732 843 677 597 516 409 278 212 241 444 430 201 154 78 6 13 0 0 0
0 0 0 0 0 0 0 0 0 0 0 0 0 0 0 0 0 0 0 0 0 0 0 0 0 0 18 493 578 554 620 546 650 591 464 220 129 115 40 314 335 230 108 28 4 0 0 0 0
0 0 0 0 0 0 0 0 0 0 0 0 0 0 0 0 0 0 0 0 0 0 0 20 0 0 179 369 207 216 329 484 554 394 259 21 8 141 199 300 207 140 57 6 1 6 0 0 0
0 0 0 0 0 0 0 0 0 0 0 0 0 0 0 0 0 13 3 2 0 0 44 232 198 235 424 189 174 148 249 86 169 261 20 11 63 261 331 256 113 157 9 5 2 0 0 0 0

GFSSGP_con_mucape_036.txt.gz
CAPE
4 0 0 0 0 0 0 0 0 0 0 0 0 0 0 0 4 2 58 216 643 868 907 796 1060 931 708 390 358 417 400 421 285 61 17 6 0 0 0 0 27 17 21 33 55 56 42 4 0
0 0 0 0 0 0 0 0 0 0 0 0 0 0 0 6 43 224 353 609 812 848 858 644 1063 877 342 115 71 67 115 133 168 67 21 6 1 0 0 0 11 10 8 6 7 4 0 0 0
0 0 0 0 0 0 0 0 0 0 0 0 0 0 0 0 0 222 390 796 894 892 746 699 1107 746 232 106 84 47 79 294 298 65 9 4 1 0 0 0 1 4 0 0 0 0 0 0 0
0 0 0 0 0 0 0 0 0 0 0 0 0 0 0 4 49 135 740 879 890 798 722 951 1099 727 490 308 92 37 187 208 43 64 10 1 6 0 0 0 0 0 0 0 0 0 0 0 0
0 0 0 0 0 0 0 0 0 0 0 0 0 0 0 57 39 813 909 859 759 794 791 904 1106 750 454 224 317 387 523 72 0 0 1 7 10 4 0 0 0 1 2 2 1 1 0 0 0
0 0 0 0 0 0 0 0 0 0 0 0 0 0 0 97 158 1018 1137 938 840 801 851 839 953 908 756 416 538 787 817 347 68 72 35 3 8 33 0 0 0 1 5 8 5 0 0 0 7
0 0 0 0 0 0 0 0 0 0 0 0 0 0 50 100 116 1072 1235 1260 1089 828 797 817 765 645 625 495 382 674 796 448 200 179 182 157 150 133 46 0 0 1 4 6 3 1 30 3 0
0 0 0 0 0 0 0 0 0 0 0 0 0 0 44 125 102 408 1336 1407 1005 872 813 879 749 530 401 271 311 487 498 304 346 373 257 96 91 213 270 53 30 4 38 51 67 80 0 0 0
0 0 0 0 0 0 0 0 0 0 0 0 0 10 4 157 108 412 985 1104 1118 1128 1065 908 820 478 369 209 182 336 485 377 367 215 14 66 103 179 113 11 48 190 129 117 52 24 0 0 0
0 0 0 0 0 0 0 0 0 0 0 0 0 34 294 328 322 147 1231 1223 1230 1207 1005 937 711 498 366 219 175 139 168 121 126 77 0 137 197 181 35 0 51 309 246 41 4 0 0 0 0
0 0 0 0 0 0 0 0 0 0 0 0 0 183 299 343 461 255 611 1308 1339 1251 1103 839 694 595 469 345 154 97 99 77 67 63 1 95 157 107 39 31 26 27 5 0 0 0 0 0 0
0 0 0 0 0 0 0 0 0 0 0 0 0 0 14 318 442 445 356 739 1128 1302 1135 916 813 741 600 548 396 108 68 74 75 57 23 0 137 96 74 27 5 0 0 0 0 0 0 0 0
0 0 0 0 0 0 0 0 0 0 0 0 0 0 0 0 0 409 464 426 512 935 1176 1091 1001 970 897 800 507 161 99 38 13 32 18 13 3 68 129 24 1 0 0 0 0 0 0 0 0
0 0 0 0 0 0 0 0 0 0 0 0 0 0 0 0 0 0 290 457 484 557 771 1152 1149 1131 1122 994 834 711 292 77 4 0 0 6 4 29 144 19 0 0 0 0 0 0 0 0 0
0 0 0 0 0 0 0 0 0 0 0 0 0 0 0 0 0 0 0 0 10 147 601 747 1247 1289 1281 1199 1013 874 791 316 139 52 0 0 5 28 117 0 1 25 0 0 0 0 0 0 0
1 0 0 0 0 0 0 0 0 0 0 0 0 0 0 0 0 0 0 0 0 0 0 429 792 1305 1391 1390 1192 1018 934 725 409 319 163 177 89 4 0 0 10 48 18 0 0 0 0 0 0
0 0 0 0 0 0 0 0 0 0 0 0 0 0 0 0 0 0 0 0 0 0 0 0 526 1022 1188 1279 1287 1093 1097 946 578 533 404 283 261 30 0 2 39 41 56 0 0 0 0 0 0
0 0 0 0 0 0 0 0 0 0 0 0 0 0 0 0 0 0 0 0 0 0 0 0 250 804 1016 1028 1129 1115 1168 1095 738 825 555 514 379 192 43 18 54 72 75 2 0 0 0 0 0
1 0 0 0 0 0 0 0 0 0 0 0 0 0 0 0 0 0 0 0 0 0 0 0 2 633 1058 1029 1012 1067 1138 1104 776 919 708 688 547 388 233 48 49 74 58 0 0 0 0 0 0
10 0 0 0 0 0 0 0 0 0 0 0 0 0 0 0 0 0 0 0 0 0 0 0 0 137 980 1135 1106 1039 1185 1092 990 959 854 817 555 455 316 127 84 115 25 0 0 0 0 0 0
0 0 0 0 0 0 0 0 0 0 0 0 0 0 0 0 0 0 0 0 0 0 0 0 0 0 344 1121 1148 1091 1023 869 932 942 906 747 599 535 405 191 204 203 32 3 0 0 0 0 0
0 0 0 0 0 0 0 0 0 0 0 0 0 0 0 0 0 0 0 0 0 0 0 0 0 0 0 882 1122 1016 691 628 721 945 754 687 629 506 442 358 303 311 139 30 4 0 0 0 0
0 0 0 0 0 0 0 0 0 0 0 0 0 0 0 0 0 0 0 0 0 0 0 0 0 0 0 7 791 1055 841 659 556 781 847 641 626 480 478 387 358 419 233 85 105 23 9 3 7
0 0 0 0 0 0 0 0 0 0 0 0 0 0 0 0 0 0 0 0 0 0 0 0 0 0 0 0 9 576 757 737 673 838 837 691 593 502 432 475 391 398 318 200 273 211 48 13 29
0 0 0 0 0 0 0 0 0 0 0 0 0 0 0 0 0 0 0 0 0 0 0 0 0 0 0 0 0 12 451 748 750 826 812 613 505 453 401 406 385 269 237 208 194 143 61 13 18
0 0 0 0 0 0 0 0 0 0 0 0 0 0 0 0 0 0 0 0 0 0 0 0 0 0 0 0 0 0 106 419 636 556 610 583 483 290 230 247 246 263 267 284 236 113 16 29 40
0 0 0 0 0 0 0 0 0 0 0 0 0 0 0 0 0 0 0 0 0 0 0 0 0 0 0 0 0 0 1 39 184 413 474 408 178 145 151 207 187 123 255 270 205 156 11 13 3
0 0 0 0 0 0 0 0 0 0 0 0 0 0 0 0 0 0 0 0 0 0 0 0 0 0 0 0 12 11 9 2 60 202 370 332 180 161 146 146 91 78 82 357 175 185 61 9 12
0 0 0 0 0 0 0 0 0 0 0 0 0 0 0 0 0 0 0 0 0 0 0 0 0 2 5 1 17 25 16 88 271 290 194 195 225 167 184 136 113 228 27 203 198 145 0 1 5
0 0 0 0 0 0 0 0 0 0 0 0 0 0 0 0 0 0 0 0 0 0 0 0 9 54 54 64 138 223 240 413 550 295 347 344 305 193 233 131 62 238 125 90 119 0 0 3 7

GFSSGP_con_mucape_039.txt.gz
CAPE
4 0 0 0 0 0 0 0 0 0 0 0 0 0 0 0 0 0 43 275 483 805 869 1029 1381 1098 1076 929 925 885 732 419 167 95 17 7 1 0 0 21 35 42 64 115 140 92 28 12 0
0 0 0 0 0 0 0 0 0 0 0 0 0 0 0 0 38 112 198 318 698 792 762 666 1211 1047 886 787 687 611 600 483 192 63 15 7 0 0 0 13 11 16 9 8 3 2 0 0 0
0 0 0 0 0 0 0 0 0 0 0 0 0 0 0 0 11 136 140 652 751 722 585 566 1095 865 526 362 313 355 356 345 186 104 14 4 0 0 0 4 10 3 4 1 0 0 0 0 0
0 0 0 0 0 0 0 0 0 0 0 0 0 0 0 0 6 116 564 792 725 747 549 853 1045 834 549 350 165 92 216 312 219 102 7 2 0 0 0 1 3 0 0 0 0 0 0 0 0
0 0 0 0 0 0 0 0 0 0 0 0 0 0 0 0 56 527 824 791 669 690 571 784 1053 648 392 204 138 248 392 437 120 26 14 3 1 0 0 0 0 1 1 0 0 0 0 0 0
0 0 0 0 0 0 0 0 0 0 0 0 0 0 0 0 636 740 880 762 658 662 681 746 768 700 573 215 277 623 592 269 85 95 10 13 20 0 0 0 0 2 3 4 4 1 0 8 18
0 0 0 0 0 0 0 0 0 0 0 0 0 0 0 66 550 919 875 727 708 695 720 706 565 545 579 399 589 733 678 309 170 224 231 177 186 82 0 0 0 3 14 30 35 25 33 19 0
0 0 0 0 0 0 0 0 0 0 0 0 0 0 0 80 494 1120 991 841 844 739 694 725 609 550 458 300 534 711 589 351 223 281 254 191 150 223 121 17 22 25 58 88 75 87 0 0 0
0 0 0 0 0 0 0 0 0 0 0 0 0 0 0 92 647 1242 1213 1208 1124 812 697 723 632 514 367 265 190 439 462 322 295 279 167 103 50 152 130 5 49 199 177 197 229 70 0 0 0
0 0 0 0 0 0 0 0 0 0 0 0 0 0 19 93 519 1226 1305 1402 1973 945 707 713 631 549 331 205 120 244 324 175 220 151 95 22 42 122 143 22 64 348 367 250 140 1 0 0 0
0 0 0 0 0 0 0 0 0 0 0 0 0 92 113 122 195 731 1091 1250 1388 1388 898 1271 776 663 462 252 111 148 407 172 159 131 13 91 179 167 194 17 52 182 180 1 0 0 0 0 0
0 0 0 0 0 0 0 0 0 0 0 0 0 68 288 277 273 245 855 1076 1109 1239 1188 1088 805 727 519 336 149 84 200 228 116 97 35 101 215 240 161 44 43 63 27 0 0 0 0 0 0
0 0 0 0 0 0 0 0 0 0 0 0 0 0 105 185 347 340 188 775 1158 1290 1313 1121 972 801 633 472 308 149 54 75 96 88 74 5 154 172 91 72 13 9 1 0 0 0 0 0 0
0 0 0 0 0 0 0 0 0 0 0 0 0 0 0 0 0 3 191 409 466 1250 1365 1269 1087 891 762 683 598 475 274 78 43 57 77 53 21 132 109 123 44 0 0 0 0 0 0 0 0
0 0 0 0 0 0 0 0 0 0 0 0 0 0 0 0 0 0 0 132 475 509 944 1262 1196 1017 922 851 824 777 505 374 89 7 32 56 31 10 86 159 94 0 6 0 0 0 0 0 0
0 0 0 0 0 0 0 0 0 0 0 0 0 0 0 0 0 0 0 0 13 358 503 467 1096 1156 1105 1041 1004 974 697 680 629 284 0 0 16 24 24 68 114 3 30 9 0 0 0 0 0
1 0 0 0 0 0 0 0 0 0 0 0 0 0 0 0 0 0 0 0 0 0 0 0 537 1202 1202 1226 1193 1139 911 756 775 633 78 37 16 11 7 47 79 4 63 33 16 0 0 0 0
0 0 0 0 0 0 0 0 0 0 0 0 0 0 0 0 0 0 0 0 0 0 0 0 12 646 1227 1217 1167 1162 1145 923 814 790 312 262 174 146 108 17 3 1 64 41 24 0 0 0 0
0 0 0 0 0 0 0 0 0 0 0 0 0 0 0 0 0 0 0 0 0 0 0 0 0 115 770 1064 1055 1025 914 1108 1023 891 666 520 430 292 234 86 22 11 59 44 48 0 0 0 0
2 0 0 0 0 0 0 0 0 0 0 0 0 0 0 0 0 0 0 0 0 0 0 0 0 22 383 742 909 939 864 799 1107 1027 852 726 731 444 361 205 168 85 58 67 83 1 0 0 0
0 0 0 0 0 0 0 0 0 0 0 0 0 0 0 0 0 0 0 0 0 0 0 0 0 0 162 663 793 785 845 723 761 943 1064 816 851 675 479 337 233 222 98 100 113 1 0 0 0
0 0 0 0 0 0 0 0 0 0 0 0 0 0 0 0 0 0 0 0 0 0 0 0 0 0 0 578 801 771 763 743 618 642 858 972 959 918 633 446 228 208 159 142 165 42 6 0 0
0 0 0 0 0 0 0 0 0 0 0 0 0 0 0 0 0 0 0 0 0 0 0 0 0 0 0 0 737 804 753 743 608 614 588 811 968 849 796 542 294 188 193 169 219 104 86 14 12
0 0 0 0 0 0 0 0 0 0 0 0 0 0 0 0 0 0 0 0 0 0 0 0 0 0 0 0 10 725 690 596 593 683 558 635 710 660 734 686 435 260 289 239 233 126 128 65 98
0 0 0 0 0 0 0 0 0 0 0 0 0 0 0 0 0 0 0 0 0 0 0 0 0 0 0 0 0 0 571 679 605 658 620 461 622 622 540 506 439 305 261 271 297 273 222 121 49
0 0 0 0 0 0 0 0 0 0 0 0 0 0 0 0 0 0 0 0 0 0 0 0 0 0 0 0 0 0 3 380 624 665 369 314 369 491 471 379 401 332 273 251 249 177 213 166 52
0 0 0 0 0 0 0 0 0 0 0 0 0 0 0 0 0 0 0 0 0 0 0 0 0 0 0 0 0 0 0 26 135 349 371 354 326 394 456 396 337 310 205 138 96 129 127 172 44
0 0 0 0 0 0 0 0 0 0 0 0 0 0 0 0 0 0 0 0 0 0 0 0 0 0 0 0 0 0 0 0 40 67 172 299 292 300 358 264 163 116 92 64 81 94 78 89 116
0 0 0 0 0 0 0 0 0 0 0 0 0 0 0 0 0 0 0 0 0 0 0 0 0 0 0 0 0 0 0 0 2 28 37 92 204 214 244 155 89 62 65 69 68 99 56 63 120
0 0 0 0 0 0 0 0 0 0 0 0 0 0 0 0 0 0 0 0 0 0 0 0 0 0 0 0 8 9 12 0 0 0 0 25 130 155 232 169 68 76 107 71 73 40 55 27 49

GFSSGP_con_mucape_042.txt.gz
CAPE
5 0 0 0 0 0 0 0 0 0 0 0 0 0 0 0 0 0 4 162 228 469 856 1166 1725 1639 1288 879 1240 1074 713 558 221 123 24 4 0 0 0 26 49 77 74 89 119 70 29 5 0
0 0 0 0 0 0 0 0 0 0 0 0 0 0 0 0 6 32 118 277 598 782 886 979 1651 1348 1009 1158 1122 1009 567 355 180 110 23 9 0 0 4 28 28 34 43 31 14 3 0 0 0
0 0 0 0 0 0 0 0 0 0 0 0 0 0 0 0 0 46 103 392 759 763 757 820 1400 1350 1296 1069 814 759 728 431 165 77 15 6 0 0 5 6 14 12 3 3 2 0 0 0 0
0 0 0 0 0 0 0 0 0 0 0 0 0 0 0 0 0 76 312 702 726 682 588 827 1233 1317 1147 815 703 587 651 446 234 123 35 0 0 0 3 9 4 3 0 0 0 0 0 0 0
0 0 0 0 0 0 0 0 0 0 0 0 0 0 0 0 41 345 681 721 603 586 481 772 1161 926 529 313 337 506 335 349 292 132 27 0 0 0 0 2 1 0 0 0 0 0 0 1 1
0 0 0 0 0 0 0 0 0 0 0 0 0 0 0 0 332 914 754 790 621 531 598 692 860 764 580 417 327 459 572 650 277 121 27 8 0 0 0 1 2 2 1 2 3 11 3 22 14
0 0 0 0 0 0 0 0 0 0 0 0 0 0 0 14 484 1445 987 743 706 577 655 643 484 438 560 402 355 435 955 553 286 235 157 154 61 3 0 0 2 10 13 30 36 44 55 4 0
0 0 0 0 0 0 0 0 0 0 0 0 0 0 0 38 758 932 774 723 705 634 612 595 430 407 295 208 439 683 494 344 252 321 256 181 151 63 28 38 38 27 75 104 87 117 0 0 0
0 0 0 0 0 0 0 0 0 0 0 0 0 0 0 8 919 861 777 742 767 627 559 591 438 396 292 169 425 571 516 245 201 211 155 116 109 140 44 2 37 161 195 174 163 43 0 0 0
0 0 0 0 0 0 0 0 0 0 0 0 0 0 0 461 1043 1059 1201 878 850 885 636 565 458 410 333 195 202 394 500 179 112 146 139 96 92 151 124 6 51 259 290 319 270 3 0 0 0
0 0 0 0 0 0 0 0 0 0 0 0 0 0 9 388 1105 1437 1665 1456 1190 1225 775 639 350 439 410 222 134 156 437 226 139 129 121 102 88 82 194 45 49 164 198 87 90 0 0 0 0
0 0 0 0 0 0 0 0 0 0 0 0 0 0 22 131 333 940 1238 1577 1370 1208 1175 721 815 658 594 457 254 76 300 281 158 129 101 58 82 108 187 124 41 105 126 4 0 0 0 0 0
0 0 0 0 0 0 0 0 0 0 0 0 0 0 108 189 210 212 375 853 1316 1781 1720 1617 1449 1045 726 598 420 179 103 323 159 120 110 48 107 173 179 170 64 67 54 0 0 0 0 0 0
0 0 0 0 0 0 0 0 0 0 0 0 0 0 0 170 250 302 376 327 601 1044 1221 1577 1502 1545 829 741 564 381 175 144 246 157 96 83 66 184 206 129 73 35 11 0 0 0 0 0 0
0 0 0 0 0 0 0 0 0 0 0 0 0 0 0 0 17 3 31 7 332 490 1006 1162 1158 1350 1045 896 736 598 496 375 235 130 113 93 44 105 154 99 94 28 7 0 0 0 0 0 0
0 0 0 0 0 0 0 0 0 0 0 0 0 0 0 0 0 0 0 0 0 0 420 1027 1120 1241 1223 1062 905 811 682 487 570 297 111 37 47 11 94 114 93 89 2 0 0 0 0 0 0
0 0 0 0 0 0 0 0 0 0 0 0 0 0 0 0 0 0 0 0 0 0 0 340 794 1063 1195 1221 1090 968 867 760 801 577 385 219 75 28 12 48 99 123 20 16 7 4 0 0 0
0 0 0 0 0 0 0 0 0 0 0 0 0 0 0 0 0 0 0 0 0 0 0 0 1 778 1016 1046 1088 1016 979 908 901 782 681 571 257 38 15 21 30 76 46 9 36 8 0 0 0
0 0 0 0 0 0 0 0 0 0 0 0 0 0 0 0 0 0 0 0 0 0 0 0 0 0 750 895 960 946 949 1040 971 1077 809 725 593 186 101 75 55 38 78 4 34 24 6 0 0
0 0 0 0 0 0 0 0 0 0 0 0 0 0 0 0 0 0 0 0 0 0 0 0 0 0 16 725 736 620 529 547 824 979 887 842 786 444 299 149 128 80 48 9 20 40 26 0 0
17 0 0 0 0 0 0 0 0 0 0 0 0 0 0 0 0 0 0 0 0 0 0 0 0 0 0 92 606 609 649 489 590 725 780 855 865 664 453 351 257 138 108 83 46 63 57 13 0
0 0 0 0 0 0 0 0 0 0 0 0 0 0 0 0 0 0 0 0 0 0 0 0 0 0 0 0 314 333 389 389 397 689 747 736 934 911 680 631 443 196 143 125 87 62 71 66 34
0 0 0 0 0 0 0 0 0 0 0 0 0 0 0 0 0 0 0 0 0 0 0 0 0 0 0 0 147 416 332 439 462 476 644 708 758 886 786 718 644 357 225 129 129 133 71 87 44
0 0 0 0 0 0 0 0 0 0 0 0 0 0 0 0 0 0 0 0 0 0 0 0 0 0 0 0 0 455 419 397 494 594 618 700 623 631 699 630 606 522 341 310 147 152 116 151 81
0 0 0 0 0 0 0 0 0 0 0 0 0 0 0 0 0 0 0 0 0 0 0 0 0 0 0 0 0 7 477 564 513 622 523 495 416 496 627 603 517 555 492 419 235 143 142 95 120
0 0 0 0 0 0 0 0 0 0 0 0 0 0 0 0 0 0 0 0 0 0 0 0 0 0 0 0 0 0 3 283 469 442 535 386 369 310 484 668 587 494 415 430 319 141 98 108 151
0 0 0 0 0 0 0 0 0 0 0 0 0 0 0 0 0 0 0 0 0 0 0 0 0 0 0 0 0 0 0 0 50 130 184 305 333 314 259 334 501 561 396 344 268 200 94 116 112
0 0 0 0 0 0 0 0 0 0 0 0 0 0 0 0 0 0 0 0 0 0 0 0 0 0 0 0 0 0 0 0 0 28 66 117 211 292 310 217 221 329 466 337 216 158 112 119 126
0 0 0 0 0 0 0 0 0 0 0 0 0 0 0 0 0 0 0 0 0 0 0 0 0 0 0 0 0 0 0 0 0 0 0 0 27 56 110 142 201 220 268 305 300 84 84 100 92
0 0 0 0 0 0 0 0 0 0 0 0 0 0 0 0 0 0 0 0 0 0 0 0 0 0 0 0 0 0 3 12 6 5 0 0 0 0 15 67 132 188 135 101 89 64 82 108 64

GFSSGP_con_mucape_045.txt.gz
CAPE
4 0 0 0 0 0 0 0 0 0 0 0 0 0 0 0 0 0 2 231 117 457 994 1125 1810 1922 1949 2022 1442 1357 1048 751 215 56 7 0 0 0 0 5 68 10 4 71 93 60 26 0 0
0 0 0 0 0 0 0 0 0 0 0 0 0 0 0 0 0 22 221 282 294 830 879 953 1860 1938 1614 1801 1472 1101 693 416 223 126 18 0 0 0 5 31 98 131 110 59 24 0 0 0 0
0 0 0 0 0 0 0 0 0 0 0 0 0 0 0 0 0 62 79 481 635 929 839 1113 1765 1736 1233 1145 1606 978 833 408 188 118 16 3 0 0 13 21 41 17 10 4 0 0 0 0 2
0 0 0 0 0 0 0 0 0 0 0 0 0 0 0 0 0 20 271 797 836 872 812 1299 1470 1221 1190 1373 1256 972 767 409 241 74 14 0 0 3 2 8 12 0 0 0 0 0 0 0 1
0 0 0 0 0 0 0 0 0 0 0 0 0 0 0 0 89 405 688 861 830 726 726 815 1206 1371 1288 1110 1008 998 824 461 275 129 6 0 1 2 11 7 7 0 0 0 0 0 2 7 8
0 0 0 0 0 0 0 0 0 0 0 0 0 0 0 39 345 952 949 667 639 655 665 659 893 1030 899 727 642 771 706 580 391 129 3 0 1 1 3 3 1 1 0 1 3 17 24 30 0
0 0 0 0 0 0 0 0 0 0 0 0 0 0 0 0 380 1313 1215 1295 887 631 676 646 536 578 556 520 486 519 795 888 538 279 118 56 31 2 3 4 4 4 9 28 46 61 44 0 0
0 0 0 0 0 0 0 0 0 0 0 0 0 0 0 0 484 1347 1175 1242 1386 751 675 632 542 453 360 266 318 374 626 553 345 269 179 105 21 17 33 33 44 39 63 94 106 76 0 0 0
0 0 0 0 0 0 0 0 0 0 0 0 0 0 0 7 1133 1554 1191 1395 1418 620 696 600 475 402 294 203 197 418 412 257 185 190 105 83 79 14 2 0 28 102 204 186 190 3 0 0 0
0 0 0 0 0 0 0 0 0 0 0 0 0 0 14 544 1347 1614 1574 1407 1181 780 666 569 513 368 265 154 248 579 428 215 139 157 152 157 162 168 68 0 36 156 218 273 269 0 0 0 0
0 0 0 0 0 0 0 0 0 0 0 0 0 0 0 895 1170 1378 1275 969 1367 1120 1055 863 458 408 320 189 210 353 413 191 142 164 158 130 115 173 199 79 74 178 138 185 79 0 0 0 0
0 0 0 0 0 0 0 0 0 0 0 0 0 0 0 45 652 1315 1369 1547 1692 1678 1044 1099 635 380 343 290 208 176 298 308 172 140 134 124 123 118 206 121 88 166 159 25 49 0 0 0 0
0 0 0 0 0 0 0 0 0 0 0 0 0 0 0 0 80 162 471 946 1372 1294 1344 1164 631 363 344 300 357 308 168 262 254 173 86 82 96 87 102 143 83 113 76 19 0 0 0 0 0
0 0 0 0 0 0 0 0 0 0 0 0 0 0 0 0 83 167 212 226 665 826 1052 1008 1196 1028 907 486 507 492 324 168 178 176 105 47 55 88 97 111 99 60 31 14 0 0 0 0 0
0 0 0 0 0 0 0 0 0 0 0 0 0 0 0 0 0 95 232 266 254 462 860 796 671 1258 1281 1214 722 600 548 394 246 148 124 53 32 71 111 106 108 46 0 9 0 0 0 0 0
0 0 0 0 0 0 0 0 0 0 0 0 0 0 0 0 0 0 78 102 27 0 176 793 794 687 1268 1514 1259 768 614 568 516 414 299 148 65 37 97 105 118 50 9 0 0 0 0 0 0
0 0 0 0 0 0 0 0 0 0 0 0 0 0 0 0 0 0 0 0 0 0 0 0 718 858 827 1301 1261 1018 780 689 679 603 457 407 186 77 46 60 75 60 48 6 0 0 0 0 0
0 0 0 0 0 0 0 0 0 0 0 0 0 0 0 0 0 0 0 0 0 0 0 0 7 683 1045 892 1091 884 647 790 823 782 630 710 543 217 100 33 24 64 75 63 1 0 0 0 0
0 0 0 0 0 0 0 0 0 0 0 0 0 0 0 0 0 0 0 0 0 0 0 0 0 0 747 723 806 699 884 1058 709 888 769 764 801 589 310 99 21 20 70 94 42 0 3 5 0
0 0 0 0 0 0 0 0 0 0 0 0 0 0 0 0 0 0 0 0 0 0 0 0 0 0 0 423 716 632 468 773 579 472 735 867 916 779 586 402 127 73 36 24 77 1 11 13 9
0 0 0 0 0 0 0 0 0 0 0 0 0 0 0 0 0 0 0 0 0 0 0 0 0 0 0 0 470 588 343 347 363 651 546 475 895 927 751 647 358 134 80 67 69 30 1 22 23
0 1 0 0 0 0 0 0 0 0 0 0 0 0 0 0 0 0 0 0 0 0 0 0 0 0 0 0 60 474 139 169 226 254 208 345 368 817 847 753 613 312 131 100 90 59 35 15 23
0 0 0 0 0 0 0 0 0 0 0 0 0 0 0 0 0 0 0 0 0 0 0 0 0 0 0 0 0 211 374 268 378 367 316 221 268 446 719 702 711 519 387 217 142 88 57 46 39
0 0 0 0 0 0 0 0 0 0 0 0 0 0 0 0 0 0 0 0 0 0 0 0 0 0 0 0 0 0 296 343 327 322 298 269 344 503 567 551 690 658 562 393 278 209 140 90 72
0 0 0 0 0 0 0 0 0 0 0 0 0 0 0 0 0 0 0 0 0 0 0 0 0 0 0 0 0 0 0 232 282 280 283 320 287 382 392 494 560 638 604 509 362 272 212 162 106
0 0 0 0 0 0 0 0 0 0 0 0 0 0 0 0 0 0 0 0 0 0 0 0 0 0 0 0 0 0 0 0 44 171 185 173 255 276 285 336 350 389 582 468 322 265 180 260 149
0 0 0 0 0 0 0 0 0 0 0 0 0 0 0 0 0 0 0 0 0 0 0 0 0 0 0 0 0 0 0 0 0 0 55 139 224 259 341 269 254 214 280 475 416 310 187 166 211
0 0 0 0 0 0 0 0 0 0 0 0 0 0 0 0 0 0 0 0 0 0 0 0 0 0 0 0 0 0 0 0 0 0 0 37 48 78 87 190 215 274 276 428 462 366 274 250 198
0 0 0 0 0 0 0 0 0 0 0 0 0 0 0 0 0 0 0 0 0 0 0 0 0 0 0 0 0 0 0 0 0 0 0 0 3 16 42 53 79 231 282 275 270 296 263 216 213
0 0 0 0 0 0 0 0 0 0 0 0 0 0 0 0 0 0 0 0 0 0 0 0 0 0 0 0 0 0 0 0 0 37 35 37 47 45 41 25 29 4 6 151 265 220 150 259 223

GFSSGP_con_mucape_048.txt.gz
CAPE
55 0 0 0 0 0 0 0 0 0 0 0 0 0 0 0 0 16 226 579 266 700 1127 1142 2031 2105 2339 2271 1690 1322 790 463 174 11 1 0 0 0 0 24 10 7 10 89 76 22 0 0 0
18 0 0 0 0 0 0 0 0 0 0 0 0 0 0 0 2 357 602 607 436 1129 1276 1176 1986 2247 2328 2060 1388 1095 690 433 166 24 8 0 0 0 4 121 156 88 109 83 20 0 0 0 1
0 0 0 0 0 0 0 0 0 0 0 0 0 0 0 0 6 329 530 620 634 995 900 1350 2109 2239 2236 1971 1542 1088 693 488 272 108 9 0 0 8 36 78 89 62 29 4 0 0 0 0 3
0 0 0 0 0 0 0 0 0 0 0 0 0 0 0 0 7 304 750 623 826 899 923 1386 1827 1490 1532 1522 1498 1080 729 431 168 79 15 0 0 4 7 26 8 3 2 1 0 0 0 1 4
0 0 3 0 0 0 0 0 0 0 0 0 0 0 0 86 468 596 978 875 935 832 765 987 1654 1578 1225 1415 1433 1285 815 475 181 78 7 0 0 2 0 3 2 1 0 0 0 0 0 1 4
0 0 2 0 0 0 0 0 0 0 0 0 0 0 0 252 683 888 1014 1064 988 908 654 697 680 958 1095 1171 1212 1197 900 532 274 135 1 0 0 2 8 6 0 0 0 0 0 3 6 4 0
0 0 1 0 0 0 0 0 0 0 0 0 0 0 0 98 848 689 783 1043 1047 932 574 435 489 565 614 687 816 949 898 712 535 257 55 29 9 2 0 1 1 0 7 29 42 54 48 0 0
0 0 0 0 0 0 0 0 0 0 0 0 0 0 0 0 761 680 1449 1025 740 932 593 476 385 498 493 441 375 442 669 656 439 269 160 40 0 16 15 41 36 25 61 112 136 50 0 0 0
0 0 0 0 0 0 0 0 0 0 0 0 0 0 0 0 661 905 853 868 1360 897 738 596 391 393 297 135 154 233 299 420 231 158 65 8 0 0 0 0 45 136 221 178 168 0 0 0 0
0 0 0 0 0 0 0 0 0 0 0 0 0 0 141 350 845 1126 1024 1257 1126 935 751 733 557 367 185 99 115 44 271 371 269 91 69 57 44 9 0 0 27 130 218 243 134 0 0 0 0
0 0 0 0 0 0 0 0 0 0 0 0 0 0 36 355 528 835 1030 645 575 625 576 582 579 393 187 131 134 117 375 239 214 72 66 85 122 155 96 2 12 97 76 106 92 0 0 0 0
0 0 0 0 0 0 0 0 0 0 0 0 0 0 0 216 501 812 1112 561 786 1007 690 663 476 559 280 199 173 138 240 296 202 137 66 130 128 164 170 110 10 75 122 147 167 3 0 0 0
0 0 0 0 0 0 0 0 0 0 0 0 0 0 0 0 32 503 657 655 648 696 674 823 740 904 507 412 323 206 196 253 230 199 124 98 124 139 167 172 115 39 85 106 91 2 0 0 0
0 0 0 0 0 0 0 0 0 0 0 0 0 0 0 0 0 0 133 524 901 967 856 689 838 953 762 386 548 503 338 236 321 244 204 127 80 105 138 160 175 126 69 80 40 0 0 0 0
0 0 0 0 0 0 0 0 0 0 0 0 0 0 0 0 0 0 0 59 100 114 403 947 884 763 704 483 484 716 673 453 340 320 237 177 94 77 79 109 167 178 120 47 27 0 0 0 0
0 0 0 0 0 0 0 0 0 0 0 0 0 0 0 0 0 0 0 11 35 76 75 0 408 912 896 718 778 933 805 731 576 441 309 224 131 78 77 107 164 204 158 37 0 0 0 0 0
0 0 0 0 0 0 0 0 0 0 0 0 0 0 0 0 0 0 0 0 0 22 13 0 0 303 804 929 1014 794 1309 803 866 640 469 391 230 133 93 99 121 174 150 42 0 0 0 0 0
0 0 0 0 0 0 0 0 0 0 0 0 0 0 0 0 0 0 0 0 0 0 0 0 0 0 186 808 931 1220 659 1218 1038 880 684 539 414 287 246 95 103 127 131 79 0 0 0 0 0
0 0 0 0 0 0 0 0 0 0 0 0 0 0 0 0 0 0 0 0 0 0 0 0 0 0 0 25 929 1142 942 850 1032 669 893 704 465 331 406 266 103 110 123 116 9 17 0 0 0
0 0 0 0 0 0 0 0 0 0 0 0 0 0 0 0 0 0 0 0 0 0 0 0 0 0 0 0 148 599 720 926 769 470 579 723 597 385 344 442 285 142 135 125 82 8 22 0 0
0 0 0 0 0 0 0 0 0 0 0 0 0 0 0 0 0 0 0 0 0 0 0 0 0 0 0 0 0 43 555 850 679 677 370 451 472 484 461 404 466 364 169 163 135 42 23 33 0
0 0 0 0 0 0 0 0 0 0 0 0 0 0 0 0 0 0 0 0 0 0 0 0 0 0 0 0 0 0 22 341 382 333 461 771 292 554 427 457 433 343 275 142 90 84 57 24 10
0 0 0 0 0 0 0 0 0 0 0 0 0 0 0 0 0 0 0 0 0 0 0 0 0 0 0 0 0 0 0 18 55 161 408 506 530 247 551 146 218 269 410 438 193 108 89 74 63
0 0 0 0 0 0 0 0 0 0 0 0 0 0 0 0 0 0 0 0 0 0 0 0 0 0 0 0 0 0 0 0 7 269 554 813 738 274 234 422 137 206 236 379 345 275 115 94 78
0 0 0 0 0 0 0 0 0 0 0 0 0 0 0 0 0 0 0 0 0 0 0 0 0 0 0 0 0 0 0 0 0 36 310 642 800 400 283 505 312 207 156 216 300 190 284 149 119
0 0 0 0 0 0 0 0 0 0 0 0 0 0 0 0 0 0 0 0 0 0 0 0 0 0 0 0 0 0 0 0 0 0 11 314 455 598 340 172 281 191 138 123 99 79 186 302 206
0 0 0 0 0 0 0 0 0 0 0 0 0 0 0 0 0 0 0 0 0 0 0 0 0 0 0 0 0 0 0 0 0 0 0 3 100 334 462 386 369 323 305 241 201 128 318 313 274
0 0 0 0 0 0 0 0 0 0 0 0 0 0 0 0 0 0 0 0 0 0 0 0 0 0 0 0 0 0 0 0 0 0 0 1 27 106 227 152 126 40 156 261 227 163 122 214 193
0 0 0 0 0 0 0 0 0 0 0 0 0 0 0 0 0 0 0 0 0 0 0 0 0 0 0 0 0 0 0 0 0 0 0 0 19 58 83 111 151 146 182 176 172 198 249 173 207
0 0 0 0 0 0 0 0 0 0 0 0 0 0 0 0 0 0 0 0 0 0 0 0 0 0 0 0 0 0 0 0 0 0 0 0 22 37 82 134 148 185 173 157 195 163 171 213 314

GFSSGP_con_mucape_051.txt.gz
CAPE
46 19 0 0 0 0 0 0 0 0 0 0 0 0 0 0 0 112 393 660 493 1004 1274 1404 2041 2356 2450 2254 1677 1169 808 471 109 7 0 2 3 0 1 18 3 0 50 82 48 2 0 0 0
32 0 0 0 0 0 0 0 0 0 0 0 0 0 0 0 12 716 814 656 561 982 1192 1002 2148 2397 2365 1883 1377 981 675 351 36 1 0 0 0 1 100 70 19 15 96 58 3 0 0 0 3
62 1 0 0 0 0 0 0 0 0 0 0 0 0 0 0 107 531 899 527 742 1098 967 1485 2243 2394 2261 1957 1546 946 655 403 65 7 0 0 0 9 96 150 82 59 16 4 0 0 0 1 2
30 0 0 0 0 0 0 0 0 0 0 0 0 0 0 39 155 630 751 577 927 917 1119 1430 2170 2255 2105 1841 1492 1029 699 395 74 22 0 0 3 15 48 21 27 35 11 1 0 0 0 0 2
43 39 26 0 0 0 0 0 0 0 0 0 0 0 0 478 629 846 743 577 907 725 1374 1195 1916 1769 1791 1586 1255 1228 719 291 132 43 0 0 0 4 32 0 3 2 0 0 0 0 0 1 3
39 79 14 0 0 0 0 0 0 0 0 0 0 0 28 618 950 1079 903 870 827 715 890 851 1068 1301 1127 1317 1316 1272 840 510 216 155 0 0 0 1 3 0 0 0 0 0 0 1 4 5 0
19 81 60 32 37 6 0 0 0 0 0 0 0 0 34 689 1110 1053 1047 973 936 766 540 571 400 394 682 708 864 1215 1041 685 336 164 0 0 0 5 0 0 0 0 0 1 3 27 21 0 0
4 112 83 57 34 1 3 0 0 0 0 0 0 0 7 64 1006 928 890 1089 1016 872 467 372 360 460 482 462 459 712 817 615 384 143 87 0 0 0 0 1 0 0 1 42 76 21 0 0 0
0 53 55 41 20 9 16 0 0 0 0 0 0 0 0 0 790 675 682 572 844 904 617 419 320 404 324 253 294 242 374 411 190 107 18 0 0 0 0 0 58 125 160 145 114 0 0 0 0
0 7 4 1 12 2 10 0 0 0 0 0 0 0 83 105 568 709 685 928 860 895 740 553 344 283 220 104 146 61 74 348 190 120 29 0 0 0 0 0 32 80 151 221 51 0 0 0 0
0 0 0 8 0 0 0 0 0 0 0 0 0 0 0 195 429 561 615 719 711 681 729 650 552 331 185 67 73 32 51 325 339 142 51 7 26 9 0 0 0 36 38 67 53 0 0 0 0
0 0 0 0 0 0 0 0 0 0 0 0 0 0 0 14 285 420 536 740 796 690 1023 528 670 527 241 103 78 53 176 204 159 140 44 44 92 112 33 2 0 26 57 70 118 67 0 0 0
0 0 0 0 0 0 0 0 0 0 0 0 0 0 0 0 0 297 445 621 672 713 854 1003 710 672 544 206 144 122 135 233 182 132 80 64 102 103 122 92 43 5 59 79 164 100 0 0 0
0 0 0 0 0 0 0 0 0 0 0 0 0 0 0 0 0 0 167 572 632 671 781 752 888 560 837 554 365 351 269 254 292 222 173 67 76 89 128 136 134 83 42 55 67 55 0 0 0
0 0 0 0 0 0 0 0 0 0 0 0 0 0 0 0 0 0 0 0 69 438 725 876 804 804 916 983 651 603 715 540 438 492 294 147 92 98 89 114 158 178 120 52 38 18 0 0 0
9 0 0 0 0 0 0 0 0 0 0 0 0 0 0 0 0 0 0 0 0 0 0 61 550 915 914 946 795 635 848 820 678 594 545 348 181 121 100 113 120 136 186 148 69 33 0 0 0
36 0 0 0 0 0 0 0 0 0 0 0 0 0 0 0 0 0 0 0 0 0 0 8 28 49 607 871 867 904 896 1010 1040 830 706 578 403 248 143 118 112 94 219 102 104 37 0 0 0
0 0 0 0 0 0 0 0 0 0 0 0 0 0 0 0 0 0 0 0 0 0 0 0 0 0 0 118 525 1032 804 1199 969 1250 1077 836 715 594 407 283 176 123 222 167 121 40 0 0 0
0 0 0 0 0 0 0 0 0 0 0 0 0 0 0 0 0 0 0 0 0 0 0 0 0 0 0 0 35 1077 814 530 1083 988 1365 1089 963 808 700 526 379 272 257 320 196 65 1 0 0
0 0 0 0 0 0 0 0 0 0 0 0 0 0 0 0 0 0 0 0 0 0 0 0 0 0 0 0 0 85 856 461 725 1048 923 1087 1227 1040 791 774 621 452 321 300 203 94 18 0 0
0 0 0 0 0 0 0 0 0 0 0 0 0 0 0 0 0 0 0 0 0 0 0 0 0 0 0 0 0 0 85 720 865 901 809 1007 760 1067 1006 805 775 684 470 391 356 250 81 41 25
0 0 0 0 0 0 0 0 0 0 0 0 0 0 0 0 0 0 0 0 0 0 0 0 0 0 0 0 0 0 0 6 381 592 650 667 579 442 613 731 697 650 634 497 480 348 133 105 45
2 3 0 0 0 0 0 0 0 0 0 0 0 0 0 0 0 0 0 0 0 0 0 0 0 0 0 0 0 0 0 0 0 49 237 251 541 771 431 425 770 609 521 521 529 399 243 185 74
8 0 0 0 0 0 0 0 0 0 0 0 0 0 0 0 0 0 0 0 0 0 0 0 0 0 0 0 0 0 0 0 0 0 73 160 411 690 790 421 752 606 639 510 812 449 219 168 143
5 32 0 0 0 0 0 0 0 0 0 0 0 0 0 0 0 0 0 0 0 0 0 0 0 0 0 0 0 0 0 0 0 0 0 50 255 576 688 350 608 679 602 675 609 601 258 176 179
6 37 0 0 0 0 0 0 0 0 0 0 0 0 0 0 0 0 0 0 0 0 0 0 0 0 0 0 0 0 0 0 0 0 0 0 9 198 481 627 353 511 419 400 694 539 509 357 191
0 0 0 0 0 0 0 0 0 0 0 0 0 0 0 0 0 0 0 0 0 0 0 0 0 0 0 0 0 0 0 0 0 0 0 0 0 8 124 531 533 365 474 526 553 732 579 282 216
0 0 0 0 0 0 0 0 0 0 0 0 0 0 0 0 0 0 0 0 0 0 0 0 0 0 0 0 0 0 0 0 0 0 0 0 0 0 17 161 313 292 463 449 521 534 374 194 178
0 0 0 0 0 0 0 0 0 0 0 0 0 0 0 0 0 0 0 0 0 0 0 0 0 0 0 0 0 0 0 0 0 0 0 0 0 0 1 47 116 192 292 282 154 286 249 245 113
0 0 0 0 0 0 0 0 0 0 0 0 0 0 0 0 0 0 0 0 0 0 0 0 0 0 0 0 0 0 0 0 0 0 0 0 0 0 0 1 43 186 243 223 225 173 215 269 285

GFSSGP_con_mucape_054.txt.gz
CAPE
52 0 0 0 0 0 0 0 0 0 0 0 0 0 0 0 135 457 396 421 1166 790 1072 1744 2162 2222 2337 2214 1500 1332 975 442 155 32 10 0 0 0 3 0 1 3 76 63 6 0 1 3 4
33 45 0 0 0 0 0 0 0 0 0 0 0 0 0 39 677 462 655 451 934 891 781 901 2168 2451 2365 1982 1298 1057 620 134 0 0 0 0 0 35 42 3 3 51 67 12 0 0 1 3 3
58 68 8 0 0 0 0 0 0 0 0 0 0 0 0 22 375 686 889 423 955 988 856 1454 2318 2480 2159 1742 1455 1214 808 99 4 0 0 0 5 147 90 70 156 92 9 2 0 0 2 3 3
46 71 2 0 0 0 0 0 0 0 0 0 0 0 0 246 395 692 469 493 937 866 1009 1820 2264 2360 2100 1744 1459 1217 763 225 10 0 0 0 22 63 39 39 11 44 19 1 0 0 3 7 5
70 44 0 0 0 0 0 0 0 0 0 0 0 0 167 496 668 532 554 784 810 1260 1093 1561 2153 2234 1950 1394 1166 1199 964 261 99 2 0 0 12 45 2 4 9 9 0 0 0 1 2 5 0
104 18 0 0 0 0 0 0 0 0 0 0 0 7 328 664 872 633 477 705 646 1301 1044 1006 1419 1761 1708 1147 996 1033 897 502 183 2 0 0 5 16 0 0 0 0 0 0 0 2 3 1 0
47 0 0 0 0 12 0 0 0 0 0 0 0 0 635 961 990 854 746 721 587 860 745 548 415 655 862 860 978 813 978 433 193 65 0 0 12 12 3 0 0 0 0 0 2 11 0 0 0
7 0 0 21 1 0 9 0 0 0 0 0 0 0 137 961 886 981 993 868 728 530 544 315 194 198 286 350 469 641 605 261 197 56 12 0 0 0 2 0 0 2 10 64 72 34 0 0 0
22 0 0 0 9 23 1 6 0 0 0 0 0 27 51 964 865 641 933 876 877 596 325 278 194 215 308 232 202 357 346 223 107 45 9 0 0 0 0 0 0 65 150 193 101 0 0 0 0
19 0 0 12 16 54 6 0 0 0 0 0 0 0 38 513 688 511 419 513 825 767 453 275 310 248 240 163 155 150 161 204 76 48 18 0 0 0 0 0 5 78 157 218 74 0 0 0 0
1 0 1 15 25 8 18 0 0 0 0 0 0 0 103 206 276 572 499 434 406 817 671 381 218 166 114 86 68 37 48 151 125 81 38 4 0 0 0 0 0 0 19 96 33 0 0 0 0
0 0 0 30 14 4 0 0 0 0 0 0 0 0 0 89 198 269 447 594 624 522 700 586 549 218 121 75 39 35 25 127 160 138 68 4 8 15 14 0 0 4 0 46 47 18 0 0 0
0 0 0 0 0 0 0 0 0 0 0 0 0 0 0 0 3 209 275 444 631 653 437 384 553 512 225 104 43 23 12 172 187 144 70 9 17 42 55 14 4 2 19 4 67 50 8 0 0
0 0 0 1 0 0 0 0 0 0 0 0 0 0 0 0 0 0 198 353 462 490 561 590 416 455 583 299 115 37 41 109 147 93 59 2 20 49 64 52 34 28 4 34 77 73 43 2 0
2 1 0 0 0 0 0 0 0 0 0 0 0 0 0 0 0 0 0 0 243 400 511 701 553 411 466 702 328 241 251 170 181 200 156 122 9 43 49 55 61 45 47 13 37 36 33 17 0
14 7 0 0 0 0 0 0 0 0 0 0 0 0 0 0 0 0 0 0 0 33 69 494 705 620 599 720 767 450 420 549 434 333 295 297 190 30 29 49 56 67 65 61 23 18 10 7 0
17 0 0 0 0 0 1 0 0 0 0 0 0 0 0 0 0 0 0 0 0 0 0 63 97 289 774 739 634 753 450 633 718 547 453 435 377 299 131 42 44 53 58 68 66 33 15 1 0
0 0 0 0 0 0 0 0 0 0 0 0 0 0 0 0 0 0 0 0 0 0 0 0 0 0 19 136 693 737 669 515 597 826 806 578 495 390 344 253 128 76 47 98 96 72 30 14 0
0 0 0 0 0 0 0 0 0 0 0 0 0 0 0 0 0 0 0 0 0 0 0 0 0 0 0 0 0 670 799 675 478 453 679 1066 766 606 414 367 311 178 113 100 137 99 58 33 14
0 0 0 1 0 0 0 0 0 0 0 0 0 0 0 0 0 0 0 0 0 0 0 0 0 0 0 0 0 0 652 669 613 412 300 597 1046 847 716 506 359 310 184 162 157 154 94 71 75
0 0 0 0 0 0 0 0 0 0 0 0 0 0 0 0 0 0 0 0 0 0 0 0 0 0 0 0 0 0 0 232 489 410 276 295 352 747 884 775 716 433 305 232 207 231 181 139 86
0 0 0 3 0 0 0 0 0 0 0 0 0 0 0 0 0 0 0 0 0 0 0 0 0 0 0 0 0 0 0 0 19 415 504 535 504 452 503 619 682 748 762 517 344 315 252 200 147
3 18 0 3 0 0 0 0 0 0 0 0 0 0 0 0 0 0 0 0 0 0 0 0 0 0 0 0 0 0 0 0 0 0 0 212 477 621 573 504 451 560 746 847 798 588 614 454 244
30 1 0 0 0 0 0 0 0 0 0 0 0 0 0 0 0 0 0 0 0 0 0 0 0 0 0 0 0 0 0 0 0 0 0 0 0 50 367 560 610 420 719 639 637 911 594 525 356
17 4 0 0 0 0 0 0 0 0 0 0 0 0 0 0 0 0 0 0 0 0 0 0 0 0 0 0 0 0 0 0 0 0 0 0 0 10 133 333 385 383 462 482 694 716 676 617 553
0 1 0 0 0 0 0 0 0 0 0 0 0 0 0 0 0 0 0 0 0 0 0 0 0 0 0 0 0 0 0 0 0 0 0 0 0 0 1 13 149 214 366 489 502 667 560 669 702
0 0 0 0 0 0 0 0 0 0 0 0 0 0 0 0 0 0 0 0 0 0 0 0 0 0 0 0 0 0 0 0 0 0 0 0 0 0 0 0 1 142 312 385 641 656 591 742 780
0 0 0 6 0 0 0 0 0 0 0 0 0 0 0 0 0 0 0 0 0 0 0 0 0 0 0 0 0 0 0 0 0 0 0 0 0 0 0 0 0 43 133 278 426 577 692 836 887
0 0 0 0 0 0 0 0 0 0 0 0 0 0 0 0 0 0 0 0 0 0 0 0 0 0 0 0 0 0 0 0 0 0 0 0 0 0 0 0 0 2 1 17 196 326 459 571 609
0 0 0 0 0 0 0 0 0 0 0 0 0 0 0 0 0 0 0 0 0 0 0 0 0 0 0 0 0 0 0 0 0 0 0 0 0 0 0 0 0 0 3 8 16 123 265 202 253

GFSSGP_con_mucape_057.txt.gz
CAPE
97 10 0 0 0 0 0 0 0 0 0 0 0 0 17 22 234 66 307 594 762 1276 1997 2002 2337 2443 2378 2101 1718 1478 1215 850 440 214 19 0 0 1 1 1 7 73 65 1 1 3 5 5 0
140 48 7 0 0 0 0 0 0 0 0 0 0 0 20 429 289 299 806 890 809 1219 1495 1546 2149 2402 2271 1841 1437 1163 760 60 2 0 0 0 0 7 3 4 37 150 18 0 1 2 4 3 0
80 34 7 0 0 0 0 0 0 0 0 0 0 0 7 293 584 594 651 1011 831 704 852 1585 2124 2377 2149 1726 1512 1140 452 4 0 0 0 0 189 81 15 77 220 22 0 0 0 1 4 3 0
17 43 9 0 0 0 0 0 0 0 0 0 0 0 115 423 601 675 660 900 923 710 1131 1845 2272 2250 1991 1765 1559 1099 277 0 0 0 0 16 121 189 153 46 92 43 6 0 0 1 5 1 0
42 19 0 0 0 0 0 0 0 0 0 0 0 68 424 631 516 453 842 1102 986 907 1209 1763 2242 2159 1935 1497 1173 1076 767 31 6 0 0 35 96 73 75 11 12 1 0 0 0 2 2 0 0
17 16 0 0 0 0 0 0 0 0 0 0 10 177 552 732 482 636 755 1051 992 996 1254 1576 2019 1963 1399 1188 924 984 781 473 29 0 0 9 105 22 1 1 0 0 0 0 0 2 2 0 0
2 0 0 0 0 0 0 0 0 0 0 0 0 315 807 920 557 634 761 1289 1216 1092 963 1114 1286 1212 908 746 675 770 743 422 124 25 0 49 86 66 1 0 0 0 0 0 0 1 0 0 0
47 4 0 0 0 0 23 10 0 0 0 0 0 132 613 1015 972 833 755 1204 1113 870 573 527 510 466 465 436 457 526 329 195 123 44 17 0 0 21 44 35 43 2 3 11 52 43 0 0 0
17 33 0 0 0 2 29 11 2 0 0 0 21 319 983 860 1042 1000 848 732 789 610 463 234 152 168 178 263 261 287 126 103 63 29 5 0 0 0 0 0 14 88 133 130 108 3 0 0 0
52 0 0 0 1 4 5 2 0 0 0 0 52 987 1021 844 572 1016 933 832 677 498 445 236 162 135 190 182 152 176 130 88 27 17 17 0 0 0 0 0 0 86 151 194 108 2 0 0 0
2 0 0 7 0 1 0 0 0 0 0 0 7 435 549 709 572 355 907 916 812 530 374 303 253 181 152 225 137 113 140 114 47 25 32 0 0 0 0 2 7 20 56 119 47 4 0 0 0
0 0 0 27 22 0 0 0 0 0 0 0 0 92 269 225 369 545 491 357 854 691 571 455 293 283 268 218 147 63 52 74 59 27 41 0 0 0 3 2 2 3 13 58 24 1 0 0 0
2 0 16 51 31 3 0 0 2 0 0 0 0 0 6 94 202 273 508 536 591 589 694 541 485 290 157 99 52 0 0 4 97 55 81 36 0 0 10 27 4 0 4 25 32 22 2 0 0
0 2 2 10 31 15 9 8 13 21 0 0 0 0 0 0 0 85 323 423 537 665 477 466 594 486 332 148 87 0 0 0 107 102 131 53 11 0 7 29 43 16 16 13 32 47 35 8 0
0 39 17 0 0 0 0 1 0 24 0 0 0 0 0 0 0 0 7 298 335 562 502 479 334 545 507 463 209 0 0 0 122 95 81 56 0 0 0 21 45 49 42 40 23 28 64 65 35
28 27 0 0 0 0 0 0 0 4 0 0 0 0 0 0 0 0 0 0 0 100 456 597 629 469 328 646 574 214 154 235 96 107 148 174 143 86 12 21 34 47 59 52 42 12 52 48 35
43 0 0 0 0 0 0 0 0 0 0 0 0 0 0 0 0 0 0 0 0 0 0 286 729 688 577 430 588 730 348 304 468 315 226 239 259 282 199 72 38 44 47 70 78 66 33 25 32
0 0 0 0 0 0 0 0 0 0 0 0 0 0 0 0 0 0 0 0 0 0 0 0 0 202 670 648 593 655 666 477 438 540 493 414 376 399 353 316 238 115 56 46 85 103 93 59 30
0 0 0 0 0 0 0 0 0 0 0 0 0 0 0 0 0 0 0 0 0 0 0 0 0 0 0 0 9 562 699 653 459 385 693 688 690 436 489 425 406 335 230 158 102 103 133 137 114
0 0 0 0 0 0 0 0 0 0 0 0 0 0 0 0 0 0 0 0 0 0 0 0 0 0 0 0 0 0 351 593 595 566 438 311 307 527 475 387 471 360 329 295 205 137 154 192 190
0 0 0 0 0 0 0 0 0 0 0 0 0 0 0 0 0 0 0 0 0 0 0 0 0 0 0 0 0 0 0 0 236 449 474 428 293 132 144 471 508 527 447 278 240 189 145 146 140
0 0 0 0 0 0 0 0 0 0 0 0 0 0 0 0 0 0 0 0 0 0 0 0 0 0 0 0 0 0 0 0 0 0 25 235 308 253 269 169 264 388 372 502 433 245 157 201 152
0 5 3 0 0 0 0 0 0 0 0 0 0 0 0 0 0 0 0 0 0 0 0 0 0 0 0 0 0 0 0 0 0 0 0 0 0 242 510 494 358 292 184 310 397 541 526 439 286
0 11 19 7 0 0 0 0 0 0 0 0 0 0 0 0 0 0 0 0 0 0 0 0 0 0 0 0 0 0 0 0 0 0 0 0 0 0 0 278 374 402 420 278 223 163 276 452 458
0 0 0 0 0 0 0 0 0 0 0 0 0 0 0 0 0 0 0 0 0 0 0 0 0 0 0 0 0 0 0 0 0 0 0 0 0 0 0 0 20 111 227 279 284 189 229 256 419
0 0 0 0 0 0 0 0 0 0 0 0 0 0 0 0 0 0 0 0 0 0 0 0 0 0 0 0 0 0 0 0 0 0 0 0 0 0 0 0 0 0 21 82 159 194 199 279 301
0 0 0 0 0 0 0 0 0 0 0 0 0 0 0 0 0 0 0 0 0 0 0 0 0 0 0 0 0 0 0 0 0 0 0 0 0 0 0 0 0 0 13 58 75 161 107 199 272
0 0 0 0 0 0 0 0 0 0 0 0 0 0 0 0 0 0 0 0 0 0 0 0 0 0 0 0 0 0 0 0 0 0 0 0 0 0 0 0 0 0 0 0 4 11 19 48 132
0 0 0 1 0 0 0 0 0 0 0 0 0 0 0 0 0 0 0 0 0 0 0 0 0 0 0 0 0 0 0 0 0 0 0 0 0 0 0 0 0 0 0 0 0 0 2 3 11
0 0 0 0 0 0 0 0 0 0 0 0 0 0 0 0 0 0 0 0 0 0 0 0 0 0 0 0 0 0 0 0 0 0 0 0 0 0 0 0 0 0 0 0 0 0 2 3 9

GFSSGP_con_mucape_060.txt.gz
CAPE
73 0 0 0 0 0 0 0 0 0 0 0 0 14 56 18 84 4 277 463 1162 1748 1979 2123 2379 2393 2298 1936 1643 1607 1310 1168 946 348 19 0 0 1 0 0 90 57 1 2 2 4 3 0 0
51 6 0 0 0 0 0 0 0 0 0 0 0 20 52 418 257 582 507 908 1299 1773 1907 1945 2431 2405 2185 1898 1513 1245 646 199 95 9 0 0 8 2 4 3 191 18 1 1 1 2 2 0 0
61 3 0 0 0 0 0 0 0 0 0 0 0 0 92 509 389 566 726 868 1337 1514 1508 1792 2354 2288 2080 1636 1408 852 163 1 0 0 0 86 90 7 2 208 170 0 0 0 0 0 0 0 0
54 27 0 0 0 0 0 0 0 0 0 0 0 74 265 356 482 660 886 885 969 1096 1208 1546 2217 2219 1941 1729 1292 653 39 0 0 0 0 456 424 86 467 255 2 0 0 0 0 1 0 0 0
31 8 0 0 0 0 0 0 0 0 0 0 0 153 496 493 765 921 1028 817 598 913 1305 1426 2117 2128 1874 1726 1240 775 112 8 0 0 119 413 123 277 153 54 0 0 0 0 0 0 0 0 0
15 3 0 0 0 0 0 0 0 0 0 67 276 402 552 408 540 920 992 970 835 939 1312 1596 1944 1807 1746 1547 1321 894 502 40 5 0 117 151 126 116 138 42 0 0 0 0 1 1 0 0 0
3 0 0 0 0 1 4 0 0 0 0 0 101 309 595 580 610 1109 1143 1024 966 1098 1338 1571 1515 1337 854 890 874 825 709 240 67 27 91 196 149 109 68 32 21 0 0 0 1 31 15 0 0
2 0 0 0 0 0 4 2 1 0 0 23 56 410 800 760 786 975 1150 1030 947 1000 1135 1273 1266 869 536 426 477 533 580 243 101 66 64 23 41 47 79 55 57 43 41 44 60 60 0 0 0
16 0 0 0 0 1 0 0 0 0 0 0 32 353 865 925 818 1259 1260 1204 1129 813 731 803 796 613 393 307 192 228 137 114 80 48 14 12 6 11 12 0 22 82 115 113 102 48 0 0 0
31 0 0 0 0 2 0 2 0 0 8 147 837 872 1032 1010 907 959 1367 1182 927 564 389 409 277 276 267 295 185 151 67 59 38 11 0 0 6 11 9 6 20 102 147 162 145 36 13 0 0
39 0 0 0 0 0 12 11 0 0 1 72 608 942 769 900 967 903 842 857 802 552 426 249 180 134 157 197 173 135 70 46 35 0 2 0 0 0 1 6 13 39 76 100 121 27 0 0 0
10 0 0 3 1 0 10 23 0 0 0 0 318 788 485 284 343 848 956 814 724 497 486 313 250 225 163 155 91 121 100 77 37 9 10 11 0 0 0 0 9 20 41 55 81 19 0 0 0
17 0 0 3 6 0 0 2 4 0 0 0 87 497 406 378 304 309 218 864 830 650 476 350 305 316 197 210 179 160 80 87 39 0 0 0 0 0 0 3 17 5 13 30 58 25 7 1 0
23 1 37 24 0 59 0 0 0 0 0 62 146 56 34 120 208 356 500 410 521 773 694 586 410 378 348 324 271 154 17 0 5 46 26 23 0 0 0 2 29 36 6 1 20 16 14 14 4
0 36 26 0 0 0 7 0 0 0 0 0 0 0 0 0 0 136 313 424 554 627 496 676 603 464 336 210 136 81 50 0 0 24 70 96 47 32 28 0 12 29 25 17 13 6 19 36 51
12 42 0 0 0 0 13 0 0 0 0 4 0 0 0 0 0 0 0 267 266 470 642 504 343 531 511 393 257 123 90 0 0 19 100 96 130 111 70 27 0 8 8 24 36 48 39 30 63
23 0 0 0 0 0 0 0 0 4 1 11 4 0 0 0 0 0 0 0 0 15 254 459 506 557 493 446 519 411 257 28 133 38 133 125 144 169 153 168 68 3 9 19 28 38 46 56 42
0 0 0 0 0 0 0 0 0 0 0 0 0 0 0 0 0 0 0 0 0 0 0 18 417 573 625 576 358 527 620 489 167 380 286 222 198 211 215 225 207 153 95 56 35 41 58 72 105
0 0 0 0 0 0 0 0 0 0 0 0 0 0 0 0 0 0 0 0 0 0 0 0 0 0 1 263 485 516 488 674 624 402 390 467 378 343 260 210 268 286 158 129 137 121 86 94 127
0 0 0 0 0 0 0 0 0 0 0 0 0 0 0 0 0 0 0 0 0 0 0 0 0 0 0 0 0 0 123 352 534 607 498 314 293 310 345 302 178 225 284 281 195 217 138 100 96
0 0 0 0 0 0 0 0 0 0 0 0 0 0 0 0 0 0 0 0 0 0 0 0 0 0 0 0 0 0 0 0 6 82 199 231 286 356 277 175 108 218 272 291 316 295 243 169 117
0 0 0 0 0 0 0 0 0 0 0 0 0 0 0 0 0 0 0 0 0 0 0 0 0 0 0 0 0 0 0 0 0 0 0 0 0 18 102 156 136 109 161 255 229 209 209 149 104
4 0 0 0 0 0 0 0 0 0 0 0 0 0 0 0 0 0 0 0 0 0 0 0 0 0 0 0 0 0 0 0 0 0 0 0 0 0 0 0 126 229 122 129 106 129 170 202 198
8 0 0 0 0 0 0 0 0 0 0 0 0 0 0 0 0 0 0 0 0 0 0 0 0 0 0 0 0 0 0 0 0 0 0 0 0 0 0 0 0 23 172 95 123 109 79 95 98
1 0 0 0 0 0 0 0 0 0 0 0 0 0 0 0 0 0 0 0 0 0 0 0 0 0 0 0 0 0 0 0 0 0 0 0 0 0 0 0 0 0 0 0 75 104 73 67 69
0 0 0 0 0 0 0 0 0 0 0 0 0 0 0 0 0 0 0 0 0 0 0 0 0 0 0 0 0 0 0 0 0 0 0 0 0 0 0 0 0 0 0 0 0 1 37 46 42
0 0 0 0 0 0 0 0 0 0 0 0 0 0 0 0 0 0 0 0 0 0 0 0 0 0 0 0 0 0 0 0 0 0 0 0 0 0 0 0 0 0 0 0 0 0 13 26 0
0 0 0 0 0 0 0 0 0 0 0 0 0 0 0 0 0 0 0 0 0 0 0 0 0 0 0 0 0 0 0 0 0 0 0 0 0 0 0 0 0 0 0 0 0 0 0 0 0
0 0 0 0 0 0 0 0 0 0 0 0 0 0 0 0 0 0 0 0 0 0 0 0 0 0 0 0 0 0 0 0 0 0 0 0 0 0 0 0 0 0 0 0 0 0 0 0 0
0 0 0 0 0 0 0 0 0 0 0 0 0 0 0 0 0 0 0 0 0 0 0 0 0 0 0 0 0 0 0 0 0 0 0 0 0 0 0 0 0 0 0 0 0 0 0 0 0

GFSSGP_con_mucape_063.txt.gz
CAPE
49 0 0 0 0 0 0 0 0 0 0 0 5 0 0 44 0 0 245 675 974 1623 1901 1960 2259 2286 2250 1981 1655 1664 1463 1251 864 310 6 0 1 0 0 76 32 3 1 0 1 1 0 0 0
28 9 0 0 0 0 0 0 0 0 0 23 82 69 130 218 249 360 551 865 1344 1647 1860 1879 2379 2367 2010 1673 1475 1162 589 337 188 22 0 0 0 0 0 177 42 0 0 0 0 2 0 0 0
63 41 0 0 0 0 0 0 0 0 0 0 2 56 241 383 473 453 488 1243 1497 1595 1743 1910 2348 2244 2024 1618 1143 500 185 79 12 0 0 35 2 1 0 324 1 0 0 0 0 0 0 0 0
33 37 0 0 0 0 0 0 0 0 0 0 3 150 375 439 571 505 1015 1498 1455 1557 1653 2073 2172 2220 1937 1570 1007 318 56 1 0 0 96 553 0 2 438 228 0 0 0 0 0 0 0 0 0
57 21 0 0 0 0 0 0 0 0 0 0 0 287 390 544 546 869 1110 1244 1211 1310 1357 1738 2197 2147 1883 1418 945 513 42 6 0 13 459 674 304 463 477 39 0 0 0 0 0 0 0 0 0
45 17 0 0 0 0 0 0 0 0 0 112 211 318 393 530 872 931 893 878 953 1028 1213 1426 1839 1857 1812 1458 1024 640 76 18 0 55 414 238 202 309 168 35 0 0 0 0 0 0 0 0 0
6 1 0 0 0 0 0 0 0 0 0 7 164 413 469 509 1070 1075 888 903 810 1098 1162 1242 1359 1381 1445 1315 988 724 393 102 39 94 404 403 186 162 121 67 40 5 0 0 0 0 0 0 0
10 0 0 0 0 1 0 0 0 0 0 40 155 312 566 597 973 1069 1051 917 964 1175 1234 1191 1243 982 750 776 712 546 419 155 65 52 144 103 77 90 98 77 80 61 24 11 32 45 25 0 0
35 0 0 0 0 2 0 0 0 0 0 1 60 514 658 720 991 1139 1173 945 992 1070 1099 1057 1039 807 429 248 302 403 242 84 55 33 40 87 44 42 41 22 30 72 83 58 61 76 21 0 0
63 0 0 0 0 4 5 10 3 0 0 90 754 774 838 823 1078 1221 1212 1044 1041 955 870 934 920 734 374 223 185 151 92 51 30 17 10 14 26 25 17 10 14 56 109 122 120 102 26 1 0
36 1 0 0 0 0 1 10 15 0 0 20 338 1014 1007 915 1159 1215 1189 1147 1087 784 602 753 787 538 368 295 154 90 51 42 31 16 0 0 6 9 8 0 11 35 63 73 121 80 17 0 0
85 1 2 9 12 0 0 5 15 0 0 0 24 903 934 964 1171 1405 1361 1286 992 671 435 391 395 293 308 260 203 119 45 35 15 1 0 0 0 0 0 0 0 10 22 50 66 62 17 1 0
59 6 25 35 0 0 0 6 8 0 0 0 0 595 645 818 897 895 1206 1081 917 691 506 359 283 254 157 194 181 115 55 40 9 0 0 0 0 0 0 0 0 0 0 21 37 55 22 9 0
76 27 65 37 8 29 0 10 13 1 0 0 36 514 304 184 201 504 880 876 803 716 558 477 381 340 283 179 147 102 95 66 62 37 0 0 0 0 0 0 0 0 14 4 6 24 23 2 0
96 35 13 20 17 0 0 0 0 0 0 2 69 201 125 193 217 266 298 327 720 843 739 625 483 406 395 302 241 198 205 82 35 1 26 42 23 31 27 28 11 0 14 18 13 1 0 0 0
82 28 22 10 0 0 0 0 0 2 0 0 47 1 0 0 0 17 258 402 356 505 716 731 722 627 494 394 344 304 265 63 0 0 0 10 72 75 89 90 59 42 0 7 22 18 10 11 1
30 1 0 0 4 0 0 0 0 0 0 0 0 0 0 0 0 0 0 45 291 302 476 579 526 462 486 546 429 370 304 184 125 22 0 0 86 98 108 139 137 130 109 49 5 0 0 0 16
0 0 0 0 0 0 0 0 0 0 0 0 0 0 0 0 0 0 0 0 0 0 67 202 425 481 514 411 557 496 434 367 324 249 147 111 89 132 132 162 197 215 228 176 119 63 48 33 29
0 0 0 0 0 0 0 0 0 0 0 0 0 0 0 0 0 0 0 0 0 0 0 0 51 302 408 542 566 522 358 518 624 494 299 319 351 304 270 313 261 248 192 195 143 56 53 47 62
0 0 0 0 0 0 0 0 0 0 0 0 0 0 0 0 0 0 0 0 0 0 0 0 0 0 0 0 11 214 399 429 443 551 641 544 407 324 274 270 250 179 157 115 130 163 178 114 114
0 0 0 0 0 1 1 0 0 0 0 0 0 0 0 0 0 0 0 0 0 0 0 0 0 0 0 0 0 0 0 0 0 0 68 120 210 323 215 286 290 189 139 0 53 170 223 188 163
1 0 0 0 0 0 0 0 0 0 0 0 0 0 0 0 0 0 0 0 0 0 0 0 0 0 0 0 0 0 0 0 0 0 0 0 0 0 0 8 99 127 129 115 71 105 180 142 99
0 0 0 0 0 0 0 0 0 0 0 0 0 0 0 0 0 0 0 0 0 0 0 0 0 0 0 0 0 0 0 0 0 0 0 0 0 0 0 0 0 0 98 191 126 67 61 77 58
0 1 0 0 0 0 0 0 0 0 0 0 0 0 0 0 0 0 0 0 0 0 0 0 0 0 0 0 0 0 0 0 0 0 0 0 0 0 0 0 0 0 0 13 139 105 89 79 65
9 0 0 0 0 0 0 0 0 0 0 0 0 0 0 0 0 0 0 0 0 0 0 0 0 0 0 0 0 0 0 0 0 0 0 0 0 0 0 0 0 0 0 0 14 60 71 65 58
9 0 0 0 0 0 0 0 0 0 0 0 0 0 0 0 0 0 0 0 0 0 0 0 0 0 0 0 0 0 0 0 0 0 0 0 0 0 0 0 0 0 0 0 0 15 29 54 54
13 0 0 0 0 0 0 0 0 0 0 0 0 0 0 0 0 0 0 0 0 0 0 0 0 0 0 0 0 0 0 0 0 0 0 0 0 0 0 0 0 0 0 0 0 3 11 8 10
0 9 0 0 0 0 0 0 0 0 0 0 0 0 0 0 0 0 0 0 0 0 0 0 0 0 0 0 0 0 0 0 0 0 0 0 0 0 0 0 0 0 0 0 0 0 0 0 0
0 0 0 0 0 0 0 0 0 0 0 0 0 0 0 0 0 0 0 0 0 0 0 0 0 0 0 0 0 0 0 0 0 0 0 0 0 0 0 0 0 0 0 0 0 0 0 0 0
0 0 0 0 0 0 0 0 0 0 0 0 0 0 0 0 0 0 0 0 0 0 0 0 0 0 0 0 0 0 0 0 0 0 0 0 0 0 0 0 0 0 0 0 0 0 0 0 0

GFSSGP_con_mucape_066.txt.gz
CAPE
185 0 0 0 0 0 0 0 2 8 0 0 13 1 0 18 0 0 188 605 846 1346 1815 1876 2233 2244 2275 2013 1552 1476 1232 1213 628 225 35 3 0 2 94 4 1 1 0 0 4 3 0 0 0
203 0 0 0 0 0 0 0 0 6 0 18 20 55 60 181 248 347 561 705 1150 1594 1749 1660 2272 2390 2108 1739 1423 1334 876 512 241 11 0 0 1 0 191 108 2 1 0 0 3 0 0 0 0
137 6 0 0 0 0 0 0 0 0 0 23 0 59 209 253 390 466 493 1120 1479 1593 1676 1867 2371 2254 1936 1546 1200 650 455 275 50 0 0 2 2 0 408 138 0 0 0 0 1 0 0 0 0
25 4 0 0 0 0 0 0 0 0 0 0 3 135 385 347 463 497 1195 1418 1400 1494 1698 2080 2149 2228 1881 1328 954 362 116 37 12 0 189 3 3 0 429 87 0 0 0 0 0 0 0 0 0
56 12 0 0 0 0 0 0 0 0 0 0 33 199 370 466 504 1070 1422 1332 1117 1414 1719 1904 2260 2101 1714 1222 879 387 26 22 11 133 568 177 64 285 411 38 0 0 0 0 0 0 0 0 0
34 14 0 0 0 0 0 0 0 0 0 4 204 318 325 525 859 1233 1286 1170 1111 1342 1573 1710 1987 1865 1474 1062 812 471 39 13 29 336 628 726 703 689 170 32 0 0 0 0 0 0 0 0 0
17 0 0 0 0 0 0 0 0 0 0 0 131 273 324 663 918 1133 1169 1112 1140 1107 1267 1371 1489 1503 1306 1033 859 590 228 53 60 359 538 383 383 284 128 56 40 22 0 0 12 28 0 0 0
15 20 0 0 0 0 0 0 0 0 0 2 192 155 361 786 996 960 904 966 983 1099 1206 1024 1016 1130 1113 781 615 461 285 74 51 178 204 95 87 118 130 78 82 75 40 24 41 54 38 0 0
47 6 0 0 0 0 0 0 0 0 0 63 424 383 486 1071 1091 950 966 813 894 1068 1038 916 932 848 777 637 422 340 146 57 28 36 82 72 54 55 52 28 30 67 73 47 62 65 29 0 0
117 43 0 0 0 13 14 0 0 0 0 52 26 665 667 965 1111 1147 1073 1205 922 916 997 877 881 688 505 427 313 169 56 23 20 4 19 65 43 33 36 30 25 49 82 84 72 94 38 3 0
83 2 0 0 21 45 32 6 14 0 0 0 0 304 720 1265 1115 1320 1406 1170 1015 882 813 822 831 718 428 236 230 147 56 38 33 8 0 2 6 10 6 4 5 22 41 49 64 84 33 2 0
83 12 7 68 34 0 10 4 0 18 0 0 0 26 486 874 1109 1185 1268 1269 1028 950 726 629 713 752 564 355 216 105 54 40 22 0 0 0 0 0 0 0 0 0 12 28 28 43 28 4 0
46 7 28 43 0 0 0 3 5 17 2 0 0 50 164 559 911 1080 1129 1150 1172 966 610 476 610 683 523 388 256 149 88 46 25 10 0 0 0 0 0 0 0 0 0 0 0 5 13 2 0
27 28 20 41 0 4 0 0 6 3 2 0 0 19 277 476 619 944 1143 1328 1276 922 652 419 332 324 267 301 237 213 128 72 47 30 0 0 0 0 0 0 0 0 0 0 0 0 0 0 0
79 105 100 63 5 25 0 0 0 3 0 0 0 19 147 174 256 682 860 1139 1160 931 745 601 468 378 339 296 170 178 126 107 95 51 34 16 0 0 0 0 0 0 0 0 0 0 0 0 0
60 59 54 33 1 1 0 0 0 2 0 0 3 0 1 81 133 192 300 590 842 852 816 723 633 533 465 403 353 267 226 207 190 82 31 0 0 29 5 37 50 49 23 3 0 0 0 0 0
50 5 0 0 9 0 0 0 0 0 0 0 28 14 0 0 0 3 148 316 391 423 560 692 718 707 693 611 495 404 356 318 260 147 72 16 0 0 11 38 70 99 94 97 107 118 74 48 35
0 1 2 0 0 0 0 0 0 0 0 0 31 1 0 0 0 0 0 0 119 326 307 453 572 533 487 433 469 496 480 465 374 263 226 179 30 5 0 71 119 134 160 185 197 165 121 62 51
0 0 0 0 0 0 0 0 0 0 0 0 0 0 0 0 0 0 0 0 0 0 0 9 191 470 526 475 497 439 555 564 472 438 421 399 295 214 244 243 195 198 240 189 127 116 104 95 76
0 0 0 0 0 0 0 0 0 0 0 0 0 0 0 0 0 0 0 0 0 0 0 0 0 9 110 265 417 532 552 561 430 409 499 542 475 471 367 351 342 280 225 111 111 104 73 51 70
0 0 0 0 0 4 0 0 0 0 0 0 0 0 0 0 0 0 0 0 0 0 0 0 0 0 0 0 0 0 0 1 40 122 168 151 289 366 337 383 328 289 289 249 170 112 49 21 63
0 0 0 0 0 0 0 0 0 0 0 0 0 0 0 0 0 0 0 0 0 0 0 0 0 0 0 0 0 0 0 0 0 0 0 0 0 0 0 0 0 0 27 146 151 103 89 38 29
0 0 0 0 12 1 0 0 0 0 0 0 0 0 0 0 0 0 0 0 0 0 0 0 0 0 0 0 0 0 0 0 0 0 0 0 0 0 0 0 0 0 3 2 2 134 134 40 41
0 0 0 3 0 0 0 0 0 0 0 0 0 0 0 0 0 0 0 0 0 0 0 0 0 0 0 0 0 0 0 0 0 0 0 0 0 0 0 0 0 0 0 0 1 2 97 76 59
12 0 0 0 0 0 0 0 0 0 0 0 0 0 0 0 0 0 0 0 0 0 0 0 0 0 0 0 0 0 0 0 0 0 0 0 0 0 0 0 0 0 0 0 0 0 6 62 72
0 0 0 0 0 0 0 0 0 0 0 0 0 0 0 0 0 0 0 0 0 0 0 0 0 0 0 0 0 0 0 0 0 0 0 0 0 0 0 0 0 0 0 0 1 2 11 40 47
10 0 0 0 0 0 0 0 0 0 0 0 0 0 0 0 0 0 0 0 0 0 0 0 0 0 0 0 0 0 0 0 0 0 0 0 0 0 0 0 0 0 0 0 0 1 5 29 4
5 0 0 0 0 0 0 0 0 0 0 0 0 0 0 0 0 0 0 0 0 0 0 0 0 0 0 0 0 0 0 0 0 0 0 0 0 0 0 0 0 0 0 0 0 0 0 1 0
1 0 0 0 0 0 0 0 0 0 0 0 0 0 0 0 0 0 0 0 0 0 0 0 0 0 0 0 0 0 0 0 0 0 0 0 0 0 0 0 0 0 0 0 0 0 0 0 0
0 0 0 0 0 0 0 0 0 0 0 0 0 0 0 0 0 0 0 0 0 0 0 0 0 0 0 0 0 0 0 0 0 0 0 0 0 0 0 0 0 0 0 0 0 0 0 0 0

GFSSGP_con_mucape_069.txt.gz
CAPE
317 0 0 0 0 0 0 0 12 3 0 0 23 0 0 23 0 0 46 436 478 1302 1712 1771 2298 2319 2211 2028 1499 1410 1441 1068 476 192 33 1 3 171 20 1 2 0 1 7 7 1 1 0 0
334 0 0 0 0 0 0 0 2 0 0 0 17 31 55 191 259 341 555 671 918 1513 1511 1559 2281 2391 2305 1885 1430 1334 1358 496 180 11 0 0 0 141 137 3 2 0 1 5 3 1 1 2 0
82 0 0 0 0 0 0 0 0 0 0 0 1 45 145 249 330 457 433 1059 1289 1560 1468 1600 2297 2349 2153 1818 1513 959 556 260 17 0 0 0 0 265 360 5 0 0 0 2 0 0 1 0 0
2 0 0 0 0 0 0 0 0 0 0 2 0 227 293 270 427 457 1041 1345 1478 1477 1482 1789 2195 2202 1977 1484 1155 646 384 156 0 115 68 0 0 366 330 32 0 0 0 0 0 0 0 0 0
3 0 0 0 0 0 0 0 0 0 0 0 12 132 301 409 388 1129 1345 1434 1195 1397 1653 1752 2083 1968 1539 1223 934 522 67 7 32 279 324 99 53 455 214 0 0 0 0 0 0 0 0 0 0
97 0 0 0 0 0 0 0 0 0 0 0 121 265 347 497 1594 1881 1373 1241 959 1387 1784 1659 1785 1720 1365 1125 800 436 34 20 336 894 690 371 362 572 121 24 3 0 0 2 3 0 0 0 0
149 7 0 0 0 0 0 0 0 0 0 0 134 315 311 780 1674 1912 1584 975 1177 1625 1670 1697 1540 1183 980 887 715 462 151 65 377 513 704 886 743 377 101 48 32 19 0 18 29 30 0 0 0
79 53 0 0 0 0 0 0 0 0 0 111 227 86 365 714 1785 1800 1246 1024 1346 1483 1385 1518 1484 1162 787 512 436 300 113 50 230 273 82 53 86 124 149 57 63 52 24 22 42 48 32 14 3
52 51 0 0 0 0 8 0 0 0 0 46 135 370 345 816 1405 1063 1046 1134 1098 1172 1306 1155 1193 1186 881 580 313 164 56 24 35 83 72 64 88 82 51 27 29 45 40 33 50 54 30 2 0
182 77 0 0 0 5 14 3 0 0 2 61 0 393 605 993 1007 1451 1365 1265 1033 1076 1349 1021 952 863 858 573 422 269 58 15 1 23 82 70 50 55 45 28 20 35 53 51 56 66 30 0 0
94 36 0 0 59 67 27 17 8 0 0 7 11 63 693 1343 1239 950 1102 979 1046 1278 1451 897 868 633 552 503 432 288 96 23 18 2 0 8 11 13 15 12 13 25 21 40 41 48 39 3 0
75 41 23 100 73 5 5 8 12 0 0 0 0 5 829 1432 1600 1073 922 814 629 682 890 821 707 685 553 372 339 263 104 40 27 0 0 0 0 0 0 0 0 0 13 29 28 25 26 4 0
18 60 35 101 7 0 5 4 13 7 1 2 0 15 248 517 659 819 716 783 880 915 792 787 637 682 644 429 342 229 95 53 41 18 0 0 0 0 0 0 0 0 0 0 2 2 2 1 0
25 50 70 100 60 22 13 0 7 5 0 0 16 62 85 245 389 423 581 797 1037 1120 930 618 529 611 699 626 444 284 148 90 44 26 10 0 0 0 0 0 0 0 0 0 0 0 0 0 0
41 51 65 94 81 49 3 0 0 0 0 0 10 51 49 111 153 310 445 643 822 1115 929 655 442 490 536 428 417 304 215 152 88 52 32 24 0 0 0 0 0 0 0 0 0 0 0 0 0
69 54 36 73 89 5 4 0 0 7 0 0 0 4 33 57 54 85 215 606 796 1031 1027 782 615 493 409 367 335 238 175 161 129 113 84 53 21 0 0 0 21 17 12 0 1 2 0 0 0
56 5 5 24 33 1 0 0 0 0 1 4 0 0 0 0 18 31 94 200 451 831 851 807 742 674 597 552 489 429 380 337 276 232 189 108 36 1 0 0 6 38 42 54 50 52 66 91 74
0 0 1 1 18 13 0 0 0 0 1 7 0 0 0 0 0 0 2 78 312 374 418 532 670 681 663 686 661 569 483 408 368 329 280 165 105 79 18 0 27 54 81 104 119 112 106 81 38
0 0 0 0 0 0 0 0 0 0 0 0 0 0 0 0 0 0 0 0 0 103 225 237 473 579 532 533 455 441 446 447 482 497 433 330 231 235 217 106 146 173 96 93 119 99 82 32 35
0 5 0 0 0 0 2 0 0 0 0 0 0 0 0 0 0 0 0 0 0 0 0 0 1 148 431 502 498 462 479 465 486 503 435 332 397 397 374 321 361 304 294 295 237 177 79 47 102
9 0 0 0 2 7 0 0 0 0 0 0 0 0 0 0 0 0 0 0 0 0 0 0 0 0 0 24 118 198 247 277 222 182 161 165 205 249 304 387 374 359 367 265 283 220 184 134 62
0 0 0 0 0 0 0 0 0 0 0 0 0 0 0 0 0 0 0 0 0 0 0 0 0 0 0 0 0 0 0 0 0 0 0 0 0 0 0 0 0 0 2 4 6 141 165 78 54
0 0 0 0 0 0 0 0 0 0 0 0 0 0 0 0 0 0 0 0 0 0 0 0 0 0 0 0 0 0 0 0 0 0 0 0 0 0 0 0 0 0 0 2 2 1 5 99 91
8 0 2 3 5 0 0 0 0 0 0 0 0 0 0 0 0 0 0 0 0 0 0 0 0 0 0 0 0 0 0 0 0 0 0 0 0 0 0 0 0 0 0 1 1 1 2 4 46
6 15 0 0 0 0 0 0 0 0 0 0 0 0 0 0 0 0 0 0 0 0 0 0 0 0 0 0 0 0 0 0 0 0 0 0 0 0 0 0 0 0 0 0 1 2 4 4 41
5 4 0 0 0 0 0 0 0 0 0 0 0 0 0 0 0 0 0 0 0 0 0 0 0 0 0 0 0 0 0 0 0 0 0 0 0 0 0 0 0 0 0 0 0 0 2 20 36
0 0 0 0 0 0 0 0 0 0 0 0 0 0 0 0 0 0 0 0 0 0 0 0 0 0 0 0 0 0 0 0 0 0 0 0 0 0 0 0 0 0 0 0 0 0 1 3 2
2 0 0 0 0 0 0 0 0 0 0 0 0 0 0 0 0 0 0 0 0 0 0 0 0 0 0 0 0 0 0 0 0 0 0 0 0 0 0 0 0 0 0 0 0 0 0 2 2
1 0 0 0 0 0 0 0 0 0 0 0 0 0 0 0 0 0 0 0 0 0 0 0 0 0 0 0 0 0 0 0 0 0 0 0 0 0 0 0 0 0 0 0 0 0 0 0 0
0 0 0 0 0 0 0 0 0 0 0 0 0 0 0 0 0 0 0 0 0 0 0 0 0 0 0 0 0 0 0 0 0 0 0 0 0 0 0 0 0 0 0 0 0 0 0 0 0

GFSSGP_con_mucape_072.txt.gz
CAPE
416 37 0 0 0 0 0 0 0 2 0 0 10 4 76 72 0 94 486 685 601 800 1318 1805 2232 2340 2268 1900 1318 1180 1135 760 269 126 43 51 271 73 35 4 0 3 12 12 8 7 5 1 0
373 0 0 0 0 0 0 0 7 2 0 0 2 10 15 252 569 706 602 760 728 1118 1560 1510 2323 2414 2164 1572 1280 1200 778 354 168 72 0 28 262 175 87 4 0 2 5 7 8 6 2 1 0
224 0 0 0 0 0 0 0 0 2 0 0 4 163 252 581 776 603 721 795 918 1343 1198 1766 2407 2352 2108 1582 1453 1511 552 166 8 0 0 0 232 436 133 0 0 1 6 2 5 4 0 0 0
126 0 0 0 0 0 0 0 0 0 0 0 2 296 559 566 771 771 1042 904 1077 1223 1045 1736 2235 2304 2015 1762 1278 700 452 162 8 98 1 0 246 567 101 0 0 0 1 0 1 0 0 0 1
120 3 0 0 0 0 0 0 0 0 0 0 6 279 657 849 768 1176 1088 971 1190 991 1305 1594 2250 2200 1681 1400 1038 547 240 87 231 291 94 97 283 551 67 0 0 0 0 0 0 1 0 0 0
191 27 0 0 0 0 0 0 0 0 0 1 90 424 708 863 1178 1265 1086 1111 1037 1104 1252 1428 1738 1651 1382 1142 772 350 78 82 491 721 311 249 793 363 63 9 0 0 0 0 0 0 0 0 0
202 68 0 3 0 0 0 0 0 0 0 5 337 383 868 1039 1449 1793 1104 1155 1026 1280 1102 1598 1420 1085 977 831 627 424 239 385 532 1126 860 852 741 357 96 48 35 11 28 40 30 14 12 4 0
169 117 81 5 0 0 0 0 0 0 0 54 315 380 873 1090 1815 1585 1419 1152 1259 1199 1210 1640 1343 1001 698 311 354 217 116 254 427 288 241 211 115 125 145 79 66 35 26 47 47 32 20 9 0
114 222 131 24 0 0 3 13 0 0 0 65 117 137 285 618 1668 1976 1649 1187 1113 1318 1324 1227 1090 950 812 523 205 51 26 51 150 48 33 36 90 98 66 31 25 36 25 23 35 39 11 0 0
187 155 28 9 11 0 19 27 0 0 0 0 20 64 764 917 1724 1733 1347 1291 1243 1325 1353 1327 1114 1020 841 559 355 336 38 1 1 29 59 49 76 79 68 34 14 24 32 25 32 46 18 0 0
103 16 67 94 18 99 63 55 9 0 0 0 0 52 917 1401 1125 1188 1087 1200 948 1013 1199 1295 1195 1141 953 694 641 502 300 108 44 30 33 0 0 15 21 30 44 57 12 48 22 22 7 0 0
151 60 128 49 58 34 60 52 29 11 0 0 0 28 614 1069 1391 1573 1273 1186 1039 861 1311 1426 1251 1121 978 871 757 589 419 277 138 61 39 23 0 0 0 0 0 0 0 11 16 0 0 0 0
109 92 116 96 119 81 58 44 57 14 0 0 0 17 195 559 1175 1106 1130 1158 1204 1155 1222 1500 1332 1227 1016 1014 872 769 583 373 259 142 47 20 0 0 0 0 0 0 0 0 0 0 0 0 0
40 92 159 130 148 86 28 15 3 7 0 0 3 1 114 291 533 585 764 724 811 1148 1345 1334 1276 1066 1073 1082 937 844 672 483 387 262 150 41 19 2 0 0 0 0 0 0 0 0 0 0 0
88 137 182 137 170 100 64 62 0 13 1 2 13 27 97 159 233 314 632 844 1003 1331 1330 1316 1045 904 899 1078 1123 904 746 533 511 435 277 136 58 50 0 0 0 0 0 0 0 0 0 0 0
127 124 125 202 164 78 73 0 0 9 7 4 3 27 100 103 85 155 226 496 886 1125 1348 1119 778 794 910 965 931 822 699 645 646 614 535 358 188 75 53 36 37 10 0 0 0 0 0 2 7
117 41 49 76 172 77 22 9 12 5 1 3 2 17 56 79 39 47 98 171 530 949 1074 935 899 829 786 760 731 737 699 642 651 643 618 551 440 211 94 54 56 55 34 11 2 24 32 59 54
0 33 26 40 109 58 46 47 0 0 0 1 7 6 11 32 24 24 38 98 223 379 689 789 868 921 1000 943 824 730 721 714 669 675 615 538 502 303 163 117 93 74 65 78 117 100 117 43 58
7 25 19 26 96 75 34 0 0 0 0 3 0 0 0 8 6 9 0 44 114 257 342 399 690 863 955 1005 1005 976 944 804 676 536 428 362 335 254 158 150 183 199 167 178 174 104 53 54 52
35 29 51 71 178 171 52 45 4 0 0 0 1 0 0 0 0 2 0 0 0 0 34 247 269 526 588 803 836 808 832 806 758 565 460 493 444 354 352 360 359 339 270 298 254 249 186 109 150
24 20 25 7 126 50 61 19 0 0 0 0 0 0 0 0 0 0 0 0 0 0 0 0 0 0 190 440 479 493 468 423 365 350 372 358 286 231 238 347 294 298 338 341 487 400 412 199 52
0 16 9 46 79 2 4 0 0 0 0 0 0 0 0 0 0 0 0 0 0 0 0 0 0 0 0 0 6 36 30 5 0 0 0 0 0 0 0 0 0 0 0 6 9 13 20 10 19
0 0 7 4 1 1 0 0 0 0 0 0 0 0 0 0 0 0 0 0 0 0 0 0 0 0 0 0 0 0 0 0 0 0 0 0 0 0 0 0 0 0 0 0 0 2 5 5 18
0 0 3 6 22 0 0 0 0 0 0 0 0 0 0 0 0 1 0 0 0 0 0 0 0 0 0 0 0 0 0 0 0 0 0 0 0 0 0 0 0 0 0 0 1 1 2 3 7
13 16 0 0 0 0 0 0 0 0 0 0 0 0 0 0 0 0 0 0 0 0 0 0 0 0 0 0 0 0 0 0 0 0 0 0 0 0 0 0 0 0 0 0 0 2 1 9 18
40 22 0 0 0 0 0 0 0 0 0 0 0 0 0 0 0 0 0 0 0 0 0 0 0 0 0 0 0 0 0 0 0 0 0 0 0 0 0 0 0 0 0 0 0 7 15 9 13
2 0 0 0 0 0 0 0 0 0 0 0 0 0 0 0 0 0 0 0 0 0 0 0 0 0 0 0 0 0 0 0 0 0 0 0 0 0 0 0 0 0 0 0 0 0 0 0 6
22 1 0 0 0 0 0 0 0 0 0 0 0 0 0 0 0 0 0 0 0 0 0 0 0 0 0 0 0 0 0 0 0 0 0 0 0 0 0 0 0 0 0 0 0 0 0 0 1
0 0 0 0 0 0 0 0 0 0 0 0 0 0 0 0 0 0 0 0 0 0 0 0 0 0 0 0 0 0 0 0 0 0 0 0 0 0 0 0 0 0 0 0 0 0 0 0 0
0 0 0 0 0 0 0 0 0 0 0 0 0 0 0 0 0 0 0 0 0 0 0 0 0 0 0 0 0 0 0 0 0 0 0 0 0 0 0 0 0 0 0 0 0 0 0 0 0

GFSSGP_con_mucape_075.txt.gz
CAPE
606 218 2 6 0 0 0 22 0 0 0 0 0 4 89 224 18 788 380 486 741 1109 1337 1530 2293 2373 2123 1554 1146 837 548 400 218 105 118 246 102 60 1 0 5 11 13 70 6 12 6 2 1
646 60 0 0 0 0 0 0 0 8 0 0 5 8 51 481 733 656 583 549 620 1157 1202 1353 2346 2251 2096 1423 1105 884 474 303 175 49 97 407 183 100 3 0 4 10 9 7 11 8 4 1 0
424 58 0 0 0 0 0 0 0 6 18 0 4 24 131 972 777 426 604 514 906 1297 1166 1691 2295 2319 1975 1458 1421 944 401 115 19 23 35 247 408 110 1 0 4 7 6 12 8 3 1 1 1
331 58 32 0 0 0 0 0 0 16 0 0 0 15 646 882 709 645 602 501 1073 1194 1432 1922 2320 2285 1998 1850 1711 771 322 85 10 30 39 138 611 151 0 0 0 0 1 5 4 1 1 54 53
432 104 1 0 0 0 0 0 0 6 3 4 16 271 821 1141 935 1015 665 677 1044 882 1804 1732 2265 2167 1996 1490 1215 735 380 136 193 99 100 186 708 103 0 0 0 0 0 0 0 0 0 0 33
329 133 37 13 0 2 0 0 0 2 0 8 15 320 1011 1049 1147 910 758 819 869 1036 1114 1546 1748 1736 1515 1153 778 395 118 152 516 275 228 282 590 121 43 0 0 0 0 0 0 0 0 0 18
407 183 28 33 15 0 0 0 0 0 0 108 165 188 1144 1075 1304 1065 798 899 792 1271 1230 1271 1258 1024 963 796 588 399 370 627 701 903 779 1067 567 310 88 40 7 15 24 18 6 12 11 0 0
323 261 129 99 39 0 0 0 0 0 0 136 279 280 899 1151 1217 1482 952 797 831 1188 1179 1392 1118 808 433 153 241 207 380 541 863 856 628 348 113 127 142 86 56 20 32 35 34 18 13 0 0
126 251 227 70 49 2 0 0 0 0 0 2 44 319 564 1007 1166 1075 1120 914 852 1025 1299 1465 1062 695 631 327 42 4 64 238 84 104 96 54 80 77 36 48 48 39 21 25 33 26 7 0 0
141 187 87 106 38 21 0 0 0 12 3 2 3 95 778 1028 1195 1192 1017 1138 1077 1105 1098 1086 1333 657 687 325 109 64 0 70 24 16 18 52 60 85 69 41 11 30 26 17 29 34 14 0 0
130 13 147 86 74 36 7 0 0 9 43 0 0 29 651 1214 1089 1458 1593 1348 1254 1046 1190 1235 965 750 1049 409 345 311 82 0 0 0 0 0 0 18 5 46 31 36 9 35 14 14 4 0 0
67 58 41 44 101 99 16 0 13 20 42 0 0 11 525 1007 1146 1523 1347 1218 1166 1205 1251 1064 1105 1265 938 857 518 331 244 173 79 48 27 6 0 0 0 0 0 0 0 0 16 0 0 0 0
146 112 87 55 26 31 26 10 19 5 2 0 0 9 272 1185 1019 1109 1325 1027 1211 991 919 1280 975 958 941 1106 484 387 311 265 193 122 46 19 4 0 0 0 0 0 0 0 0 0 0 0 0
21 39 49 133 22 78 86 39 0 3 15 0 0 2 71 620 748 740 1080 1076 1154 1033 1090 1096 1066 1243 1026 943 1106 728 440 313 279 272 193 45 27 5 0 0 0 0 0 0 0 0 0 0 0
85 108 112 118 1 81 162 90 0 0 1 0 0 0 52 67 260 884 924 869 1057 1228 1079 1199 1367 1280 1196 994 936 604 476 372 405 395 287 168 107 111 0 0 8 0 0 0 0 0 0 0 0
118 153 93 68 49 125 167 15 1 0 33 12 1 0 0 71 101 138 373 808 1117 1252 1084 1094 1016 960 751 891 931 795 643 551 564 554 494 344 205 148 153 104 97 108 8 3 7 7 0 1 20
97 0 39 57 135 93 114 2 50 45 12 23 6 3 0 22 104 91 145 198 853 1205 1243 1306 1172 970 872 774 850 808 701 715 684 699 670 653 556 398 260 156 112 114 181 160 115 101 138 187 129
0 0 0 0 89 76 76 74 41 16 3 9 1 13 5 2 37 38 79 123 210 845 1202 1394 1309 1127 1004 968 892 862 860 931 834 815 791 779 753 652 509 351 254 192 256 222 275 293 313 257 235
0 0 20 39 83 103 76 97 53 12 21 8 0 10 9 4 21 33 22 42 110 259 544 1147 1183 1139 1143 1161 1225 1198 1054 1036 1034 954 865 762 709 640 581 425 368 434 425 453 439 361 284 325 308
49 9 60 55 47 95 63 54 64 26 10 4 0 6 3 2 0 17 6 13 42 100 221 262 702 966 1088 1161 1245 1267 1323 1149 1011 1048 843 761 634 525 493 385 470 677 453 506 499 382 271 328 286
22 28 74 63 62 73 67 42 11 1 1 0 0 0 3 1 1 5 4 21 16 35 84 71 178 301 496 786 822 782 661 618 518 679 604 321 357 421 395 379 813 642 825 718 344 372 282 164 42
4 28 51 53 93 2 33 0 0 0 0 0 0 0 0 13 6 4 11 23 16 15 0 0 0 0 0 14 250 272 200 203 66 13 0 0 0 0 0 0 0 0 0 6 5 8 16 43 26
1 43 53 51 103 52 27 10 0 0 0 0 0 0 0 0 0 0 0 10 10 4 0 0 0 0 0 0 0 0 0 0 0 0 0 0 0 0 0 0 0 0 0 0 0 0 2 6 3
33 65 41 51 38 0 0 1 0 0 0 0 0 0 0 0 0 0 0 0 0 0 0 0 0 0 0 0 0 0 0 0 0 0 0 0 0 0 0 0 0 0 0 0 0 0 1 3 6
50 26 0 0 0 0 0 0 0 0 0 0 0 0 0 0 0 0 0 0 0 0 0 0 0 0 0 0 0 0 0 0 0 0 0 0 0 0 0 0 0 0 0 0 0 0 4 6 17
30 0 0 0 0 0 0 0 0 0 0 0 0 0 0 0 0 0 0 0 0 0 0 0 0 0 0 0 0 0 0 0 0 0 0 0 0 0 0 0 0 0 0 0 0 0 5 11 7
33 0 0 0 0 0 0 0 0 0 0 0 0 0 0 0 0 0 0 0 0 0 0 0 0 0 0 0 0 0 0 0 0 0 0 0 0 0 0 0 0 0 0 0 0 0 2 4 2
36 24 0 0 0 0 0 0 0 0 0 0 0 0 0 0 0 0 0 0 0 3 0 0 0 0 0 0 0 0 0 0 0 0 0 0 0 0 0 0 0 0 0 0 0 0 0 0 0
3 0 4 0 0 0 0 0 0 0 0 0 0 0 0 0 0 0 0 0 0 0 0 0 0 0 0 0 0 0 0 0 0 0 0 0 0 0 0 0 0 0 0 0 0 0 0 0 0
11 26 24 0 0 0 0 0 0 0 0 0 0 0 0 0 0 0 0 0 0 0 0 0 0 0 0 0 0 0 0 0 0 0 0 0 0 0 0 0 0 0 0 0 0 0 0 0 0

GFSSGP_con_mucape_078.txt.gz
CAPE
497 494 377 45 43 0 0 5 2 0 27 0 0 6 33 447 248 337 139 706 1413 1076 1076 1670 2143 2123 1834 1503 884 988 815 631 471 314 108 67 13 2 3 11 15 14 44 20 11 9 3 1 2
448 426 16 39 0 0 0 6 0 0 1 0 0 6 64 776 524 196 457 840 1256 1157 814 1127 2261 2163 1953 1305 942 929 386 224 203 311 435 228 15 0 3 7 15 22 5 5 12 6 3 1 0
97 451 28 0 0 0 0 0 0 0 0 0 0 9 471 828 287 376 525 799 1091 1138 970 1609 2196 2157 1873 1438 1260 538 241 165 88 259 488 343 25 0 0 5 11 6 5 10 7 5 8 5 0
143 380 81 1 0 0 0 0 2 0 0 0 0 198 649 781 338 513 374 939 1123 855 1410 1904 2121 2081 1845 1724 1388 511 101 4 50 158 314 651 84 0 0 2 2 5 12 4 1 0 2 0 0
262 368 4 0 0 0 1 0 0 0 0 11 1 177 854 887 884 445 367 994 889 1547 1569 1858 2125 2054 1923 1771 1223 803 192 62 61 97 182 805 98 0 0 0 1 0 1 1 0 0 3 36 35
342 338 1 0 0 0 50 0 0 0 1 4 26 252 998 1062 1143 511 497 986 1403 1599 1376 1579 1790 1767 1454 1313 1080 791 419 400 251 509 568 702 135 3 0 0 0 0 0 0 0 0 0 9 34
298 94 4 0 0 16 36 0 0 0 3 35 9 95 795 993 1116 1083 551 855 1467 1228 1239 1288 1171 1011 884 703 472 416 566 799 682 700 728 884 325 158 42 13 26 29 16 8 10 1 0 0 0
309 244 14 10 14 43 4 0 0 0 5 70 181 180 1024 973 1413 1373 1017 961 1242 1220 1204 1082 773 488 160 50 173 372 513 587 950 706 679 193 103 90 136 77 63 45 43 40 25 17 14 0 0
205 165 66 9 118 23 0 0 0 1 51 127 154 312 1080 1357 1190 1230 1001 802 1061 1220 1164 949 714 430 152 16 2 122 180 411 396 342 377 36 12 28 14 49 48 57 51 39 37 22 7 0 0
136 144 51 52 33 10 1 0 0 6 6 32 89 699 862 1257 1061 1053 1011 806 1091 1171 1342 1075 667 318 543 122 0 0 98 26 116 143 48 33 22 67 70 13 10 39 30 32 38 43 27 0 0
121 35 40 159 90 25 3 1 0 11 18 2 0 470 1161 1308 1149 869 1009 850 1000 1018 1291 942 742 517 403 180 84 36 4 108 17 10 0 9 13 19 31 0 0 0 1 0 20 14 8 0 0
109 14 38 109 65 4 14 3 9 17 1 0 0 368 854 1418 1295 1248 1217 1205 903 1029 1048 921 773 794 1011 369 250 181 59 1 0 0 0 0 0 0 0 5 8 0 0 0 9 1 0 0 0
54 75 64 59 13 35 29 18 8 6 0 0 0 342 747 1050 1195 1213 1384 1176 1022 1039 1128 986 902 750 555 507 348 309 179 116 88 36 15 2 0 0 0 0 0 0 0 0 0 0 0 0 0
69 43 74 13 2 15 11 14 1 0 0 0 0 27 438 898 1142 739 657 779 979 998 879 887 880 917 743 766 429 415 281 213 154 106 52 25 8 0 0 0 0 0 0 0 0 0 0 0 0
64 99 81 49 46 7 7 56 0 2 0 0 0 0 8 99 657 643 592 565 1078 972 895 781 856 851 795 771 641 450 440 287 222 237 170 58 25 21 0 0 0 0 0 0 0 0 0 0 0
97 54 0 3 48 39 27 0 28 21 0 0 0 0 0 50 80 407 882 686 851 1049 978 966 960 821 822 787 721 736 900 318 348 322 300 219 122 127 113 10 0 9 0 0 0 0 0 0 0
49 0 0 34 16 0 0 0 51 47 0 0 0 1 0 2 25 65 170 718 997 1067 890 887 900 787 695 757 736 697 535 442 372 493 476 428 348 266 179 139 103 114 133 107 58 32 31 42 53
0 0 0 0 0 0 0 0 70 16 3 0 0 0 4 0 7 15 73 134 592 1016 1024 1080 924 839 725 719 722 725 612 590 624 622 526 654 620 567 504 346 254 173 133 125 118 141 167 390 243
0 0 0 0 86 56 0 52 41 30 0 0 0 0 4 0 0 5 23 56 137 626 1038 1217 1204 1068 897 784 597 676 626 772 825 837 799 846 676 658 566 659 472 581 410 240 324 290 198 164 109
0 0 0 28 93 45 38 35 44 7 6 0 0 0 0 12 0 0 3 39 46 114 445 839 1198 1077 1026 1077 949 865 888 905 873 921 879 812 651 502 471 441 363 300 320 377 331 510 164 284 223
0 0 0 1 21 19 27 12 5 1 0 0 0 0 0 3 12 0 0 11 20 30 92 227 468 1058 1057 1083 1033 1005 935 836 846 819 873 554 547 556 502 454 782 901 675 607 343 408 159 24 18
4 5 32 9 30 0 54 0 0 0 0 0 0 0 0 0 2 13 0 2 31 23 36 87 224 429 937 848 981 848 786 626 447 413 493 359 62 11 8 0 0 0 0 0 0 4 6 12 14
17 0 20 54 57 16 13 0 0 0 0 0 0 0 0 0 0 0 3 0 2 17 26 31 45 17 63 100 440 308 201 169 111 85 9 0 0 0 0 0 0 0 0 0 0 0 0 0 0
2 28 13 27 2 0 0 0 0 0 0 0 0 0 0 0 0 0 0 0 0 0 12 18 18 8 0 0 0 0 0 0 0 0 0 0 0 0 0 0 0 0 0 0 0 0 0 0 0
19 10 0 0 0 0 0 0 0 0 0 0 0 0 0 0 0 0 0 0 0 0 0 5 3 0 0 0 0 0 0 0 0 0 0 0 0 0 0 0 0 0 0 0 0 0 0 1 4
12 0 0 0 0 0 0 0 0 0 0 0 0 0 0 0 0 0 0 0 0 0 0 0 0 0 0 0 0 0 0 0 0 0 0 0 0 0 0 0 0 0 0 0 0 0 0 2 2
0 0 1 0 0 0 0 0 0 0 0 0 0 0 0 0 0 0 0 0 0 0 0 0 0 0 0 0 0 0 0 0 0 0 0 0 0 0 0 0 0 0 0 0 0 0 0 0 0
9 3 0 0 0 0 0 0 0 0 0 0 0 0 0 0 0 0 0 0 0 0 0 0 0 0 0 0 0 0 0 0 0 0 0 0 0 0 0 0 0 0 0 0 0 0 0 0 0
3 1 0 0 0 0 0 0 0 0 0 0 0 0 0 0 0 0 0 0 0 0 0 0 0 1 0 0 0 0 0 0 0 0 0 0 0 0 0 0 0 0 0 0 0 0 0 0 0
6 15 2 0 0 0 0 0 0 0 0 0 0 0 0 0 0 0 0 0 0 0 0 0 0 0 3 1 0 0 0 0 0 0 0 0 0 0 0 0 0 0 0 0 0 0 0 0 0

GFSSGP_con_mucape_081.txt.gz
CAPE
574 110 367 137 0 0 0 1 0 0 0 0 0 9 274 377 232 37 711 1183 868 1326 1494 1693 2023 1829 1631 1057 748 853 824 693 551 369 15 2 0 8 13 52 130 139 13 5 10 4 4 0 0
404 461 391 32 0 0 0 0 0 0 0 0 0 7 424 424 162 338 1247 1211 798 1035 1287 1684 2017 1836 1638 920 584 570 507 361 844 677 86 1 2 6 10 24 36 19 10 10 7 2 0 0 0
80 460 75 3 0 0 0 0 0 1 0 0 0 178 794 505 214 458 1251 992 833 749 1284 1733 1949 1803 1522 1014 682 371 178 173 555 851 359 1 0 6 10 17 14 9 9 7 7 4 1 0 0
59 207 224 18 0 0 0 0 0 7 0 0 0 137 590 748 684 968 1303 1062 636 732 1439 1829 1930 1885 1600 1259 831 254 113 63 309 779 316 2 0 4 10 13 14 8 9 5 7 5 1 0 0
106 127 57 3 0 0 0 6 0 0 0 0 70 301 711 798 608 939 1158 947 923 1278 1514 1662 1965 1848 1723 1341 899 448 34 55 168 638 375 28 0 0 2 2 3 4 3 2 1 5 24 24 24
146 127 13 0 0 0 1 0 0 0 0 0 227 627 598 689 531 705 1150 1161 1264 1368 1528 1563 1617 1710 1588 1237 962 667 383 174 337 790 852 91 0 0 0 0 0 1 1 0 6 5 30 40 27
150 82 1 0 0 0 9 0 0 0 0 26 37 168 531 465 431 1046 1163 1459 1307 1388 1381 1314 1114 951 869 835 722 678 688 532 715 1025 837 379 124 28 0 0 0 0 17 18 16 9 4 0 0
205 129 20 0 0 12 12 0 0 0 96 177 68 155 8 541 1064 989 1304 1421 1461 1225 1075 918 682 331 55 25 235 501 521 592 616 587 433 110 65 62 75 46 57 34 26 25 20 12 0 0 0
219 69 27 10 25 47 1 2 0 14 113 113 196 615 525 773 784 716 912 1047 1090 1057 847 662 382 128 2 0 173 175 313 504 353 437 151 56 18 0 0 0 30 55 47 34 29 17 0 0 0
201 55 22 32 55 11 0 0 16 10 42 502 587 1157 1106 815 399 387 588 884 1006 1007 862 537 306 124 28 0 70 80 283 192 170 362 54 14 18 10 20 5 9 39 33 35 34 28 16 0 0
128 65 77 156 276 46 27 22 22 20 2 10 642 888 1070 929 317 219 352 468 845 1078 951 601 440 228 137 15 0 43 88 195 197 297 73 42 36 53 43 0 0 0 0 0 6 4 0 0 0
136 81 22 130 102 48 28 18 8 6 0 0 568 1080 1086 996 697 250 461 376 533 1046 1128 824 472 273 189 122 57 25 19 14 41 28 0 1 31 29 15 0 0 0 0 0 0 0 0 0 0
60 72 44 85 54 52 11 4 31 13 4 0 595 783 1077 1034 922 951 484 715 671 873 1118 818 678 530 391 229 186 152 108 9 35 14 1 0 0 0 0 0 0 0 0 0 0 0 0 0 0
24 19 48 29 22 2 40 27 30 25 14 0 575 672 864 1082 985 895 1119 857 887 963 1114 956 824 633 487 506 341 363 137 106 93 89 26 16 4 0 0 0 0 0 0 0 0 0 0 0 0
69 75 9 8 0 6 39 35 0 11 8 0 155 478 607 682 1001 923 895 636 799 912 982 866 855 868 663 525 401 383 438 450 182 175 140 41 22 7 0 0 0 0 0 0 0 0 0 0 0
98 69 0 5 57 6 5 4 2 13 0 0 0 0 0 24 315 592 516 370 842 784 767 838 980 1007 941 684 587 482 497 335 498 251 239 192 30 40 13 0 0 0 0 0 0 0 0 0 0
20 0 0 0 19 1 0 0 0 4 11 0 1 0 0 0 19 234 587 560 781 857 943 726 823 696 882 814 749 597 614 352 348 327 284 247 264 152 155 115 52 66 91 74 48 22 11 5 10
0 0 0 0 0 2 0 0 0 0 1 18 12 3 0 0 3 45 85 490 766 783 854 750 760 925 897 803 754 694 645 576 430 431 383 456 341 358 341 311 180 130 103 90 98 96 98 105 71
0 0 0 0 2 0 0 0 0 2 0 9 4 0 0 0 0 12 54 50 479 804 963 852 810 804 811 768 641 623 674 596 620 587 649 575 657 652 624 556 469 355 245 301 284 203 177 75 32
2 0 0 34 63 10 0 0 0 0 5 0 0 0 0 0 0 0 23 23 37 301 764 977 945 768 712 761 710 589 607 583 526 552 752 813 688 617 594 550 417 399 540 486 261 466 113 187 17
0 0 0 0 33 11 7 0 0 0 0 3 0 0 0 0 0 0 0 23 9 27 360 851 935 844 846 776 694 834 721 759 721 697 626 878 821 723 545 409 308 214 162 69 52 87 115 15 16
1 0 1 21 19 0 0 0 0 0 0 1 0 0 0 0 0 0 0 0 9 14 28 149 526 836 927 973 783 656 498 487 646 839 944 931 608 554 481 443 317 129 11 0 0 0 0 1 0
3 4 2 0 19 0 0 0 0 0 0 0 0 0 0 0 0 0 0 0 0 5 14 34 166 426 690 851 808 651 688 681 663 628 534 517 289 10 0 0 0 0 0 0 0 0 0 0 0
20 8 32 20 1 0 0 0 0 0 0 0 0 0 0 0 0 0 0 0 0 0 0 23 32 40 267 589 857 724 602 422 293 223 204 43 0 0 0 0 0 0 0 0 0 0 0 0 0
12 3 8 14 0 0 0 0 0 0 0 0 0 0 0 0 0 0 0 0 0 0 0 0 6 7 27 25 17 65 69 124 94 28 1 0 0 0 0 0 0 0 0 0 0 0 0 0 0
5 0 6 0 0 0 0 0 0 0 0 0 0 0 0 0 0 0 0 0 0 0 0 0 1 3 4 6 4 0 0 0 0 0 0 0 0 0 0 0 0 0 0 0 0 0 0 0 0
75 0 0 0 0 0 0 0 0 0 0 0 0 0 0 0 0 0 0 0 0 0 0 0 0 0 0 0 0 0 0 0 0 0 0 0 0 0 0 0 0 0 0 0 0 0 0 0 0
0 0 0 0 0 0 0 0 0 0 0 0 0 0 0 0 0 0 0 0 0 0 0 0 0 0 0 0 0 0 0 0 0 0 0 0 0 0 0 0 0 0 0 0 0 0 0 0 0
0 0 0 0 0 0 0 0 0 0 0 0 0 0 0 0 0 0 0 0 0 0 0 0 0 0 0 0 0 0 0 0 0 0 0 1 0 0 0 0 0 0 0 0 0 0 0 0 0
0 0 0 0 0 0 0 0 0 0 0 0 0 0 0 0 0 0 0 0 0 0 0 0 0 0 0 0 1 0 0 0 0 0 0 0 0 0 0 0 0 0 0 0 0 0 0 0 0

GFSSGP_con_mucape_084.txt.gz
CAPE
408 189 181 262 1 0 0 0 0 0 1 0 3 8 302 154 11 0 527 844 968 1159 1306 1493 1839 1554 1265 881 608 708 562 502 313 2 1 39 141 184 313 199 43 9 17 6 6 4 4 1 3
494 72 428 42 18 0 0 0 1 0 1 0 0 101 435 89 108 1219 1078 985 1096 1081 1273 1388 1669 1498 1257 738 562 758 860 556 389 1 0 5 8 34 35 11 8 10 8 3 2 1 0 0 62
135 63 164 51 1 0 0 0 0 0 5 0 0 436 504 597 654 759 1018 1095 1064 1162 1328 1513 1552 1454 1195 742 613 600 710 670 506 5 1 2 5 12 13 9 9 8 6 3 1 0 0 0 44
198 122 167 0 0 0 0 0 0 0 0 1 26 112 390 701 662 968 1120 812 989 1284 1420 1510 1436 1544 1186 888 726 434 572 578 379 5 0 3 6 14 4 10 10 6 7 6 1 0 0 24 92
258 197 49 29 0 0 0 0 0 0 0 0 0 97 238 420 956 1212 843 537 942 1303 1464 1318 1439 1410 1019 699 673 529 435 770 565 50 0 3 7 8 34 10 4 4 4 4 16 33 40 42 28
241 148 29 0 0 0 0 0 0 19 20 29 70 42 228 601 1182 1166 867 629 1068 1277 1339 1321 1247 1361 1163 724 479 408 533 593 1051 423 0 0 3 6 7 12 5 4 4 20 48 42 30 18 5
192 105 15 0 0 0 0 0 0 2 19 71 249 100 305 85 644 1036 865 1136 1273 1325 1235 1130 1174 1052 939 859 690 489 542 650 987 748 244 33 17 4 1 2 3 19 27 28 28 26 15 2 0
218 118 19 2 0 0 0 0 0 0 45 136 129 74 280 195 354 625 924 1151 1369 1344 1098 864 932 673 538 396 429 521 475 607 810 597 193 45 0 21 84 64 46 30 25 32 23 16 4 0 0
84 126 30 6 0 0 25 5 0 6 68 130 219 90 229 257 207 444 619 876 1274 1228 817 683 614 231 0 34 246 364 302 335 419 295 31 11 0 0 0 0 36 66 57 35 28 13 0 0 0
137 47 16 3 43 14 40 47 88 78 247 495 767 775 361 98 169 274 500 538 959 892 752 477 271 81 0 79 172 156 263 190 254 398 33 3 0 0 0 0 0 36 48 40 29 14 0 0 0
139 48 24 166 301 151 29 44 64 61 103 289 688 907 684 245 171 205 153 254 694 726 516 349 206 110 4 23 105 254 170 129 198 341 39 10 16 9 7 0 0 0 0 0 1 0 0 0 0
230 101 72 183 84 114 67 27 94 31 0 258 817 895 842 385 183 136 171 339 232 345 544 363 295 211 115 0 63 197 144 86 106 335 51 46 40 42 32 0 0 0 0 0 0 0 0 0 0
86 123 80 47 45 62 28 46 16 45 1 170 859 1085 1066 872 527 191 219 193 12 148 193 578 451 311 227 128 35 52 110 114 139 145 133 36 40 54 28 0 0 0 0 0 0 0 0 0 0
15 53 18 41 52 52 44 44 26 19 16 564 627 794 964 990 844 319 120 106 8 0 65 514 423 366 258 171 154 139 104 72 36 25 33 5 32 27 5 0 0 0 0 0 0 0 0 0 0
43 47 41 0 27 62 9 18 52 28 5 391 422 563 729 972 828 732 371 240 271 147 268 723 584 486 358 282 216 316 282 102 84 104 80 43 20 2 0 0 0 0 0 0 0 0 0 0 0
44 84 0 21 91 1 34 8 38 21 3 24 103 355 526 570 843 659 476 490 494 548 747 801 993 556 463 437 264 313 366 245 186 189 171 166 47 18 12 0 0 0 0 0 0 0 0 0 0
43 0 0 0 0 13 9 0 25 5 0 0 0 0 4 39 106 340 426 434 414 638 399 670 660 616 533 589 519 439 380 390 320 308 236 232 198 44 49 27 0 4 40 51 33 41 24 24 11
0 0 0 0 0 0 0 3 6 1 0 0 0 0 0 0 0 99 493 481 418 658 586 658 635 529 566 608 581 614 528 554 359 326 313 275 266 286 181 187 150 149 142 144 136 110 151 112 90
7 0 0 0 0 2 0 0 0 2 0 0 0 0 0 0 0 0 121 420 516 554 659 637 657 589 578 665 523 551 483 569 488 409 390 355 331 376 377 337 311 275 211 293 186 177 145 123 34
18 0 0 0 28 0 0 0 0 1 0 0 0 0 0 0 0 0 0 46 263 437 601 520 670 645 807 754 610 478 430 406 342 319 423 450 509 667 654 595 582 487 263 265 247 181 59 69 23
4 0 0 0 0 0 0 0 0 0 0 0 0 0 0 0 0 0 0 0 13 64 515 656 675 690 815 737 684 544 538 426 363 371 513 450 584 646 697 654 554 394 451 140 41 5 4 5 1
0 0 0 22 0 0 0 0 0 0 0 0 0 0 0 0 0 0 0 0 0 1 122 606 830 918 760 749 704 601 556 516 418 446 468 350 429 569 720 720 525 342 157 143 95 31 3 0 0
1 8 11 36 0 0 0 0 0 0 0 0 0 0 0 0 0 0 0 0 0 0 0 246 620 733 732 851 774 653 481 324 256 441 349 416 556 638 488 343 271 32 0 0 0 0 0 0 0
10 18 24 0 0 0 0 0 0 0 0 0 0 0 0 0 0 0 0 0 0 0 0 0 235 491 566 693 765 625 510 351 280 453 571 605 654 409 96 0 0 0 0 0 0 0 0 0 0
21 13 0 0 0 0 0 0 0 0 0 0 0 0 0 0 0 0 0 0 0 0 0 0 12 168 400 450 516 489 416 406 385 454 494 478 297 57 0 0 0 0 0 0 0 0 0 0 0
25 6 0 0 0 0 0 0 0 0 0 0 0 0 0 0 0 0 0 0 0 0 0 0 0 0 1 39 232 327 327 358 355 300 258 145 21 0 0 0 0 0 0 0 0 0 0 0 0
18 4 0 0 0 3 0 0 0 0 0 0 0 0 0 0 0 0 0 0 0 0 0 0 6 7 1 0 0 0 0 6 40 28 3 0 0 0 0 0 0 0 0 0 0 0 0 0 0
0 0 0 1 0 0 0 0 0 0 0 0 0 0 0 0 0 0 0 0 0 0 0 0 0 0 0 0 0 0 0 0 0 0 0 0 0 0 0 0 0 0 0 0 0 0 0 0 0
0 0 0 0 0 0 0 0 0 0 0 0 0 0 0 0 0 0 0 0 0 0 0 0 0 0 0 0 0 2 3 0 0 0 0 0 0 0 0 0 0 0 0 0 0 0 0 0 0
0 0 0 0 0 0 0 0 0 0 0 0 0 0 0 0 0 0 0 0 0 0 0 0 0 0 0 0 0 0 5 1 0 0 0 0 0 2 2 0 0 0 0 0 0 0 0 0 0

GFSSGP_con_mucape_087.txt.gz
CAPE
483 344 76 345 1 0 0 0 0 0 7 1 9 84 120 26 5 0 390 620 782 983 1104 1200 1586 1382 1152 602 459 431 521 308 97 392 616 726 830 795 389 78 17 11 5 8 12 10 42 19 73
376 186 295 232 12 0 0 0 2 0 0 0 4 60 223 109 369 1215 1148 838 921 978 1056 1020 1454 1147 887 493 334 243 177 7 1 109 441 379 500 338 56 7 8 6 6 10 46 71 127 158 193
404 175 256 115 14 0 0 0 0 0 0 0 0 214 346 524 844 921 905 1108 910 1043 1179 1075 1320 1138 997 473 464 173 345 2 1 6 146 182 95 34 6 9 3 4 2 3 1 1 84 148 61
360 254 193 13 2 0 0 0 0 0 1 0 0 5 345 441 489 763 1527 1030 917 1159 1226 1222 1161 1176 1161 965 824 621 484 40 1 4 7 17 13 6 5 6 7 5 26 2 35 60 71 151 40
286 220 182 47 0 0 0 0 0 0 5 8 0 0 237 1086 719 1054 1182 890 881 1099 1162 970 1275 1078 694 620 639 998 749 171 3 4 10 9 13 10 10 11 8 6 4 11 38 64 104 72 35
274 229 142 61 0 0 0 0 0 0 2 0 0 38 242 1018 1066 1595 1005 881 966 997 1082 934 945 906 831 587 505 748 1143 582 7 2 9 11 24 9 9 8 5 4 32 42 34 51 57 31 14
321 185 140 7 0 0 0 0 0 0 0 0 40 8 226 701 852 933 754 1033 1158 1172 1079 863 776 722 674 586 559 634 869 1042 476 32 8 17 54 67 10 8 22 37 40 41 44 40 23 5 0
157 295 26 1 0 0 0 0 0 1 2 204 130 73 26 5 300 736 826 1058 1159 1048 933 757 773 696 573 459 392 439 597 759 660 191 26 0 0 7 67 61 85 45 35 31 25 14 0 0 0
302 166 30 2 0 0 0 9 8 31 195 432 185 133 104 140 97 465 694 877 1028 890 729 673 681 523 379 277 355 300 395 500 522 91 0 0 0 0 0 0 18 53 30 14 11 1 0 0 0
198 53 0 16 0 0 22 32 58 188 442 561 857 463 207 220 87 645 660 897 789 793 807 598 763 407 98 170 356 187 245 444 665 59 8 0 0 0 0 0 6 50 43 25 9 0 0 0 0
58 35 0 14 282 179 83 88 109 149 315 455 545 559 258 311 286 642 620 711 723 685 674 588 572 251 51 175 303 216 192 277 535 284 31 13 4 0 0 0 0 0 0 0 0 0 0 0 0
37 31 0 132 117 176 93 73 106 165 45 355 751 630 360 278 232 165 161 389 320 243 289 319 335 241 91 145 209 253 211 170 294 410 61 25 26 11 19 1 0 0 0 0 0 0 0 0 0
48 0 30 255 147 135 93 28 106 74 101 964 1174 627 295 260 235 327 183 78 95 47 27 127 138 205 198 102 215 304 157 99 247 441 115 69 67 63 46 23 0 0 0 0 0 0 0 0 0
45 90 0 231 110 132 99 34 37 44 213 899 996 990 650 406 294 285 257 207 182 72 8 70 77 180 218 271 175 270 248 156 123 299 317 83 68 54 48 24 0 0 0 0 0 0 0 0 0
17 74 15 173 43 101 77 50 60 38 258 545 518 570 772 690 393 312 281 246 187 72 14 2 26 137 208 211 271 229 195 158 132 142 145 115 49 49 54 22 0 0 0 0 0 0 0 0 0
73 58 0 91 18 38 108 59 33 47 92 139 159 407 502 567 624 325 328 225 154 21 28 0 0 476 345 222 163 285 271 206 147 138 163 151 130 58 33 14 0 0 0 0 0 0 0 0 0
60 10 2 13 12 13 129 29 42 31 31 29 13 24 219 287 424 384 227 161 120 88 62 13 93 444 394 347 288 267 357 496 261 171 199 213 210 146 70 42 12 0 0 11 9 11 28 21 15
3 2 7 0 0 0 1 0 1 30 21 7 15 0 0 19 105 212 323 375 398 297 305 367 582 619 422 406 429 458 278 228 372 291 312 245 237 243 114 83 77 22 89 140 154 128 119 82 61
0 0 0 0 0 18 0 10 1 19 19 13 0 0 0 0 0 53 319 488 498 521 476 546 561 414 362 397 469 430 349 411 381 368 298 324 289 286 209 227 248 200 219 121 112 114 129 116 54
31 10 0 0 4 0 0 6 44 3 1 0 1 0 0 0 0 0 30 309 423 441 458 409 445 442 418 505 458 452 336 272 497 248 232 201 232 291 320 365 349 330 341 330 244 197 127 54 1
23 40 36 19 30 0 0 0 0 1 1 0 0 0 0 0 0 0 0 10 66 354 383 498 532 560 537 564 538 464 388 335 468 327 248 293 348 201 261 255 284 411 550 238 368 176 69 45 0
61 16 26 67 0 0 5 0 0 0 0 0 0 0 0 0 0 0 0 0 0 16 115 447 579 607 636 534 472 488 417 399 375 243 318 253 284 269 339 410 527 444 549 584 282 129 120 55 7
28 5 5 16 0 0 0 0 0 0 0 2 0 0 0 0 0 0 0 0 0 0 3 12 430 497 564 612 469 476 419 367 317 293 282 197 185 178 158 301 445 523 482 389 108 0 0 0 0
7 7 4 0 0 0 0 0 0 0 0 0 0 0 0 0 0 0 0 0 0 0 0 0 6 455 513 501 535 451 360 266 279 267 224 150 111 63 114 269 197 99 0 0 0 0 0 0 0
15 0 3 0 0 0 0 0 0 0 0 0 0 0 0 0 0 0 0 0 0 0 0 0 0 22 417 503 509 490 395 332 270 187 202 167 91 116 148 95 25 0 0 0 0 0 0 0 0
21 0 2 0 0 0 0 0 0 0 0 0 0 0 0 0 0 0 0 0 0 0 0 0 0 0 102 301 390 309 364 250 293 180 165 165 120 133 78 42 0 0 0 0 0 0 0 0 0
3 0 0 0 0 0 0 0 0 0 0 0 0 0 0 0 0 0 0 0 0 0 0 0 0 0 0 0 0 2 72 191 175 166 198 194 107 70 37 0 0 0 0 0 0 0 0 0 0
0 0 0 0 0 0 0 0 0 0 0 0 0 0 0 0 0 0 0 0 0 0 0 0 0 0 0 0 2 5 3 1 42 58 52 20 0 0 0 0 0 0 0 0 0 0 0 0 0
0 0 0 0 0 0 0 0 0 0 0 0 0 0 0 0 0 0 0 0 0 0 0 0 0 0 0 0 0 0 0 0 2 4 0 0 0 0 0 0 0 1 0 1 0 0 0 0 0
0 0 0 0 0 0 0 0 0 0 0 0 0 0 0 0 0 0 0 0 0 0 0 0 0 0 0 0 0 0 0 0 0 0 0 2 1 0 0 0 6 0 0 0 0 0 0 0 0

GFSSGP_con_mucape_090.txt.gz
CAPE
218 254 161 236 53 12 0 0 0 0 0 16 1 59 26 1 0 0 192 534 632 843 962 1088 1490 1334 844 245 319 302 270 350 851 1155 1239 1215 980 776 484 169 29 4 8 14 19 51 15 21 58
193 218 220 153 94 0 0 0 0 0 0 11 7 5 91 113 248 776 1034 809 773 852 954 1008 1460 1108 661 395 339 335 156 163 681 899 956 900 871 417 136 5 10 9 67 71 86 63 131 179 75
296 211 141 137 59 0 0 0 0 0 0 0 0 70 180 464 469 658 899 996 911 930 899 1060 1334 1076 787 577 392 229 35 28 277 591 793 817 814 137 8 11 9 12 71 56 87 164 190 58 88
226 241 219 156 38 0 0 0 0 0 0 0 0 1 403 383 412 1034 1084 865 922 959 922 1168 1148 1129 983 646 389 81 2 2 23 102 419 336 106 8 8 10 8 10 72 49 138 165 155 63 161
223 144 78 151 96 1 0 0 0 0 41 25 0 1 211 867 689 1162 1085 876 757 921 984 825 1288 1051 1014 812 782 694 14 2 4 6 18 9 10 12 12 8 7 7 82 115 133 155 115 47 42
136 177 112 114 52 8 0 0 0 0 16 52 0 0 125 757 1021 1151 1019 785 729 926 797 704 832 1007 1052 685 928 1043 133 3 8 13 21 10 13 10 7 7 9 50 72 94 123 141 62 31 22
82 183 88 73 55 26 9 0 0 0 0 4 35 0 58 686 689 956 925 635 1063 882 707 608 550 549 540 645 650 776 831 117 12 51 69 108 15 6 11 9 35 50 72 74 73 49 18 0 0
172 257 95 87 57 18 23 6 0 0 0 6 75 30 0 540 756 759 793 921 857 802 677 516 432 210 183 175 317 391 527 310 27 11 14 11 9 3 4 32 57 41 31 26 21 8 0 0 0
172 186 50 74 66 2 33 23 10 39 183 237 74 48 51 561 699 628 603 799 509 541 664 399 374 283 185 94 106 253 502 362 52 0 0 0 0 2 2 1 28 49 35 20 13 0 0 0 0
149 59 4 28 10 2 16 14 43 374 478 477 497 379 235 167 94 30 322 671 730 605 486 367 321 298 191 203 148 124 218 658 149 4 0 0 0 0 0 0 12 40 31 23 11 0 0 0 0
80 63 0 70 2 183 75 17 165 299 447 437 411 271 133 104 90 41 2 159 593 704 434 292 342 297 154 181 221 111 194 487 301 81 0 0 0 0 0 0 0 0 0 0 0 0 0 0 0
81 10 14 38 0 164 209 80 185 348 174 237 654 378 164 108 107 21 0 32 498 556 446 260 291 299 117 100 240 131 154 360 428 204 26 10 1 0 0 0 0 0 0 0 0 0 0 0 0
59 0 26 11 20 0 35 134 220 207 380 778 814 362 413 173 99 66 13 294 460 462 167 35 147 220 158 60 176 231 157 201 389 457 125 27 21 9 24 25 0 0 0 0 0 0 0 0 0
33 3 10 25 4 6 111 126 177 74 623 1295 862 427 480 433 397 397 304 322 271 209 65 35 35 78 161 166 85 202 283 157 159 317 305 73 83 90 66 41 16 0 0 0 0 0 0 0 0
3 54 54 17 8 169 27 84 157 71 423 977 860 498 379 407 435 450 276 213 92 13 5 0 11 17 26 175 124 136 300 196 121 207 413 171 101 88 70 45 17 0 0 0 0 0 0 0 0
39 58 55 8 0 0 92 50 42 90 282 408 479 519 494 480 492 484 263 127 51 47 19 3 17 8 84 162 135 145 104 225 185 146 186 246 156 87 61 57 28 0 0 0 0 0 0 0 0
51 3 34 1 0 0 45 58 63 97 67 82 144 137 280 287 258 323 286 225 121 60 76 43 2 54 170 290 180 202 128 144 136 131 134 162 165 160 125 64 43 10 0 1 2 6 19 44 52
6 24 5 0 36 0 60 49 95 99 47 18 26 75 150 162 263 348 332 282 227 123 55 39 10 57 180 222 168 237 253 200 129 88 134 177 181 198 178 110 78 61 29 50 114 135 104 44 18
30 18 0 0 0 0 0 28 100 139 39 27 9 44 112 135 97 212 273 251 198 163 56 64 45 155 117 108 196 310 228 244 222 196 324 186 149 230 237 149 94 111 117 156 192 119 104 80 49
59 49 42 8 0 0 0 24 31 44 53 8 32 8 0 0 76 147 295 331 392 179 77 80 64 235 348 163 111 115 167 208 143 185 221 194 133 211 252 207 216 255 216 222 243 206 126 74 16
37 7 4 0 0 0 0 0 1 0 14 54 18 24 4 0 0 10 135 199 411 445 380 343 240 334 316 279 229 163 153 159 178 136 159 231 119 147 152 141 188 185 288 325 278 178 139 145 64
39 16 58 45 0 0 0 0 0 0 0 1 6 34 24 14 0 0 0 17 114 141 357 496 450 419 350 285 211 148 121 145 161 178 222 216 159 204 228 133 199 187 152 161 245 288 352 173 47
35 17 43 8 0 0 0 0 0 0 0 0 1 2 19 18 0 0 0 0 0 22 65 71 279 341 363 327 239 160 145 135 117 108 207 152 117 99 95 117 86 104 129 100 205 255 13 0 0
27 3 20 0 3 0 0 0 0 0 0 0 0 0 0 0 0 0 0 0 0 0 0 3 15 29 267 310 359 342 287 198 184 122 109 114 102 116 78 69 70 52 71 79 39 0 0 0 0
53 21 0 0 0 0 0 0 0 0 0 0 0 0 0 0 0 0 0 0 0 0 0 0 0 0 2 298 355 355 352 302 242 148 117 87 60 36 23 17 10 8 53 31 0 0 0 0 0
0 14 3 0 0 0 0 0 0 0 0 0 0 0 0 0 0 0 0 0 0 0 0 0 0 0 0 22 259 236 236 245 199 117 105 91 73 52 22 33 32 44 42 3 0 0 0 0 0
0 0 0 15 4 0 0 0 0 0 0 0 0 0 0 0 0 0 0 0 0 0 0 0 0 0 0 0 27 36 27 50 107 91 105 104 65 57 56 39 36 30 0 0 0 0 0 0 0
0 0 0 1 0 0 0 0 0 0 0 0 0 0 0 0 0 0 0 0 0 0 0 0 0 0 0 0 0 0 0 0 0 16 64 78 93 117 68 37 8 0 0 0 0 0 0 0 0
0 0 0 0 0 0 0 0 0 0 0 0 0 0 0 0 0 0 0 0 0 0 0 0 0 0 0 0 0 0 0 0 0 0 3 22 15 7 0 0 0 0 0 1 1 0 0 0 0
0 0 0 0 0 0 0 0 0 0 0 0 0 0 0 0 0 0 0 0 0 0 0 0 0 0 0 0 0 0 0 0 0 0 0 0 0 0 0 2 1 0 0 0 0 0 0 0 0

GFSSGP_con_mucape_093.txt.gz
CAPE
18 15 34 80 115 4 0 0 0 0 6 0 9 78 10 8 0 0 184 540 694 1033 1028 865 1196 1381 826 627 551 423 597 951 1271 1269 1489 1226 1072 802 394 27 8 5 9 21 78 24 13 17 38
13 34 71 55 72 0 0 0 0 0 0 0 3 10 112 138 297 669 813 705 942 1113 974 771 1187 1291 687 407 387 311 425 755 1127 1207 1378 1475 941 610 196 14 13 94 53 144 12 36 91 84 101
0 43 124 142 68 0 0 0 0 0 20 15 0 4 50 257 573 673 980 922 981 1061 1052 928 1183 1103 879 433 407 225 217 597 815 956 1037 946 1004 201 18 11 173 11 10 117 134 181 97 89 47
16 92 94 93 0 2 0 0 0 2 32 20 0 0 48 269 698 904 1030 1048 1024 1082 993 1157 1157 1154 1109 936 539 88 76 309 595 591 711 869 403 131 4 14 122 173 221 141 175 108 103 414 86
54 30 116 43 1 14 1 0 0 0 41 25 0 0 0 610 741 1030 1181 1067 942 997 1011 1074 1071 1180 826 734 410 26 0 68 156 316 412 211 11 6 8 10 48 82 109 161 189 113 69 58 62
97 148 96 65 3 2 16 26 0 0 142 90 36 0 0 392 813 1037 1127 973 798 916 969 769 738 1030 790 675 703 132 0 2 30 193 84 8 9 8 7 6 58 104 96 156 123 100 46 39 26
34 94 8 0 0 8 0 44 2 0 143 186 128 74 49 534 519 815 1090 816 632 849 865 748 697 679 716 739 591 325 11 9 30 24 16 28 47 8 5 12 88 81 108 154 145 73 24 2 0
111 84 17 11 2 0 10 46 12 1 0 176 196 115 46 400 195 582 861 742 925 832 698 554 491 394 246 338 401 393 40 27 17 11 25 12 2 3 1 27 59 63 93 82 53 21 0 0 0
148 87 19 8 27 0 14 73 31 7 23 368 238 103 118 199 276 229 553 670 613 503 632 292 122 52 44 46 200 255 46 0 0 5 1 8 7 4 5 1 31 71 46 37 20 8 0 0 0
110 74 16 0 13 32 75 76 46 27 117 445 496 593 363 317 85 38 6 315 405 556 345 231 175 81 39 0 109 324 311 0 0 0 0 0 0 4 0 0 6 29 25 20 7 0 0 0 0
43 50 17 5 2 169 264 141 56 14 17 282 436 698 278 37 78 56 0 73 223 587 254 87 52 80 121 62 9 120 463 307 22 0 0 0 0 1 0 2 0 0 0 0 0 0 0 0 0
49 48 51 51 82 209 195 245 181 8 0 70 579 576 285 109 71 109 141 47 101 240 174 162 106 106 40 38 63 55 138 341 78 42 0 0 0 0 0 0 0 0 0 0 0 0 0 0 0
47 0 64 66 67 145 190 83 162 68 0 0 461 557 308 151 147 108 108 6 65 138 172 252 237 232 67 2 49 53 86 224 245 150 45 16 7 0 0 0 0 0 0 0 0 0 0 0 0
56 66 45 91 97 119 96 26 26 63 7 43 521 504 362 113 122 78 37 0 93 112 143 178 252 212 105 34 43 94 75 93 273 274 216 48 13 2 0 21 7 0 0 0 0 0 0 0 0
0 13 75 68 99 89 61 3 11 11 5 105 545 442 271 165 116 26 1 18 170 45 81 92 287 134 75 70 27 37 105 100 91 192 307 191 56 66 61 47 18 0 0 0 0 0 0 0 0
1 10 40 75 82 26 1 0 0 29 85 158 257 516 357 326 115 8 2 130 161 97 24 53 51 106 159 135 120 27 55 167 138 68 115 298 131 73 65 47 44 16 0 0 0 0 0 0 0
50 35 36 101 41 26 0 10 7 13 86 52 96 126 318 510 501 252 192 171 152 65 13 20 15 91 156 169 140 108 75 25 143 190 68 106 252 139 75 52 42 25 0 0 0 0 0 27 63
1 28 81 70 42 0 0 0 0 67 96 82 97 94 273 323 237 199 172 128 76 60 17 22 3 51 146 333 208 240 216 175 103 68 88 100 113 103 98 95 59 43 19 0 21 37 74 69 67
25 39 114 133 40 8 0 0 17 90 105 63 51 61 109 177 126 117 68 57 66 34 26 37 3 50 171 189 116 142 164 264 224 217 98 97 125 100 117 112 97 64 50 22 89 147 85 134 120
57 95 86 42 17 19 0 0 3 89 86 59 49 42 60 97 25 0 161 98 48 48 58 14 0 26 208 147 135 85 190 238 388 283 163 144 115 100 117 165 151 96 97 131 184 164 216 109 54
47 42 43 1 6 1 0 0 26 53 75 45 45 35 48 30 31 28 170 280 222 134 82 67 25 44 162 177 162 164 185 107 103 229 168 138 168 104 80 109 104 116 139 119 153 166 193 200 116
46 53 29 0 0 1 0 0 0 8 52 50 36 26 16 0 1 26 65 223 256 343 224 122 55 38 108 267 181 164 66 99 98 96 62 66 92 123 88 109 90 96 57 49 50 47 83 132 176
42 60 38 0 2 0 0 0 0 0 5 17 34 36 15 8 0 17 44 44 36 72 293 372 326 182 145 123 172 49 41 89 101 66 44 53 48 79 117 97 80 55 19 40 23 37 31 1 0
25 27 36 13 0 0 0 0 0 0 0 0 1 14 9 13 26 13 4 14 55 56 95 94 141 322 309 287 253 217 199 92 50 82 93 80 44 59 83 44 85 45 45 34 38 50 33 0 0
9 0 0 0 0 0 0 0 0 0 0 0 0 1 1 1 0 1 0 0 0 3 7 15 20 12 10 109 218 195 198 160 108 90 94 72 43 70 40 40 61 38 7 5 7 0 0 0 0
0 0 0 0 0 0 0 0 0 0 0 0 0 0 0 0 0 0 0 0 0 0 0 0 0 0 0 0 64 201 204 181 132 139 96 97 73 63 53 32 14 22 0 1 0 1 0 0 0
17 3 0 0 0 0 0 0 0 0 0 0 0 0 0 0 0 0 0 0 0 0 0 0 0 0 0 0 7 71 58 60 70 90 112 123 111 111 67 16 8 1 11 10 17 12 0 0 0
1 1 1 1 0 0 0 0 0 0 0 0 0 0 0 0 0 0 0 0 0 0 0 0 0 0 0 0 0 0 0 0 0 0 37 94 128 131 38 11 4 3 17 26 8 0 0 0 0
0 0 0 0 0 0 0 0 0 0 0 0 0 0 0 0 0 0 0 0 0 0 0 0 0 0 0 0 0 0 0 0 0 0 0 26 91 58 33 29 18 14 21 0 0 1 0 0 0
0 0 0 0 0 0 0 0 0 0 0 0 0 0 0 0 0 0 0 0 0 0 0 0 0 0 0 0 0 0 0 0 0 0 0 0 20 49 50 43 35 1 0 0 0 0 0 0 0

GFSSGP_con_mucape_096.txt.gz
CAPE
15 28 36 57 0 0 0 0 8 0 12 78 3 27 59 93 1 125 659 497 552 883 1028 884 998 1049 922 778 802 830 799 1258 1218 1338 1569 1165 756 566 139 4 6 41 17 77 291 189 12 8 4
41 52 94 86 4 0 0 2 23 0 0 73 41 15 5 127 668 621 734 522 766 880 971 773 1331 1166 977 668 669 756 791 1476 1041 1322 1332 1001 728 372 84 7 16 252 448 148 15 13 69 62 38
6 73 107 26 0 0 0 18 20 0 0 95 119 0 11 77 485 751 1006 863 829 931 980 790 1346 1145 991 578 549 593 788 1331 1220 1092 809 822 647 232 34 200 331 77 392 237 192 104 67 50 0
24 132 103 27 0 1 9 16 61 0 11 58 85 0 0 94 268 916 1072 984 1062 990 901 948 1283 1182 928 952 687 516 737 1127 894 959 785 828 600 35 38 256 161 166 446 355 98 113 115 48 0
60 70 0 0 0 0 14 38 51 0 14 140 110 17 0 371 199 884 1090 1050 904 923 794 978 1200 1326 1249 928 596 532 633 618 704 660 536 547 246 27 21 124 161 251 288 198 71 89 116 60 21
61 22 0 0 0 0 8 75 39 14 2 19 180 131 61 81 62 796 1002 1028 914 828 797 900 788 1089 1110 583 368 437 470 518 487 639 509 180 93 23 19 24 100 180 263 174 77 70 47 40 31
33 43 0 0 0 0 8 58 80 43 29 29 154 170 30 13 8 354 641 942 875 870 689 732 673 538 596 447 146 161 268 304 410 317 167 187 64 12 20 31 103 135 190 199 95 45 26 17 4
40 82 0 0 0 0 0 21 34 111 61 20 241 150 89 22 12 192 47 769 933 807 691 732 416 33 6 418 105 5 31 44 65 43 13 13 7 13 22 16 117 197 179 139 75 21 0 0 0
64 0 0 0 0 2 0 19 22 93 131 40 129 254 210 194 260 92 2 3 814 834 777 743 278 34 20 132 138 0 0 0 0 3 4 4 4 3 6 2 34 115 113 65 36 6 0 0 0
36 0 0 0 3 21 3 56 0 116 165 117 61 382 541 474 339 133 7 0 49 694 674 573 245 35 176 112 315 15 1 4 3 15 5 3 1 0 0 2 34 89 58 38 4 0 0 0 0
8 0 2 5 0 28 45 102 84 255 152 161 104 172 536 458 219 76 99 48 46 356 397 297 51 18 23 169 553 430 22 1 0 8 11 4 3 4 2 14 2 2 0 0 0 0 0 0 0
2 0 4 0 18 83 36 79 162 214 96 123 123 59 596 477 285 108 85 26 35 167 230 403 125 4 5 225 382 508 436 32 9 0 0 0 0 0 0 0 0 0 0 0 0 0 0 0 0
1 0 0 1 0 26 134 115 187 196 183 139 71 78 202 419 103 39 2 0 19 25 126 458 456 245 97 1 16 324 583 222 80 76 1 0 0 0 0 0 0 0 0 0 0 0 0 0 0
10 16 5 2 3 65 101 88 177 138 191 185 96 62 41 255 130 0 0 0 26 30 111 276 532 353 199 73 24 6 298 522 327 133 90 50 28 0 0 12 22 1 0 0 0 0 0 0 0
26 23 30 63 15 100 140 166 84 56 60 19 35 60 119 229 117 76 1 6 0 25 83 115 263 270 207 146 91 101 25 139 469 377 387 136 68 57 26 82 77 38 10 0 0 0 0 0 0
0 0 29 25 62 103 136 48 17 111 21 16 65 36 232 187 171 154 37 4 5 112 58 134 197 209 352 261 204 199 187 105 113 363 606 462 174 112 110 166 178 66 42 28 7 0 0 0 0
0 127 31 93 97 159 137 69 70 0 0 8 89 75 209 145 189 172 158 78 220 97 55 48 65 121 257 404 282 260 284 352 255 148 177 310 410 215 165 193 205 119 66 33 23 0 0 12 64
48 114 93 97 143 121 110 52 0 0 0 6 18 56 218 145 250 256 108 292 162 73 35 84 82 96 248 440 424 317 263 236 315 374 230 162 292 396 283 234 213 148 85 10 5 0 4 86 171
0 44 85 104 114 90 33 0 0 9 4 2 36 139 338 170 233 304 331 181 142 82 31 61 94 158 349 666 436 428 439 443 335 221 184 249 213 233 231 212 216 147 70 26 19 20 65 134 188
10 48 92 118 57 16 1 0 0 0 7 36 33 59 198 100 154 86 122 42 35 37 19 36 61 88 290 361 323 220 272 459 493 460 427 347 222 167 170 165 169 187 102 102 87 151 223 192 226
100 19 68 26 37 6 0 0 0 1 26 5 42 66 60 81 62 43 65 68 27 60 32 68 49 88 91 300 321 306 358 456 391 387 435 467 303 178 147 86 110 126 171 212 147 107 143 224 173
45 15 62 0 11 0 0 0 0 2 10 12 25 47 78 109 37 0 0 210 165 108 93 87 72 49 99 380 349 237 273 223 252 251 122 61 94 96 92 103 96 38 50 80 72 65 57 139 177
48 73 0 0 0 30 0 0 0 26 42 14 26 23 43 34 24 14 9 73 178 149 152 150 178 124 127 199 239 256 98 42 132 109 48 58 23 28 39 95 85 81 55 54 49 56 41 21 9
89 57 24 73 33 0 0 0 0 0 33 26 55 33 26 16 10 31 39 36 67 54 102 404 355 268 222 151 138 120 45 141 140 100 52 67 65 85 47 107 88 52 39 26 31 16 0 11 9
11 62 0 0 36 0 0 0 0 0 5 4 5 13 0 4 1 0 4 4 16 27 46 41 33 191 325 302 284 277 255 195 153 168 141 60 28 73 36 46 55 34 51 21 23 2 0 0 0
1 0 0 0 0 0 0 0 0 0 0 0 3 7 1 2 6 0 0 8 11 10 23 15 5 4 3 24 280 225 253 353 321 318 215 88 103 87 55 45 49 33 81 21 3 0 0 0 0
0 0 0 0 5 0 0 0 0 1 0 2 4 5 5 3 0 0 1 7 2 0 0 0 0 0 0 0 12 76 226 204 215 219 193 169 151 102 78 113 114 88 54 17 9 0 0 0 1
0 0 0 0 0 0 0 0 0 0 0 0 22 5 0 0 0 0 0 0 0 0 0 0 0 0 0 0 0 0 17 9 30 81 118 109 147 153 173 132 130 37 20 3 7 8 15 23 0
1 1 0 0 0 0 0 0 0 0 0 0 0 0 0 0 0 0 0 0 0 0 0 0 0 0 0 0 0 0 0 0 0 0 0 3 58 151 192 148 49 39 26 22 18 29 6 0 0
0 0 0 0 0 0 0 0 0 0 0 0 0 0 0 0 0 0 0 0 0 0 0 0 0 0 0 0 0 0 0 0 0 0 0 0 3 79 138 135 35 35 31 21 30 1 0 0 0

GFSSGP_con_mucape_099.txt.gz
CAPE
0 14 24 88 38 7 0 0 0 0 0 30 97 54 54 141 128 331 621 432 633 1180 1192 1010 1371 1145 948 850 1163 1219 1217 1715 1647 1539 1507 995 894 588 172 313 695 257 214 467 17 9 9 4 3
0 0 36 43 4 0 0 0 0 0 2 29 92 42 121 275 539 722 883 592 606 1176 1177 697 1162 1131 1077 924 1029 1046 1298 1269 1413 1466 1539 1292 717 360 56 122 330 486 623 411 23 10 11 6 0
1 2 28 12 0 0 0 0 0 0 10 13 87 94 87 215 437 542 1017 778 685 1130 1024 814 1341 1270 1231 984 976 950 1173 1435 1173 1263 1258 982 674 171 12 231 516 567 176 33 90 52 34 0 0
3 5 26 0 0 0 0 0 0 6 25 26 68 100 52 195 262 712 1011 854 812 1075 997 1078 1384 1409 1268 1153 909 940 1294 1166 1116 1106 1099 651 765 363 321 132 333 124 462 249 83 48 0 0 0
0 8 0 0 0 0 0 0 0 2 21 20 45 64 53 87 175 433 1117 951 980 1007 853 1025 1241 1283 1219 980 884 1206 1456 1346 1190 875 689 854 656 204 339 136 167 307 415 86 136 117 49 3 0
15 0 0 0 0 0 0 0 0 1 8 19 28 98 101 57 253 719 1291 1149 1020 940 1063 924 882 1141 1178 948 911 1013 1364 1154 944 789 854 774 391 139 15 20 191 359 267 80 122 123 67 30 0
0 0 0 0 0 0 0 0 0 11 16 18 3 89 103 108 346 949 1065 936 901 860 912 784 799 657 787 670 771 838 1042 866 759 754 702 307 102 118 153 175 242 525 362 115 77 43 32 21 15
0 0 0 0 0 0 0 0 1 12 21 12 33 46 112 161 333 413 118 46 565 584 939 783 742 470 364 126 271 328 451 440 387 331 26 8 10 26 101 92 212 309 474 268 71 25 7 0 0
0 0 0 0 0 0 0 0 0 5 22 22 38 82 126 407 287 106 3 52 73 36 166 759 727 268 12 3 3 22 171 254 368 19 1 4 9 12 5 4 61 210 309 166 51 14 0 0 0
0 0 0 0 0 0 5 3 1 0 28 42 41 70 63 556 360 84 19 3 0 3 5 33 591 40 6 17 0 1 9 51 101 2 1 1 0 5 9 10 49 113 103 78 33 1 0 0 0
0 0 0 0 0 2 4 23 22 13 29 65 31 96 324 631 464 165 86 62 3 0 82 0 294 89 13 82 6 0 0 1 2 3 4 2 0 0 7 11 26 41 13 2 1 0 0 0 0
0 0 0 0 0 4 30 36 50 39 74 97 63 102 218 374 264 218 77 94 76 31 0 4 96 154 167 291 134 6 0 0 8 6 0 3 7 2 2 0 0 0 0 0 0 0 0 0 0
0 2 5 1 0 2 3 20 71 20 38 81 120 157 139 144 349 200 136 114 38 2 5 20 49 66 281 432 536 112 11 2 1 12 10 4 1 0 0 0 0 0 0 0 0 0 0 0 0
23 28 18 9 4 2 6 4 26 45 54 85 223 210 101 45 222 198 165 60 64 45 52 3 172 141 115 207 345 573 71 24 14 2 0 0 0 0 0 0 0 0 0 0 0 0 0 0 0
28 27 26 7 10 14 10 24 40 21 91 161 191 181 150 87 306 95 129 84 51 0 0 4 68 326 236 148 227 465 523 252 57 110 5 0 0 0 0 27 45 19 0 0 0 0 0 0 0
3 0 0 0 10 18 71 0 20 27 129 176 160 229 174 98 158 177 104 78 73 15 15 105 193 268 388 330 232 127 211 604 548 265 250 120 77 78 66 166 124 57 37 22 2 0 0 0 0
10 0 0 0 21 49 60 37 158 136 189 154 150 189 167 100 19 245 125 55 43 104 32 100 226 181 296 436 322 232 144 190 379 555 619 484 266 199 246 253 241 131 95 53 30 4 0 0 19
9 21 27 126 36 32 62 87 177 153 157 127 104 253 60 54 124 202 102 138 119 168 111 85 89 112 113 401 406 295 339 327 259 258 319 506 476 380 297 263 238 222 187 82 25 15 0 14 53
2 0 0 21 0 27 71 73 77 80 45 43 41 164 24 43 111 195 99 182 198 331 171 51 52 101 118 369 379 368 312 344 450 439 319 252 334 444 481 415 332 312 245 135 34 14 20 99 126
16 10 0 102 89 20 67 109 97 45 1 0 25 74 122 196 66 43 105 212 200 181 61 68 51 121 125 218 373 345 514 583 463 476 404 410 332 366 432 371 343 296 278 199 106 82 220 339 173
10 10 33 62 47 64 40 90 33 8 16 14 14 19 143 204 104 16 24 133 129 38 106 38 69 112 168 184 201 345 440 480 482 555 533 514 455 457 439 341 323 300 232 150 248 259 250 260 224
61 29 0 8 19 0 46 0 0 0 3 2 7 26 259 65 23 0 3 83 76 39 57 59 48 58 73 130 134 212 264 290 317 508 422 325 311 286 332 331 223 220 139 114 103 95 121 134 148
42 26 0 0 0 20 0 3 0 1 1 1 0 16 85 45 36 0 0 0 13 12 11 48 79 103 44 69 176 250 223 153 172 265 307 215 189 223 226 221 190 94 86 82 75 69 51 50 38
1 0 0 0 13 52 0 0 9 37 26 4 15 62 112 48 5 0 0 0 86 70 118 106 104 120 139 184 116 156 52 47 65 175 220 168 86 99 94 119 69 67 109 66 29 53 62 23 28
40 0 0 0 0 0 0 3 3 25 3 15 5 31 45 29 34 34 24 29 51 77 103 105 110 254 228 314 241 188 84 22 30 66 98 160 57 27 17 52 27 58 96 65 8 4 22 42 9
8 0 0 0 1 0 0 14 16 8 3 55 49 45 33 15 1 5 34 5 2 21 19 43 49 57 72 123 357 446 430 131 57 53 109 198 103 62 41 30 29 43 27 49 49 47 33 19 3
24 0 0 0 0 0 0 0 0 0 17 25 14 8 8 7 2 15 5 12 11 11 27 13 15 11 1 0 34 262 349 334 444 341 372 383 204 144 112 91 99 58 66 42 99 71 67 7 0
0 0 0 11 0 0 0 0 0 0 0 2 10 0 2 6 1 0 0 0 0 0 1 0 0 0 0 0 0 39 118 212 271 278 275 285 187 69 96 88 143 95 119 93 101 34 9 3 0
2 0 0 0 0 0 0 0 0 0 4 6 0 12 4 1 0 0 0 0 0 0 0 0 0 0 0 0 0 0 0 0 0 11 53 66 66 55 107 91 182 171 184 167 114 9 20 16 18
0 0 0 0 0 0 0 0 0 0 0 0 1 0 0 0 0 0 0 0 0 0 0 0 0 0 0 0 0 0 0 0 0 0 0 0 0 1 31 128 275 194 244 98 73 23 36 29 9

GFSSGP_con_mucape_102.txt.gz
CAPE
0 0 15 13 14 2 0 0 0 0 0 0 0 26 48 50 295 381 472 382 1060 1215 1128 1342 1614 1318 1119 947 1489 1276 1181 1990 1842 1561 1402 1002 910 745 699 819 703 472 349 3 3 8 10 7 17
0 0 1 11 0 0 0 0 0 0 0 0 9 69 61 100 632 896 714 428 1107 1201 1032 951 1513 1347 1025 1284 1298 1618 1108 1952 1776 1457 1630 1531 927 484 867 837 926 877 695 44 6 7 3 0 0
0 0 3 1 0 0 0 0 0 0 0 0 4 64 69 60 518 879 879 588 1241 1179 935 952 1429 1336 1243 1258 1200 1329 1566 1510 1529 1414 1408 1306 1094 332 535 763 815 961 597 270 38 8 0 0 0
0 0 0 0 0 0 0 0 0 0 0 0 0 40 58 51 360 721 904 746 1146 1245 889 1013 1320 1373 1331 1379 1345 1381 1539 1301 1360 1079 1102 1003 992 503 736 673 654 238 332 279 27 0 0 0 0
0 0 0 0 0 0 0 0 0 0 0 0 4 12 90 56 297 846 920 888 1029 1153 997 922 1382 1445 1396 1267 1299 1456 1458 1547 1124 1041 936 798 911 676 543 349 37 433 461 176 55 6 0 0 0
5 0 0 0 0 0 0 0 0 0 0 0 1 11 52 97 112 552 1073 1004 918 1079 988 859 989 1278 1203 1233 1160 1126 1468 1345 1168 1239 914 825 751 559 14 11 11 493 238 169 129 63 21 0 0
0 0 0 0 0 0 0 0 0 0 0 0 2 2 0 205 173 848 1254 1164 877 1034 1000 753 667 884 832 859 897 824 1392 1209 1063 818 678 556 178 7 13 12 212 332 252 227 193 94 57 34 0
0 0 0 0 0 0 0 0 0 0 0 0 0 1 2 190 381 984 1052 1025 801 778 539 582 323 491 435 423 485 530 893 804 711 440 199 94 3 12 37 19 184 243 343 262 185 41 31 22 4
0 0 0 0 0 0 0 0 0 0 0 0 0 0 71 347 415 221 132 152 521 594 501 205 310 182 195 134 256 332 375 337 224 209 163 141 2 9 8 7 25 107 320 215 76 20 0 0 0
0 0 0 0 0 0 0 0 0 0 0 0 0 0 4 332 282 211 97 55 12 129 179 39 66 175 69 80 106 223 260 240 199 174 99 0 2 50 4 5 16 108 146 105 60 17 0 0 0
0 0 0 0 0 0 0 0 0 0 0 0 0 2 0 190 308 152 54 48 40 7 0 2 37 4 37 24 86 110 436 217 117 212 8 0 2 2 5 5 12 11 29 18 7 0 0 0 0
0 0 0 0 0 0 0 0 0 0 0 0 0 0 14 125 244 169 76 105 33 5 0 1 0 0 43 15 3 0 49 87 121 188 0 0 0 0 0 0 2 1 0 0 0 0 0 0 0
0 0 0 0 0 0 0 0 0 0 0 0 0 1 30 69 151 203 175 162 115 47 17 19 21 10 21 44 0 0 10 55 9 89 0 0 0 0 0 0 0 0 0 0 0 0 0 0 0
0 0 0 3 6 0 0 0 0 0 0 0 0 0 12 130 80 84 177 122 149 88 7 1 6 76 102 44 75 0 0 14 74 20 0 1 0 0 0 0 0 0 0 0 0 0 0 0 0
8 0 0 0 1 0 3 0 0 0 0 0 0 0 16 44 75 20 190 108 176 133 75 20 21 141 27 50 157 277 14 0 1 4 3 0 0 0 0 0 0 0 0 0 0 0 0 0 0
0 0 0 0 0 0 0 0 0 0 0 0 0 24 65 68 121 75 72 51 77 76 113 93 35 32 25 84 172 274 195 14 0 0 0 0 0 0 0 5 22 18 1 0 0 0 0 0 0
0 0 0 0 0 0 0 0 0 0 0 0 0 129 17 35 149 257 192 147 63 51 33 116 28 0 12 14 57 88 129 179 94 113 37 40 35 11 54 107 74 48 38 9 9 0 0 0 0
0 0 0 0 1 0 0 0 0 1 0 0 146 144 71 67 142 333 236 199 112 72 97 118 17 0 0 3 132 158 84 168 238 331 292 216 106 131 137 192 172 125 75 52 28 13 0 0 6
0 0 0 0 3 0 0 0 0 1 0 29 118 164 309 265 172 340 260 169 87 104 130 120 73 1 0 45 182 246 261 219 212 310 425 430 344 238 236 240 199 192 159 82 59 27 12 0 46
11 0 0 0 35 0 0 0 0 5 0 41 23 73 135 232 244 271 211 116 178 49 81 88 80 67 57 56 151 269 350 391 405 371 269 239 358 423 344 324 283 261 247 228 120 23 17 65 131
0 0 0 0 0 11 16 4 6 30 52 12 8 1 3 188 241 159 81 57 76 83 72 39 70 46 86 92 81 131 163 300 384 417 397 293 279 306 400 356 317 276 285 253 199 159 175 179 148
0 13 20 0 0 5 0 0 4 8 0 0 0 17 6 273 180 160 83 54 28 46 43 36 40 56 89 86 56 128 112 91 149 336 384 404 415 343 319 280 305 277 233 184 194 222 199 153 114
0 0 0 0 0 0 0 0 0 0 1 1 0 11 208 145 113 42 0 1 59 21 28 35 59 78 77 62 54 65 58 87 89 117 147 166 229 255 261 271 278 253 227 176 193 189 148 103 36
0 0 0 1 0 0 0 1 10 0 0 16 127 286 141 65 33 0 0 0 3 40 34 38 57 37 63 89 74 55 63 54 46 65 109 124 101 111 151 187 185 163 131 146 153 133 130 86 16
0 0 1 0 0 0 0 0 40 5 39 18 49 60 67 14 0 0 0 0 0 8 0 40 58 70 59 82 124 86 79 47 22 53 94 110 54 34 30 79 68 67 107 140 110 21 12 53 21
0 0 0 0 0 1 0 0 34 22 20 26 121 29 0 0 0 2 22 23 17 0 0 0 53 75 62 85 117 90 63 50 45 34 26 8 22 21 29 31 50 36 42 88 61 7 5 39 72
0 0 0 0 0 1 0 7 2 24 59 5 33 20 27 4 26 34 17 21 19 13 11 16 16 14 6 6 25 286 381 393 292 97 57 52 33 45 61 59 82 69 29 23 23 38 3 2 23
0 0 0 0 0 0 5 0 0 0 36 14 30 0 1 0 15 7 10 9 17 16 11 0 0 0 0 0 2 41 104 158 430 360 336 228 167 119 90 85 64 68 62 53 37 89 23 78 73
0 0 0 0 0 0 0 1 0 0 0 6 4 3 1 10 3 0 0 0 1 0 0 0 0 0 0 0 0 0 0 0 0 6 55 107 79 89 90 92 73 33 116 196 192 145 37 130 60
0 0 0 0 0 0 0 0 0 0 0 0 0 0 0 0 0 0 0 0 0 0 0 0 0 0 0 0 0 0 0 0 0 0 0 0 1 1 2 3 1 22 71 187 200 174 110 82 23

GFSSGP_con_mucape_105.txt.gz
CAPE
0 0 0 11 0 0 0 0 0 0 0 0 0 0 17 148 146 49 508 1055 1140 1076 1273 1363 1598 1494 1191 906 930 1174 1854 1973 1649 1644 1204 1082 930 625 769 407 741 573 235 21 11 14 22 7 1
0 0 0 1 0 0 0 0 0 0 0 0 0 0 35 332 831 696 371 1139 1251 1175 1192 1239 1584 1522 1048 1030 1098 976 1398 2077 1829 1569 1681 1458 862 877 949 801 694 392 19 6 7 7 8 7 0
0 0 0 0 0 0 0 0 0 0 0 0 0 16 34 463 833 908 722 1100 1308 1215 1167 1164 1532 1477 1152 1302 1415 1229 1222 2022 1790 1536 1703 1395 1115 1217 828 1174 915 625 280 79 6 1 0 0 0
0 0 0 0 0 0 0 0 0 0 0 0 0 56 50 325 687 935 1063 1225 1313 1166 1106 1293 1479 1500 1392 1559 1384 1447 1192 1678 1800 1490 1324 1192 1243 996 835 1154 725 591 412 200 7 0 0 0 0
0 0 0 0 0 0 0 0 0 0 0 0 0 12 54 750 905 848 1021 1283 1251 1161 1092 1190 1472 1547 1514 1488 1427 1633 1625 1346 1565 1357 1230 986 946 844 1003 843 406 511 375 6 0 0 0 0 0
0 0 0 0 0 0 0 0 0 0 0 0 0 0 43 614 856 817 925 1137 1313 1153 1042 1019 1254 1326 1408 1494 1359 1538 1367 1492 1197 1166 1320 1079 957 876 761 398 304 453 153 17 6 0 0 0 0
0 0 0 0 0 0 0 0 0 0 0 0 0 0 0 120 403 906 872 979 1249 1213 1098 883 769 894 1035 1180 1066 1190 1198 1403 1130 978 979 732 601 527 204 27 387 487 313 356 81 34 16 5 0
0 0 0 0 0 0 0 0 0 0 0 0 0 0 0 67 825 1054 956 833 968 968 792 645 663 468 432 639 552 643 705 915 764 529 403 235 28 11 14 15 109 382 475 391 246 72 57 39 17
0 0 0 0 0 0 0 0 0 0 0 0 0 0 13 326 511 569 478 304 229 251 515 644 567 493 175 115 339 404 524 663 362 343 144 76 10 1 5 7 19 125 255 221 64 34 30 14 0
0 0 0 0 0 0 0 0 0 0 0 0 0 0 117 393 295 217 204 209 156 161 178 404 512 346 120 2 0 191 317 379 319 201 129 84 46 2 5 12 16 66 107 77 53 22 3 0 0
0 0 0 0 0 0 0 0 0 0 0 0 0 0 0 10 239 162 132 105 48 27 84 123 172 34 56 22 0 0 79 224 298 218 134 61 92 5 12 19 10 19 12 8 19 3 0 0 0
0 0 0 0 0 0 0 0 0 0 0 0 0 0 0 0 2 131 167 106 21 30 3 4 0 8 51 8 1 0 41 157 235 166 112 107 24 3 7 15 12 10 3 0 0 0 0 0 0
0 0 0 0 0 0 0 0 0 0 0 0 0 0 0 0 0 0 112 99 38 27 10 14 0 3 0 7 2 3 34 59 217 90 69 11 37 3 10 2 2 1 0 0 0 0 0 0 0
0 0 0 0 0 0 0 0 0 0 0 0 0 0 0 0 0 0 105 78 136 77 30 12 19 0 0 0 0 4 22 61 104 103 18 6 0 0 3 0 0 0 0 0 0 0 0 0 0
0 0 0 0 0 0 0 0 0 0 0 0 0 0 0 0 0 0 4 56 151 127 75 17 79 33 28 18 58 14 8 43 55 43 26 1 0 0 0 0 0 0 0 0 0 0 0 0 0
0 0 0 0 0 0 0 0 0 0 0 0 0 0 0 0 0 0 44 181 220 181 124 35 93 197 38 61 5 32 52 14 58 63 9 0 3 0 0 0 0 0 0 0 0 0 0 0 0
0 0 0 0 0 0 0 0 0 0 0 0 0 0 0 0 3 0 93 146 147 147 104 66 155 147 80 59 0 60 72 42 102 107 78 54 0 0 0 0 0 0 0 0 0 0 0 0 0
0 0 0 0 0 5 0 0 0 0 0 0 0 0 0 28 12 11 255 211 203 111 71 55 67 86 87 25 0 128 90 199 141 115 62 33 0 0 46 29 56 44 30 16 12 8 9 0 0
0 0 0 0 0 0 0 0 0 0 0 0 0 0 2 48 120 138 308 273 210 135 45 17 93 34 22 81 11 92 94 84 142 219 142 97 56 37 91 171 128 103 86 70 46 36 17 0 0
0 0 0 0 0 2 0 0 0 0 0 0 0 6 9 81 178 317 318 239 200 120 78 45 49 33 55 10 66 43 19 53 91 156 254 286 156 174 169 272 266 236 187 120 93 63 48 19 4
0 0 0 0 0 0 0 0 0 0 0 0 0 0 12 39 171 310 271 185 175 118 104 86 91 102 84 28 53 14 32 113 127 162 123 224 286 300 312 339 299 276 274 239 208 138 106 122 136
2 0 0 0 0 0 0 0 0 0 0 0 0 1 12 3 266 214 171 123 100 88 92 81 69 31 71 63 56 45 45 75 70 105 195 310 382 410 456 409 409 393 356 311 266 202 162 164 164
0 0 0 0 0 0 0 0 0 0 0 0 0 2 49 303 194 146 100 72 59 62 54 50 48 72 51 60 51 61 60 55 76 111 116 147 169 257 370 318 288 268 212 158 175 118 137 153 109
2 0 0 0 0 0 0 0 0 0 0 0 0 10 233 178 98 56 46 11 28 12 24 12 32 31 46 44 27 32 74 71 77 98 81 70 107 133 178 196 180 215 173 150 139 122 114 95 98
0 0 2 1 0 0 0 0 6 0 0 0 72 128 119 84 48 28 12 1 18 37 30 2 38 19 35 25 41 55 56 56 43 37 46 57 53 52 88 118 133 76 55 41 83 98 128 150 172
0 0 0 0 0 0 0 4 8 8 4 1 0 11 1 3 8 0 0 0 28 20 4 0 18 32 31 34 52 79 61 63 73 56 41 60 89 67 31 21 39 58 39 19 40 77 170 67 76
0 0 0 0 0 1 7 0 0 3 0 0 0 0 0 5 4 0 0 0 0 0 0 0 6 57 38 26 16 37 79 108 71 72 70 65 37 25 29 7 11 15 42 37 35 59 10 3 8
0 0 0 0 0 0 0 0 57 8 21 9 0 0 2 4 1 8 1 5 2 1 4 1 0 0 0 5 64 107 210 207 188 173 146 110 59 47 32 20 33 61 38 61 32 42 44 36 1
0 0 0 0 0 0 1 3 1 0 1 1 6 0 0 2 0 1 1 11 5 0 0 0 0 0 0 0 0 3 7 5 19 53 86 168 116 111 82 68 47 78 59 154 148 86 67 47 25
0 0 0 0 0 0 0 3 0 0 0 0 0 4 14 0 0 0 0 0 0 0 0 0 0 0 0 0 0 0 0 0 0 0 0 0 0 0 3 19 51 91 102 145 221 123 100 149 119

GFSSGP_con_mucape_108.txt.gz
CAPE
0 0 0 0 0 0 0 0 0 0 0 0 0 0 0 0 11 9 897 907 893 841 1232 1352 1537 1455 1343 1195 1321 1996 2003 1930 1797 1677 1352 1257 819 556 592 889 729 615 151 173 52 71 5 83 113
0 0 0 9 0 0 0 0 0 0 0 0 0 0 0 20 713 583 970 974 974 1147 1222 1144 1672 1548 1158 959 799 1515 2082 1936 1726 1530 1706 1410 856 921 619 819 593 240 29 20 18 8 0 64 59
0 0 0 0 0 0 0 0 0 0 0 0 0 0 0 484 647 576 561 1130 1029 1150 1130 1157 1675 1549 1191 1176 837 871 1719 1989 1864 1483 1732 1611 1122 1152 773 849 726 443 139 10 8 7 1 0 0
0 0 0 0 0 0 0 0 0 0 0 0 0 0 0 506 874 760 997 1201 1098 1112 1153 1409 1597 1563 1439 1642 1546 829 1444 1934 1772 1590 1397 1447 1223 1122 1187 1021 491 260 143 7 0 0 0 0 0
0 0 0 0 0 0 0 0 0 0 0 0 0 0 0 284 628 784 1137 1238 1145 1068 1120 1344 1656 1581 1753 1556 1550 1432 1287 1877 1663 1525 1118 1274 1136 1139 828 855 624 454 327 2 0 0 0 0 0
0 0 0 0 0 0 0 0 0 0 0 0 0 0 0 0 639 934 1176 1271 1187 1046 1141 1245 1456 1442 1495 1516 1422 1676 1778 1700 1524 1508 1281 1307 1068 905 915 751 678 372 20 0 0 0 0 0 0
0 0 0 0 0 0 0 0 0 0 0 0 0 0 0 110 237 597 1124 1182 1097 1094 1041 1081 920 822 1129 1259 1364 1499 1570 1261 1331 1438 1101 1003 726 789 881 611 678 248 19 3 1 0 0 0 0
0 0 0 0 0 0 0 0 0 0 0 0 0 0 0 0 219 418 599 985 958 988 825 734 583 463 443 544 556 722 984 934 1110 884 510 609 368 387 631 223 406 464 443 266 124 24 17 1 0
0 0 0 0 0 0 0 0 0 0 0 0 0 0 0 38 173 173 139 136 377 798 737 548 429 326 275 278 270 328 569 708 792 520 319 312 69 79 0 0 120 370 519 438 183 72 74 41 0
0 0 0 0 0 0 0 0 0 0 0 0 0 0 0 0 6 17 184 192 202 243 299 302 295 236 106 116 74 107 279 245 501 278 250 142 35 13 13 3 13 99 143 127 92 55 29 0 0
0 0 0 0 0 0 0 0 0 0 0 0 0 0 0 0 0 0 25 83 175 181 158 159 133 129 111 62 69 36 229 62 262 243 232 52 25 43 23 17 13 13 12 0 14 5 0 0 0
0 0 0 0 0 0 0 0 0 0 0 0 0 0 0 0 0 0 0 47 82 148 176 150 127 86 72 44 68 39 0 134 101 296 243 90 94 112 35 16 16 9 0 0 0 0 0 0 0
0 0 0 0 0 0 0 0 0 0 0 0 0 0 0 0 0 0 0 0 37 48 59 123 100 97 82 53 53 41 13 0 266 245 235 142 168 99 84 7 10 22 0 0 0 0 0 0 0
0 0 0 0 0 0 0 0 0 0 0 0 0 0 0 0 0 0 0 0 52 66 39 10 0 8 0 0 0 5 0 9 106 181 222 224 152 172 235 1 3 15 0 0 0 0 0 0 0
0 0 0 0 0 0 0 0 0 0 0 0 0 0 0 0 0 0 0 0 34 100 71 36 7 0 0 0 0 0 0 50 69 116 178 142 167 107 15 0 10 2 11 0 0 0 0 0 0
0 0 0 0 0 0 0 0 0 0 0 0 0 0 0 0 0 0 0 0 50 97 92 53 33 56 1 0 0 0 0 39 71 42 134 61 77 21 1 2 1 10 15 24 0 0 0 0 0
0 0 0 0 0 0 0 0 0 0 0 0 0 0 0 0 0 0 0 0 144 228 160 120 71 119 114 45 58 10 0 8 57 0 19 19 71 14 23 45 92 29 0 0 0 0 0 0 0
0 0 0 0 0 0 0 0 0 0 0 0 0 0 0 0 0 0 0 7 145 247 202 176 127 138 188 82 62 35 10 0 0 14 63 37 7 9 29 39 5 0 0 0 0 0 0 3 15
0 0 0 0 0 0 0 0 0 0 0 0 0 0 0 0 0 0 0 132 209 220 186 158 162 131 139 13 28 57 72 30 26 0 40 72 68 49 65 75 15 0 0 0 19 22 10 30 21
0 0 0 0 0 0 0 0 0 0 0 0 0 0 0 0 0 0 74 214 250 211 203 189 157 100 72 32 40 65 115 54 22 29 18 85 93 79 96 51 50 50 70 61 33 42 52 42 25
0 0 0 0 0 0 0 0 0 0 0 0 0 0 0 2 5 84 245 285 302 299 248 159 138 92 55 25 39 62 87 78 51 17 81 119 124 141 171 225 163 166 172 131 138 122 105 102 75
0 0 0 0 0 0 0 0 0 0 0 0 0 0 0 47 41 218 341 297 293 269 240 140 102 57 26 13 45 44 65 68 20 19 61 107 204 248 227 242 353 382 335 270 276 206 171 120 110
0 0 0 0 0 0 0 0 0 0 0 0 0 0 0 0 84 244 295 260 195 170 185 155 112 82 24 48 69 11 30 28 26 41 75 55 98 194 291 303 390 421 427 356 310 222 163 103 74
2 0 0 0 0 1 0 0 1 0 0 0 0 0 0 98 122 224 174 113 97 153 105 116 93 53 42 64 51 18 10 9 11 13 45 67 52 48 120 201 218 182 192 173 141 126 103 103 83
0 0 0 0 0 0 0 0 0 0 1 0 0 29 75 162 103 98 49 74 211 144 108 82 75 64 59 66 66 40 8 25 46 41 48 75 70 66 62 67 96 134 159 142 116 93 100 78 83
0 0 0 0 0 0 0 0 0 35 26 49 41 18 0 47 21 13 32 52 57 49 53 39 36 38 52 12 49 50 47 46 55 40 46 62 64 65 70 41 45 60 73 85 62 51 55 56 60
0 0 0 0 0 0 0 0 0 0 0 0 0 0 0 22 0 0 0 0 4 8 0 0 21 0 20 6 24 60 53 58 62 63 89 66 42 44 52 38 38 22 29 45 41 26 16 28 62
0 0 0 0 0 0 0 0 0 0 0 0 0 0 0 0 0 0 0 0 0 0 0 0 4 14 18 36 43 34 64 61 65 62 66 66 74 49 38 13 16 24 18 15 13 23 19 40 40
0 0 0 0 0 0 1 0 0 0 0 0 0 0 0 0 0 0 0 0 0 0 0 0 1 0 7 14 17 24 35 51 67 71 74 108 89 100 111 94 60 46 53 49 45 38 38 52 70
0 0 0 0 0 0 0 0 0 0 0 1 0 0 0 0 0 0 0 0 0 0 0 0 0 0 0 2 1 0 0 0 0 0 0 1 0 0 0 0 3 23 68 58 83 54 81 91 107

GFSSGP_con_mucape_111.txt.gz
CAPE
0 0 0 0 0 0 0 0 0 0 0 0 0 0 0 0 0 0 680 883 824 892 1196 1280 1555 1604 1889 2147 2211 1999 1895 1900 1645 1069 780 736 146 394 843 949 705 437 544 374 190 14 21 63 45
0 0 0 0 0 0 0 0 0 0 0 0 0 0 0 0 498 486 891 821 801 1079 1184 1082 1518 1520 1389 1515 1787 1970 1735 1619 1670 1603 1274 1106 456 761 1032 929 785 633 267 26 16 20 46 109 11
0 0 0 0 0 0 0 0 0 0 0 0 0 0 0 0 642 566 673 942 819 1083 1138 1115 1612 1618 1352 1044 1375 1821 1931 1775 1642 1412 1609 1498 1102 889 965 863 764 353 356 8 19 12 52 6 0
0 0 0 0 0 0 0 0 0 0 0 0 0 0 0 25 478 572 825 973 1004 1098 1055 1436 1649 1621 1532 1366 1116 1464 1752 1682 1738 1438 1346 1413 1065 1139 894 968 446 225 190 29 7 7 0 0 0
0 0 0 0 0 0 0 0 0 0 0 0 0 0 0 0 347 596 1084 1035 987 1037 1090 1453 1748 1664 1745 1731 1366 1090 1645 1820 1684 1560 1177 1191 1193 1062 947 684 332 168 24 2 0 0 0 0 0
0 0 0 0 0 0 0 0 0 0 0 0 0 0 0 0 122 439 960 971 996 1027 1158 1281 1554 1592 1723 1644 1822 1305 1610 1898 1687 1394 1478 1394 1202 881 1002 458 404 116 4 0 0 0 0 0 0
0 0 0 0 0 0 0 0 0 0 0 0 0 0 0 0 0 12 410 596 697 918 1120 1187 1301 1264 1377 1359 1510 1552 1444 1741 1526 1304 1363 1054 1074 735 834 555 408 57 0 0 0 0 0 0 0
0 0 0 0 0 0 0 0 0 0 0 0 0 0 0 0 0 78 55 149 185 534 808 1054 978 839 876 890 848 1072 1355 1144 1159 944 1024 720 521 419 702 477 379 233 34 32 2 0 0 0 0
0 0 0 0 0 0 0 0 0 0 0 0 0 0 0 0 0 0 109 121 73 128 499 609 549 473 481 447 381 397 666 797 777 775 732 569 329 251 225 144 186 244 239 197 20 15 31 11 0
0 0 0 0 0 0 0 0 0 0 0 0 0 0 0 0 0 0 0 10 225 92 100 346 358 265 295 243 153 133 421 404 505 580 456 377 214 142 0 7 74 361 324 268 175 122 56 0 0
0 0 0 0 0 0 0 0 0 0 0 0 0 0 0 0 0 0 0 0 2 44 64 106 150 182 195 118 77 55 76 140 313 446 318 259 146 45 0 0 5 27 79 59 68 30 0 0 0
0 0 0 0 0 0 0 0 0 0 0 0 0 0 0 0 0 0 0 0 0 0 67 79 116 135 124 113 87 50 41 77 57 266 234 208 33 53 0 20 11 2 16 14 11 0 0 0 0
0 0 0 0 0 0 0 0 0 0 0 0 0 0 0 0 0 0 0 0 0 0 0 47 86 116 105 100 79 49 16 10 60 128 135 200 17 39 10 33 18 4 3 9 4 0 0 0 0
0 0 0 0 0 0 0 0 0 0 0 0 0 0 0 0 0 0 0 0 0 0 0 7 55 81 94 75 71 47 44 10 27 40 115 102 47 47 35 82 38 0 0 1 0 0 0 0 0
0 0 0 0 0 0 0 0 0 0 0 0 0 0 0 0 0 0 0 0 0 0 0 0 0 19 24 56 64 12 48 12 78 58 45 139 107 118 40 86 68 4 0 0 1 1 0 0 0
0 0 0 0 0 0 0 0 0 0 0 0 0 0 0 0 0 0 0 0 0 0 0 11 2 0 0 0 0 0 0 0 62 63 31 87 64 151 199 104 28 6 20 0 0 4 0 0 0
0 0 0 0 0 0 0 0 0 0 0 0 0 0 0 0 0 0 0 0 0 0 5 48 58 1 0 0 0 2 0 0 3 75 51 32 86 98 158 132 33 2 29 20 21 1 0 0 0
0 0 0 0 0 0 0 0 0 0 0 0 0 0 0 0 0 0 0 0 0 0 60 113 114 71 66 20 14 13 14 14 0 80 40 27 17 32 10 68 51 40 78 52 31 0 0 0 0
0 0 0 0 0 0 0 0 0 0 0 0 0 0 0 0 0 0 0 0 0 0 88 143 139 133 126 97 149 169 86 36 2 54 40 22 11 4 22 32 74 95 94 50 58 2 0 0 5
0 0 0 0 0 0 0 0 0 0 0 0 0 0 0 0 0 0 0 0 6 64 131 164 193 173 128 144 111 49 43 41 5 29 87 60 26 7 41 28 1 96 53 61 37 0 0 19 26
0 0 0 0 0 0 0 0 0 0 0 0 0 0 0 0 0 0 0 0 29 120 183 213 197 185 114 160 77 46 26 46 44 28 77 102 78 32 42 20 32 103 79 86 48 27 33 58 47
0 0 0 0 0 0 0 0 0 0 0 0 0 0 0 0 0 0 19 53 149 193 206 212 221 191 127 121 64 36 19 43 42 84 82 83 112 71 92 79 73 96 121 94 96 115 76 80 78
0 2 0 0 0 0 0 0 1 0 0 0 0 0 0 0 0 22 89 162 189 265 237 229 180 150 107 74 39 29 38 32 19 39 82 72 54 90 99 96 98 162 191 247 260 202 198 164 136
2 0 0 0 0 0 0 0 0 0 1 0 0 0 0 0 6 158 199 264 247 235 205 208 179 126 68 53 51 27 26 17 20 40 37 53 61 42 49 82 107 217 298 316 303 248 206 175 117
0 0 0 0 0 0 0 0 0 2 7 6 0 2 59 67 72 142 176 164 204 127 149 168 89 55 55 63 42 34 30 9 28 31 6 47 46 59 46 28 63 93 108 150 120 82 116 88 88
0 0 0 0 0 0 0 0 0 0 19 36 29 13 27 6 0 7 68 32 18 51 92 106 60 44 36 31 17 17 15 12 17 23 21 43 19 21 33 56 31 44 48 48 68 64 62 67 67
0 0 0 0 0 0 0 0 0 0 0 0 0 0 0 0 0 0 0 0 8 18 0 50 31 39 44 16 15 17 29 24 38 49 43 39 43 60 60 52 44 25 35 34 45 43 42 44 36
0 0 0 0 0 0 0 0 0 0 0 0 0 0 0 0 0 0 0 0 0 0 0 0 0 17 10 27 30 33 38 38 50 60 63 53 54 46 44 29 30 28 18 32 24 14 23 36 25
0 0 0 0 0 0 0 0 0 0 0 0 0 0 0 0 0 0 0 0 0 0 0 0 0 0 1 0 2 33 35 36 45 39 50 62 66 50 31 36 38 33 32 24 31 17 12 18 11
0 0 0 0 0 0 0 0 0 0 0 0 0 0 0 0 0 0 0 0 0 0 0 0 0 0 0 0 0 0 0 0 2 10 2 1 0 0 0 0 0 3 3 11 40 5 47 68 8

GFSSGP_con_mucape_114.txt.gz
CAPE
0 0 0 0 0 0 0 0 0 0 0 0 0 0 0 0 0 0 530 870 738 894 1415 1459 1859 2173 2109 1938 1964 1995 1884 1736 1265 880 1054 500 360 586 622 169 173 371 621 88 15 20 7 57 12
0 0 0 0 0 0 0 0 0 0 0 0 0 0 0 0 46 335 732 875 764 1098 1286 1202 1795 2103 2206 2177 1947 1715 1918 1818 1462 644 957 502 280 791 957 577 585 585 556 296 34 29 20 23 2
0 0 0 0 0 0 0 0 0 0 0 0 0 0 0 0 288 499 712 821 928 1148 1144 1066 1700 1825 1990 2133 1885 1752 1755 1718 1547 1447 1512 1174 663 1092 1018 934 881 670 305 66 93 50 45 0 0
0 0 0 0 0 0 0 0 0 0 0 0 0 0 0 0 0 388 598 778 1020 1138 1070 1294 1681 1703 1677 1906 2137 1986 1673 1414 1433 1409 1057 1326 1340 1235 890 830 681 313 107 42 43 45 1 0 0
0 0 0 0 0 0 0 0 0 0 0 0 0 0 0 0 0 149 551 846 908 1062 1089 1357 1771 1786 1619 1515 1775 2085 2040 1899 1676 1467 1199 1079 1159 998 820 751 501 329 105 18 27 6 0 0 0
0 0 0 0 0 0 0 0 0 0 0 0 0 0 0 0 0 22 298 583 836 913 1204 1377 1567 1705 1741 1568 1333 1649 2052 2076 1881 1743 1508 1238 1265 960 861 424 333 38 3 7 4 0 0 0 0
0 0 0 0 0 0 0 0 0 0 0 0 0 0 0 0 0 1 43 156 570 858 801 1059 1397 1429 1484 1589 1610 1201 1749 1949 1800 1614 1535 1062 703 794 869 452 186 1 2 0 0 0 0 0 0
0 0 0 0 0 0 0 0 0 0 0 0 0 0 0 0 0 0 6 26 56 428 585 593 921 1041 900 1055 1237 1242 1125 1587 1506 1244 1146 787 530 473 706 278 208 152 2 0 0 0 0 0 0
0 0 0 0 0 0 0 0 0 0 0 0 0 0 0 0 0 0 13 0 10 76 104 152 473 668 695 712 763 843 1141 1130 1036 977 998 687 474 425 304 151 128 80 4 9 0 0 0 0 0
0 0 0 0 0 0 0 0 0 0 0 0 0 0 0 0 0 0 0 25 2 10 126 66 153 368 344 450 414 454 683 687 677 737 729 665 399 342 243 109 100 93 76 80 41 14 0 0 0
0 0 0 0 0 0 0 0 0 0 0 0 0 0 0 0 0 0 0 0 9 3 10 58 59 147 144 179 138 263 414 397 361 427 546 493 382 261 142 31 48 80 68 12 41 49 0 0 0
0 0 0 0 0 0 0 0 0 0 0 0 0 0 0 0 0 0 0 0 0 0 0 0 22 91 72 85 90 65 208 207 263 367 367 366 276 207 58 14 17 35 28 12 24 12 0 0 0
0 0 0 0 0 0 0 0 0 0 0 0 0 0 0 0 0 0 0 0 0 0 0 0 57 62 127 116 82 49 52 78 120 233 374 326 296 177 112 4 6 30 18 9 16 4 0 0 0
0 0 0 0 0 0 0 0 0 0 0 0 0 0 0 0 0 0 0 0 0 0 0 0 4 76 122 153 109 54 33 18 3 48 188 209 228 164 184 76 4 80 28 11 18 0 0 0 0
0 0 0 0 0 0 0 0 0 0 0 0 0 0 0 0 0 0 0 0 0 0 0 0 1 41 67 102 92 55 29 4 0 2 60 164 217 138 65 118 34 55 71 6 3 2 0 0 0
0 0 0 0 0 0 0 0 0 0 0 0 0 0 0 0 0 0 0 0 0 0 0 0 0 4 41 59 83 61 39 23 1 50 39 79 143 160 125 58 45 47 131 9 3 1 0 0 0
0 0 0 0 0 0 0 0 0 0 0 0 0 0 0 0 0 0 0 0 0 0 0 0 0 0 0 10 18 54 35 0 0 38 53 69 115 150 153 120 87 94 48 31 21 11 1 0 0
0 0 0 0 0 0 0 0 0 0 0 0 0 0 0 0 0 0 0 0 0 0 0 0 0 0 6 0 0 0 0 0 0 0 52 55 63 129 150 174 100 111 36 24 107 53 66 12 0
0 0 0 0 0 0 0 0 0 0 0 0 0 0 0 0 0 0 0 0 0 0 0 0 0 10 19 11 2 2 3 6 0 0 20 59 40 79 130 182 130 156 106 81 96 131 112 47 5
0 0 0 0 0 0 0 0 0 0 0 0 0 0 0 0 0 0 0 0 0 0 0 0 18 56 75 53 52 6 51 48 74 10 11 68 45 64 84 86 71 59 44 73 82 131 145 44 30
0 0 0 0 0 0 0 0 0 0 0 0 0 0 0 0 0 0 0 0 0 0 0 0 39 104 121 151 98 79 100 15 18 10 5 85 103 76 83 34 27 24 17 15 25 94 151 52 57
0 0 0 0 0 0 0 0 0 0 0 0 0 0 0 0 0 0 0 0 0 0 0 37 93 155 196 185 103 115 55 5 12 5 14 35 113 70 65 82 38 2 0 19 55 126 118 128 90
0 0 0 0 0 0 0 0 0 2 0 0 0 0 0 0 0 0 0 0 2 40 62 116 176 202 151 144 107 91 50 37 33 37 30 28 29 63 84 85 38 40 11 22 78 114 133 137 159
0 0 0 0 0 0 0 0 0 0 0 0 6 2 3 0 0 0 4 92 173 146 172 176 187 168 141 152 97 97 82 47 27 27 47 42 52 37 78 101 105 51 57 40 55 120 133 184 172
0 0 0 0 0 1 0 0 0 1 0 3 10 13 17 6 0 0 82 124 145 187 166 154 144 152 181 154 123 86 52 31 18 7 28 31 33 54 63 23 67 76 48 63 94 95 118 121 115
0 0 0 0 0 0 0 0 0 0 2 0 12 14 1 0 0 4 41 72 133 135 128 183 109 140 132 162 99 91 55 32 14 4 46 21 32 26 39 29 26 32 43 58 69 60 42 56 64
0 0 0 0 0 0 0 0 0 0 0 0 0 0 0 0 0 0 0 37 52 67 62 73 116 111 102 53 34 14 20 21 21 9 2 10 18 12 37 40 47 47 59 67 56 49 34 34 53
0 0 0 0 0 0 0 0 0 0 0 0 0 0 0 0 0 0 0 0 0 34 65 42 71 68 48 13 9 13 19 34 50 51 40 51 47 52 32 36 55 52 61 52 26 10 12 34 26
0 0 0 0 0 0 0 0 0 0 0 0 0 0 0 0 0 0 0 0 0 0 0 0 0 0 0 12 1 29 19 27 32 23 34 56 47 44 46 28 46 38 43 30 14 27 42 32 12
0 0 0 0 0 0 0 0 0 0 0 0 0 0 0 0 0 0 0 4 0 0 0 0 0 0 6 0 0 10 42 47 50 49 48 48 25 13 1 1 16 36 30 76 27 26 20 14 66

GFSSGP_con_mucape_117.txt.gz
CAPE
0 0 0 0 0 0 0 0 0 0 0 0 0 0 0 0 0 0 327 614 699 1049 1656 1622 2388 2115 2189 1973 2133 2015 1918 1727 1584 1503 948 589 249 288 348 116 97 425 50 16 58 71 10 19 11
0 0 0 0 0 0 0 0 0 0 0 0 0 0 0 0 89 340 635 690 749 1286 1669 1346 2328 2262 2188 2002 1901 1899 1871 1691 1399 1309 956 471 520 750 374 452 522 683 511 199 161 19 13 10 6
0 0 0 0 0 0 0 0 0 0 0 0 0 0 0 0 3 90 372 630 959 1373 1457 1341 2151 2263 2194 2050 1847 1849 1850 1727 1419 922 1274 1081 1094 963 781 1024 899 897 516 225 51 12 13 0 0
0 0 0 0 0 0 0 0 0 0 0 0 0 0 0 0 0 0 253 721 1217 1317 1253 1401 1858 1886 2017 1947 2110 1983 1845 1839 1739 1550 1524 1233 1174 1128 1022 899 884 617 277 251 127 39 0 0 0
0 0 0 0 0 0 0 0 0 0 0 0 0 0 0 0 0 0 254 1129 1213 1273 1223 1354 1846 1811 1623 2091 2132 2113 2008 1929 1786 1746 1364 1455 1403 840 1131 984 579 342 209 299 104 4 0 0 0
0 0 0 0 0 0 0 0 0 0 0 0 0 0 0 0 0 0 226 718 1077 1050 1188 1316 1333 1410 1641 1440 1663 1843 2039 1911 1868 1739 1693 1554 1448 993 800 839 512 216 112 75 51 0 0 0 0
0 0 0 0 0 0 0 0 0 0 0 0 0 0 0 0 0 0 63 64 427 658 902 1268 1198 1123 1464 1452 1318 1465 1572 1616 1606 1536 1407 1214 1109 1031 747 722 558 236 78 74 59 0 0 0 0
0 0 0 0 0 0 0 0 0 0 0 0 0 0 0 0 0 0 0 13 46 360 572 535 994 1183 1331 1334 1253 1008 1090 1366 1345 1345 1180 1059 721 565 689 354 310 238 138 104 14 0 0 0 0
0 0 0 0 0 0 0 0 0 0 0 0 0 0 0 0 0 0 0 0 10 43 191 358 326 673 900 939 1028 859 718 892 1289 1279 1108 942 804 684 510 173 80 146 58 29 2 0 36 0 0
0 0 0 0 0 0 0 0 0 0 0 0 0 0 0 0 0 0 0 0 0 0 6 21 121 211 295 282 534 765 928 955 1301 1212 1158 1039 894 750 557 176 63 109 49 43 61 37 42 0 0
0 0 0 0 0 0 0 0 0 0 0 0 0 0 0 0 0 0 0 0 0 0 0 0 6 34 152 174 130 279 488 541 888 875 768 860 773 675 636 457 229 90 20 4 15 8 1 0 0
0 0 0 0 0 0 0 0 0 0 0 0 0 0 0 0 0 0 0 0 0 0 0 0 0 0 77 74 84 106 87 400 649 570 524 618 677 652 555 471 239 189 62 20 32 41 14 0 0
0 0 0 0 0 0 0 0 0 0 0 0 0 0 0 0 0 0 0 0 0 0 0 0 0 0 24 78 39 77 76 150 423 533 439 336 441 514 286 333 129 205 126 39 35 62 21 0 0
0 0 0 0 0 0 0 0 0 0 0 0 0 0 0 0 0 0 0 0 0 0 0 0 0 0 0 57 64 54 36 71 120 232 380 245 270 214 175 174 112 140 158 93 43 32 13 0 0
0 0 0 0 0 0 0 0 0 0 0 0 0 0 0 0 0 0 0 0 0 0 0 0 0 0 0 69 141 102 63 28 32 6 51 189 210 159 85 115 129 81 144 51 81 33 2 0 0
0 0 0 0 0 0 0 0 0 0 0 0 0 0 0 0 0 0 0 0 0 0 0 0 0 1 0 93 143 142 100 55 41 7 2 8 106 171 153 126 140 131 64 67 62 81 64 0 0
0 0 0 0 0 0 0 0 0 0 0 0 0 0 0 0 0 0 0 0 0 0 0 0 0 0 1 18 103 123 76 50 21 3 28 40 54 136 148 168 134 106 86 61 55 38 32 33 9
0 0 0 0 0 0 0 0 0 0 0 0 0 0 0 0 0 0 0 0 0 0 0 0 0 0 0 1 13 71 72 59 30 14 14 33 92 124 144 173 148 144 107 97 91 95 22 73 91
0 0 0 0 0 0 0 0 0 0 0 0 0 0 0 0 0 0 0 0 0 0 0 0 0 0 0 5 0 0 1 0 0 0 0 1 47 88 157 213 132 101 105 100 130 93 18 56 108
0 0 0 0 0 0 0 0 0 0 0 0 0 0 0 0 0 0 0 0 0 0 0 0 0 0 0 44 49 47 37 42 27 12 0 1 5 64 99 120 88 106 134 196 105 79 29 28 58
0 0 0 0 0 0 0 0 0 0 0 0 0 0 0 0 0 0 0 0 0 0 0 0 0 0 0 53 59 76 99 85 59 53 39 23 20 34 31 89 87 75 65 34 75 29 31 4 5
0 0 0 0 0 0 0 0 0 0 0 0 0 0 0 0 0 0 0 0 0 0 0 0 0 0 61 90 141 143 64 48 47 80 39 48 51 30 7 36 17 41 74 76 59 42 51 21 1
0 0 0 0 0 0 0 0 0 0 0 0 1 1 0 0 0 0 0 0 0 0 0 0 0 37 103 98 144 144 78 90 57 58 51 53 53 52 6 51 70 55 24 9 60 17 9 9 3
0 0 0 0 0 0 0 0 1 0 0 0 3 31 25 0 0 0 0 0 0 6 13 34 61 108 139 113 218 225 113 108 94 51 52 53 44 45 83 45 25 52 48 22 18 18 4 1 8
0 0 0 0 0 0 0 0 0 0 0 0 0 0 6 0 0 1 1 4 85 97 116 141 148 152 129 138 124 131 128 82 93 74 95 122 30 29 15 21 19 26 41 19 6 11 4 10 46
0 0 0 0 0 0 0 0 0 0 0 0 0 0 0 0 0 0 2 72 224 236 157 192 162 194 157 133 111 149 126 128 97 70 67 80 40 27 54 34 40 29 25 33 5 6 5 52 44
0 0 0 0 0 0 0 0 0 0 0 0 0 0 0 0 0 0 0 18 55 56 81 117 157 209 195 180 179 118 111 96 65 44 52 54 35 28 29 22 18 7 28 33 49 41 39 6 40
0 0 0 0 0 0 0 0 0 0 0 0 0 0 0 0 0 0 0 0 30 24 26 58 64 76 53 51 45 65 37 22 7 29 24 19 11 2 3 4 19 31 26 44 37 42 46 45 36
0 0 0 0 0 0 0 0 0 0 0 0 0 0 0 0 0 0 0 0 0 1 6 7 16 40 74 52 6 38 47 47 34 4 4 7 33 39 40 17 5 14 43 44 48 51 33 37 14
0 0 0 0 0 0 0 0 0 0 0 0 0 0 0 0 0 0 0 0 0 0 0 0 3 5 0 33 41 30 11 15 17 25 28 52 34 32 17 8 3 8 13 23 45 26 21 40 7